GFSCGP_250_spd_000.txt.gz
Wind_Speed
24 25 27 27 28 31 35 38 37 36 35 32 28 25 23 23 24 24 24 25 28 26 29 31 37 35 35 35 36 42 45 50 47 45 50 57 59 59 57 60 61 65 66 67
20 23 24 24 25 26 25 23 23 23 24 23 22 20 24 23 23 24 26 29 31 30 32 34 35 38 37 40 43 45 46 51 51 53 58 59 61 63 63 66 67 67 67 69
12 14 16 17 18 19 20 21 21 22 24 23 23 25 24 23 24 26 30 34 34 35 37 36 38 40 41 45 49 49 50 51 57 59 60 64 65 67 68 70 71 68 73 77
10 12 14 17 19 19 20 20 21 23 23 21 26 28 22 28 29 30 35 38 38 37 40 38 42 45 47 50 53 53 54 57 64 64 62 65 68 71 73 73 73 78 83 87
11 14 16 18 19 18 21 20 22 22 24 25 28 33 19 28 28 35 37 37 39 39 36 39 42 45 48 52 55 55 57 63 66 67 68 70 70 71 75 79 81 85 90 94
8 11 14 16 20 22 22 23 23 24 26 30 32 36 24 30 27 32 38 36 37 37 39 42 45 46 51 55 56 60 65 65 68 69 73 75 78 83 86 89 91 94 98 101
4 6 7 9 13 17 21 23 24 28 30 33 35 39 22 34 36 27 33 35 41 42 45 48 50 50 50 56 60 64 69 72 73 72 75 81 85 90 93 95 99 102 104 110
2 4 5 7 7 8 10 13 17 20 25 27 33 38 26 32 38 34 36 37 39 44 49 49 49 51 54 57 61 65 72 75 77 79 80 84 89 94 98 102 107 110 114 119
7 8 8 10 9 9 8 9 11 15 18 22 27 27 24 32 37 39 39 41 42 44 47 51 53 53 58 60 63 69 73 79 84 86 90 93 97 101 105 110 116 120 123 127
3 5 7 8 10 13 15 17 19 21 23 25 26 28 25 28 30 33 42 44 46 45 48 51 53 57 60 62 69 76 80 84 87 91 96 100 103 108 113 122 127 130 130 133
4 7 9 12 13 15 17 20 23 24 27 29 32 37 36 36 37 39 41 43 45 50 49 52 58 62 65 70 76 82 85 87 92 97 101 108 114 120 125 130 132 130 133 136
7 9 10 13 15 16 17 18 23 26 29 32 37 41 40 41 43 42 44 49 53 54 55 59 64 67 71 76 82 84 87 91 97 103 110 118 124 128 131 133 134 134 133 129
13 16 17 18 21 25 26 29 30 35 36 37 38 43 44 45 45 46 47 50 51 56 59 63 69 73 79 85 87 91 94 99 106 112 117 126 127 133 137 138 133 126 122 119
19 21 22 23 24 25 28 31 33 34 40 44 38 42 48 47 46 50 52 51 55 60 65 69 74 80 84 89 93 97 103 110 114 118 121 133 134 137 138 129 120 118 117 116
22 25 26 27 29 32 34 35 36 40 42 42 45 44 43 46 49 51 53 54 57 62 67 73 78 84 87 92 98 104 111 117 121 128 130 133 132 127 122 119 116 115 114 113
26 28 32 33 34 36 38 40 42 45 47 45 46 48 49 51 52 51 57 61 64 69 74 78 83 87 92 99 104 110 116 126 127 132 133 130 126 113 109 107 106 105 104 99
31 34 37 40 42 42 43 44 47 50 50 49 50 50 51 51 52 56 61 66 71 74 79 84 88 94 99 105 111 114 122 130 135 132 128 124 116 115 110 106 99 93 89 85
36 40 41 43 46 50 49 50 50 49 51 53 51 51 51 53 57 59 61 66 72 78 83 89 94 100 105 110 115 121 129 133 131 128 125 115 109 106 103 100 93 87 82 78
44 46 47 48 49 53 53 50 55 51 54 54 54 53 54 55 58 65 67 74 78 85 90 95 102 106 110 116 124 127 129 130 124 121 116 111 104 100 94 90 85 81 77 74
47 49 52 53 53 54 55 54 56 54 57 55 57 58 59 62 66 73 77 83 89 93 98 102 108 112 119 125 129 131 128 123 118 112 107 102 100 95 89 83 79 76 73 68
52 54 55 54 55 56 57 58 62 60 61 61 61 61 65 68 72 77 82 87 91 96 103 109 114 118 125 128 132 132 123 119 112 103 100 97 91 86 81 77 74 70 66 63
60 64 62 61 62 60 59 60 63 65 63 62 62 66 69 73 79 84 89 92 96 103 108 113 118 124 128 130 133 125 117 110 104 99 94 89 85 80 75 72 69 65 62 60
69 70 64 63 64 66 63 62 64 65 64 64 66 73 76 81 85 90 92 96 103 108 111 117 121 125 130 132 126 119 108 101 97 93 88 82 77 74 70 68 64 63 59 56
69 68 63 60 63 64 66 64 61 65 66 68 71 77 83 87 89 94 98 104 106 110 117 122 123 127 131 127 120 111 104 99 91 86 80 76 72 70 66 64 62 59 56 53
70 68 67 62 62 64 62 65 66 68 72 76 80 84 87 90 95 99 103 106 110 116 121 124 125 129 126 119 113 105 100 94 87 81 76 73 70 67 64 61 60 57 53 50
72 68 66 61 60 65 65 66 70 76 80 84 88 91 95 100 103 103 107 111 115 119 125 122 127 127 121 114 106 98 94 88 82 77 74 70 68 65 62 60 56 54 52 50

GFSCGP_250_spd_003.txt.gz
Wind_Speed
23 27 30 31 31 32 34 35 33 35 33 34 36 36 42 39 39 42 41 42 40 34 33 33 34 35 35 37 35 35 41 43 46 51 58 58 55 57 62 65 65 65 66 68
17 17 18 18 21 23 24 26 26 28 30 31 34 33 38 37 35 35 37 38 36 36 34 31 33 32 32 41 43 40 44 50 53 57 59 59 60 63 68 68 69 70 73 74
14 16 20 23 24 24 24 25 24 28 28 28 32 29 28 32 33 32 34 35 33 32 32 35 39 35 33 43 48 50 51 53 56 58 56 60 64 66 68 71 73 78 80 81
11 12 13 14 12 14 15 17 20 23 24 26 30 24 27 29 32 28 35 33 35 34 36 43 44 40 42 44 48 51 55 58 56 55 58 62 66 70 74 75 78 81 84 89
5 8 10 11 11 16 16 17 20 23 26 28 32 26 26 25 23 30 40 31 36 33 32 36 42 49 51 51 53 56 59 60 60 61 64 67 72 76 78 81 84 88 92 96
9 10 13 14 15 18 21 21 20 22 24 28 31 32 28 21 23 26 34 40 45 43 39 36 37 45 51 56 57 56 57 61 63 68 71 75 81 85 89 91 94 96 100 106
5 5 5 5 6 9 12 16 20 23 25 24 29 30 28 27 29 29 31 31 34 36 38 37 41 45 50 54 57 59 62 65 66 68 71 77 84 88 92 94 97 102 107 112
8 8 6 3 2 1 4 6 7 12 17 21 22 22 23 26 26 27 29 31 33 39 44 43 43 44 46 51 55 56 62 68 73 77 82 88 93 97 101 104 107 110 113 121
11 10 8 7 7 7 8 9 11 14 18 22 18 21 21 25 27 29 32 35 38 39 45 44 47 49 53 54 59 62 67 72 78 84 90 94 97 100 104 110 114 117 120 127
6 5 4 4 7 9 11 13 15 18 22 28 27 26 31 30 33 35 37 40 43 43 45 49 51 54 55 58 63 68 74 80 84 87 92 98 103 105 110 116 122 124 130 135
3 2 2 4 7 9 12 16 15 17 20 24 32 28 31 36 38 39 41 45 49 50 51 52 56 59 62 65 69 73 77 80 86 91 96 102 110 114 119 124 130 132 139 139
4 5 8 10 10 13 16 17 18 21 25 29 33 35 34 37 38 41 45 48 51 53 55 57 58 61 64 68 74 78 83 88 93 97 104 111 116 122 127 134 138 138 137 129
7 10 14 17 19 19 19 23 28 31 32 30 36 40 40 44 44 44 44 47 51 55 57 59 61 64 69 73 79 85 90 94 99 103 109 116 125 131 133 134 128 125 121 118
12 15 17 19 21 23 24 27 27 29 33 40 39 43 45 45 48 46 48 50 53 54 55 59 65 67 72 76 82 88 95 100 105 112 117 124 131 134 132 130 122 117 114 108
17 19 20 22 25 28 30 33 34 35 37 40 45 46 51 50 47 48 52 54 55 54 58 63 66 70 75 80 87 94 99 106 114 122 129 130 132 132 130 124 117 113 110 103
22 24 25 28 31 34 36 38 40 42 44 48 48 50 51 55 53 53 56 58 59 59 61 66 71 75 82 88 94 100 106 113 120 127 132 134 132 135 127 121 116 107 99 93
26 28 31 35 38 40 42 46 48 50 50 50 51 52 55 56 56 56 57 59 62 66 67 73 78 84 90 95 101 107 114 119 122 128 134 133 131 126 122 114 107 99 92 85
30 33 37 40 41 41 42 47 51 52 53 56 56 56 58 60 59 60 60 61 64 66 71 79 86 90 95 102 106 111 117 123 127 132 131 133 125 117 111 104 97 91 84 80
36 37 38 39 44 48 49 54 60 58 59 61 61 61 62 64 65 61 59 62 67 72 79 85 91 99 105 107 110 115 122 128 131 131 131 130 120 109 99 92 88 82 78 76
33 37 44 47 52 56 56 61 62 59 60 62 64 64 64 64 63 63 65 69 76 82 88 93 101 106 106 109 116 121 127 130 131 129 128 118 107 98 90 85 78 76 74 71
43 46 51 54 57 61 63 60 59 58 58 61 61 61 60 60 62 66 70 76 83 87 92 99 106 107 111 116 120 125 128 130 128 128 117 106 98 90 84 79 76 73 71 67
50 54 59 61 63 63 62 59 60 59 58 59 59 59 60 63 69 75 79 85 91 94 100 105 108 111 117 122 126 126 128 128 126 114 105 98 92 86 79 75 72 68 66 63
58 62 65 67 68 67 60 61 60 58 59 58 59 62 66 70 76 81 86 92 96 101 106 109 113 117 121 125 127 127 126 126 116 106 97 92 87 80 75 72 68 65 63 60
65 69 71 69 69 71 63 58 57 60 61 61 64 70 74 79 84 89 95 98 104 107 112 116 119 121 123 126 128 127 126 120 108 99 92 87 81 76 71 68 65 63 60 56
72 76 76 71 73 71 68 62 61 63 64 67 72 77 82 86 91 96 101 105 108 112 118 121 123 125 126 127 128 126 119 110 100 93 88 82 76 72 68 65 62 60 57 53
74 77 78 75 76 75 69 68 70 71 72 75 79 83 87 93 98 103 107 109 113 118 120 122 124 127 126 126 126 118 110 101 95 89 82 77 72 68 65 63 60 56 54 52

GFSCGP_250_spd_006.txt.gz
Wind_Speed
24 26 28 29 28 31 33 38 42 42 45 43 42 46 43 43 43 40 39 41 40 40 40 41 43 45 48 45 43 42 47 47 47 52 55 57 61 63 67 68 63 65 68 71
19 20 23 25 25 27 29 32 34 31 33 32 30 35 33 32 34 35 35 38 40 41 43 41 43 48 48 46 44 45 47 49 52 54 57 60 65 68 68 65 67 71 73 76
15 15 16 17 20 21 19 25 29 27 32 29 30 33 34 33 30 31 36 40 43 43 42 43 44 43 42 42 42 42 47 51 53 57 61 65 68 67 68 71 74 79 82 84
15 15 15 18 21 21 23 26 26 27 26 26 25 22 23 22 27 31 35 37 38 39 40 40 39 40 41 41 44 48 52 55 58 61 63 64 66 68 70 74 79 83 86 90
13 14 14 19 21 17 17 17 19 21 23 26 24 20 21 25 29 29 33 39 41 41 46 46 44 40 42 46 50 54 55 57 59 61 61 63 65 69 74 80 85 90 94 97
13 12 13 14 14 15 17 18 21 23 25 25 22 20 20 28 30 32 36 38 37 40 43 45 47 47 48 50 52 54 57 58 59 62 64 68 72 77 81 86 91 96 100 105
8 8 7 8 9 11 14 16 17 18 22 17 17 15 15 18 21 22 24 26 28 30 34 37 41 44 48 55 57 56 56 58 62 65 69 73 77 82 86 91 96 101 105 109
8 9 7 6 4 3 3 3 4 5 7 7 11 15 18 18 19 17 22 26 32 34 38 38 41 46 48 53 57 60 63 67 71 73 76 79 81 85 90 95 101 106 113 118
15 13 11 8 5 2 3 4 7 10 11 13 15 18 19 22 24 26 29 33 35 37 42 43 46 49 52 56 59 62 65 67 69 73 77 81 87 92 97 103 109 116 121 126
11 8 5 4 3 4 6 7 10 12 14 14 15 18 21 24 27 29 31 35 38 39 43 47 47 49 53 56 60 63 65 69 73 78 83 88 94 99 106 112 116 121 128 131
7 5 2 1 4 8 9 11 15 19 22 25 24 25 26 27 31 35 36 39 42 42 44 46 50 53 57 60 62 65 69 74 78 83 89 94 102 110 114 118 123 129 131 132
8 7 6 6 8 12 15 17 19 21 24 29 28 30 34 36 38 41 43 44 45 46 48 50 51 54 56 59 63 67 72 79 83 88 96 102 108 115 120 124 127 131 128 127
10 10 10 11 12 13 16 20 23 26 27 31 35 34 38 40 42 45 47 48 48 49 51 53 54 56 59 62 67 74 79 84 91 97 103 108 113 118 123 128 129 128 127 125
12 13 13 14 15 17 21 24 28 30 34 36 39 45 44 45 47 48 52 54 56 58 60 60 60 60 62 66 71 77 83 91 96 104 110 114 118 124 129 129 126 125 124 122
15 16 16 18 20 22 26 29 30 34 36 39 44 47 49 51 53 54 55 56 57 58 61 62 61 61 65 71 77 83 89 96 104 109 114 117 122 126 126 125 123 123 120 115
18 19 20 22 23 27 31 35 35 38 43 46 50 56 55 55 55 56 58 59 59 60 60 59 60 64 70 76 84 90 96 105 109 116 120 123 125 124 125 124 123 118 110 103
22 23 25 26 29 33 35 36 39 43 49 52 57 59 58 55 57 60 60 61 60 59 59 62 67 72 78 85 91 98 103 109 116 121 124 128 128 126 123 121 115 106 99 92
26 28 28 31 34 34 35 42 45 49 54 56 59 59 57 57 58 58 58 59 60 61 64 69 75 80 87 93 99 104 110 115 118 123 127 128 126 126 122 114 104 96 90 83
30 32 34 35 34 38 42 47 51 54 60 58 61 61 60 59 58 57 58 60 63 66 71 77 82 88 93 99 104 109 114 118 125 127 126 128 126 123 114 104 96 88 81 77
34 34 35 37 42 44 48 53 56 61 64 63 65 63 62 62 60 60 60 63 68 73 78 84 89 95 99 104 108 114 118 124 128 126 125 124 123 114 106 96 88 81 77 74
34 38 42 48 50 53 54 58 62 66 63 62 66 64 61 61 63 64 67 71 76 80 85 91 95 101 105 109 114 121 126 126 129 125 123 122 115 106 97 89 82 78 74 70
40 43 49 53 57 58 62 65 68 67 66 66 69 66 64 65 66 68 72 77 81 86 91 95 100 105 110 115 120 127 128 129 129 125 123 119 109 99 91 85 79 74 69 66
47 52 56 57 60 65 68 71 72 70 70 72 74 69 67 70 71 74 78 82 87 91 96 99 104 110 117 121 129 132 131 128 126 126 119 111 101 93 86 81 76 71 66 64
55 58 61 63 67 70 71 73 73 71 73 75 75 72 71 74 75 79 83 87 92 96 100 104 110 116 122 126 133 133 129 125 126 119 111 102 94 88 81 76 71 67 64 60
62 64 67 68 73 71 71 74 74 75 77 78 73 73 75 79 82 85 88 92 97 100 105 111 116 120 125 132 133 128 126 125 119 113 101 95 88 82 77 71 67 64 61 59
68 71 74 72 75 74 76 77 77 79 81 79 77 78 81 83 87 88 93 97 102 106 112 116 122 126 130 134 128 124 122 116 109 101 94 88 82 76 72 67 64 60 59 57

GFSCGP_250_spd_009.txt.gz
Wind_Speed
25 26 26 26 28 34 36 37 37 37 35 38 41 41 41 42 44 44 45 45 45 43 42 45 46 45 46 47 46 41 45 50 55 60 68 70 71 72 71 71 72 73 75 75
25 24 25 25 26 30 32 31 30 27 28 32 35 36 34 34 35 35 37 39 42 43 44 46 47 47 48 49 50 55 56 57 59 62 66 69 68 69 72 74 75 75 75 75
24 24 24 22 23 24 25 24 24 23 24 27 26 27 26 29 33 37 38 38 40 41 42 44 48 49 52 51 52 55 55 52 53 56 60 63 68 70 72 73 75 78 79 79
19 17 17 16 18 21 22 23 22 21 21 21 22 25 25 28 31 33 34 33 34 35 37 42 46 49 48 46 45 49 50 50 52 57 60 65 70 72 73 75 77 79 81 85
17 18 14 16 18 18 21 21 22 20 18 16 16 16 19 22 25 29 33 36 38 40 44 46 46 45 44 44 49 48 49 53 58 62 66 68 69 72 75 78 80 83 87 91
16 16 15 15 15 17 18 17 18 18 18 13 14 13 17 20 25 29 32 35 37 39 39 40 42 38 36 43 50 51 53 58 61 63 66 68 71 73 75 78 83 89 96 100
15 14 14 14 14 15 15 14 12 9 5 7 8 10 11 13 15 19 23 27 29 32 35 39 42 41 45 49 52 54 57 59 62 65 68 71 73 77 81 85 89 92 98 102
14 14 14 12 9 7 4 2 2 2 2 4 5 8 11 13 17 20 23 26 30 33 36 41 45 47 49 51 54 56 57 60 64 67 70 72 74 79 83 88 92 98 103 108
11 12 11 10 10 7 4 2 1 3 5 8 12 15 17 18 22 25 27 29 31 35 39 42 45 47 49 52 56 60 62 64 66 68 71 74 78 81 87 93 98 105 111 116
16 14 11 9 6 3 1 4 6 8 11 14 16 18 21 24 26 28 31 33 36 39 41 44 46 49 51 54 57 60 63 64 66 68 71 77 82 87 93 99 106 111 117 122
13 11 8 4 1 2 5 8 10 13 15 18 20 21 23 25 30 33 36 39 41 43 44 46 47 50 53 55 57 60 62 64 67 70 75 80 86 93 100 106 112 118 120 124
10 7 5 4 4 6 8 10 13 16 17 19 22 24 27 29 34 38 42 45 47 49 50 51 51 52 54 57 60 61 63 65 70 75 81 88 95 101 108 114 121 123 127 126
9 8 8 9 10 11 11 13 16 20 22 24 26 31 35 38 42 47 50 52 53 54 55 56 55 55 56 58 60 61 64 71 77 83 91 97 103 108 113 121 127 125 124 122
11 12 13 13 13 14 16 18 22 26 28 28 32 36 41 45 49 53 56 57 55 55 56 58 57 56 57 59 61 66 73 79 87 93 99 104 108 113 118 127 128 124 121 119
15 16 16 17 18 18 20 23 27 28 27 32 37 43 47 51 53 55 56 57 56 56 57 57 58 58 59 63 69 75 81 88 94 100 104 108 114 120 126 132 129 126 121 117
18 19 20 22 23 24 26 28 30 29 31 37 43 46 51 54 56 58 59 57 57 56 57 58 61 63 65 70 76 82 87 94 101 106 110 116 122 127 134 132 127 125 118 112
22 23 23 26 25 26 31 34 31 33 39 43 48 51 57 57 56 60 62 62 60 59 60 60 63 66 71 77 82 87 93 101 106 111 116 122 126 133 134 128 126 121 114 103
26 27 28 29 29 30 36 38 34 39 46 48 51 57 61 61 59 62 64 63 61 61 63 65 67 72 77 81 85 93 98 105 110 116 120 127 131 134 129 125 121 115 105 95
29 30 32 33 35 33 38 39 43 47 51 54 58 63 65 67 65 65 67 66 64 67 70 71 74 79 82 86 91 98 105 110 116 121 127 133 132 127 126 124 117 105 96 89
33 34 35 34 34 36 42 46 49 52 56 59 65 66 67 70 70 72 74 71 71 71 72 76 80 84 87 92 98 104 111 117 122 127 133 132 128 127 125 118 108 98 90 83
33 32 34 38 38 37 46 51 56 59 61 65 70 69 69 73 76 76 78 77 75 74 76 82 85 89 93 99 105 111 117 123 127 134 133 127 126 127 120 110 100 93 85 78
37 38 40 42 45 44 53 55 60 64 65 69 69 70 73 77 79 80 81 80 78 79 84 88 91 95 101 106 111 117 124 129 133 135 129 127 127 122 113 103 96 87 79 73
40 43 45 51 54 56 59 61 65 66 69 72 73 73 78 81 82 83 84 82 83 86 89 92 96 101 107 112 117 123 130 133 136 131 127 127 122 116 105 97 88 81 75 70
45 53 56 58 61 65 66 67 70 70 74 75 76 78 84 86 84 84 83 84 86 90 94 97 102 108 112 117 124 132 132 134 128 127 127 123 118 108 99 90 81 75 69 66
56 61 63 62 67 67 70 73 74 76 78 77 79 83 85 83 81 82 84 88 91 96 99 104 109 114 117 123 132 134 131 127 126 126 122 118 109 100 91 82 75 70 66 63
65 68 68 67 71 72 73 73 76 77 78 81 84 85 80 81 84 86 90 93 97 101 105 110 115 119 124 131 134 128 125 123 122 119 116 109 99 91 83 76 70 66 63 60

GFSCGP_250_spd_012.txt.gz
Wind_Speed
24 25 26 27 29 27 26 27 29 33 35 35 37 37 38 40 42 43 45 46 46 48 46 43 43 43 46 45 45 45 44 51 55 58 62 67 70 75 78 79 78 76 76 76
24 25 27 27 28 28 27 24 26 30 32 32 32 36 37 37 37 38 38 38 37 36 37 39 40 43 44 45 47 45 49 54 59 64 67 69 72 72 72 74 75 75 77 80
22 22 22 23 23 22 19 22 26 28 26 24 24 26 27 29 30 31 30 31 33 34 35 37 39 40 42 43 48 52 55 58 61 62 62 65 66 68 70 72 74 76 78 81
18 21 22 22 21 20 17 17 18 18 19 19 19 20 23 26 29 28 27 27 27 30 34 37 39 40 44 46 48 49 52 55 57 57 58 60 63 67 70 73 76 79 82 86
16 17 19 19 16 16 17 17 13 10 11 13 14 15 18 21 24 24 25 28 30 31 32 32 31 34 35 36 39 44 48 50 53 57 60 63 66 70 73 75 77 79 82 83
16 18 16 14 12 12 10 9 8 8 9 12 17 19 23 22 23 24 25 24 23 25 27 31 34 35 37 40 43 47 50 53 56 59 61 64 66 69 72 74 76 77 81 86
16 14 16 15 11 9 7 7 9 9 12 16 19 21 21 18 18 19 21 24 26 28 31 34 36 40 43 47 49 52 54 56 58 59 61 63 66 68 71 74 78 82 86 90
10 12 13 11 9 8 8 7 8 7 6 5 5 8 11 15 19 22 25 28 29 32 35 39 43 46 48 50 51 53 54 56 58 60 61 64 67 70 73 77 81 86 92 98
15 14 11 10 8 10 11 8 6 6 6 6 7 9 13 16 20 23 27 30 34 38 41 44 47 49 52 55 57 59 60 60 61 63 66 67 69 70 75 81 88 95 101 107
13 14 15 15 13 10 7 4 3 3 6 10 12 15 18 22 25 27 29 32 36 40 44 49 52 55 57 59 61 62 62 62 63 63 63 65 69 75 81 89 96 102 104 106
16 16 15 12 8 4 3 3 4 6 9 12 14 15 17 20 23 28 33 39 43 47 49 52 52 54 56 59 60 60 59 59 60 62 64 69 76 83 89 94 100 107 111 116
15 12 10 8 5 4 6 6 8 10 12 15 18 17 21 25 30 35 40 44 46 49 51 51 52 53 55 57 57 58 58 60 62 65 71 77 82 88 95 100 108 113 120 123
14 12 8 6 7 9 11 11 12 15 18 20 20 23 26 29 36 40 46 49 51 51 53 53 53 54 55 56 57 60 62 65 68 72 78 83 89 96 102 107 113 123 124 126
12 9 8 9 11 13 15 16 17 20 22 25 24 27 30 36 41 44 49 48 51 54 56 58 59 58 58 59 61 65 67 69 74 78 84 88 96 103 108 114 123 126 128 124
12 12 12 13 16 17 19 22 24 26 28 30 29 32 35 41 46 51 55 56 56 55 57 61 61 62 63 63 63 65 69 75 79 85 91 97 105 110 115 122 130 130 128 124
15 17 17 17 18 20 23 28 28 30 34 34 33 38 42 46 48 54 60 61 61 61 63 65 68 68 66 64 67 70 76 82 87 93 97 105 110 116 122 130 132 127 123 122
20 19 20 22 23 23 29 31 32 34 38 36 38 44 48 50 56 60 65 65 67 69 72 73 74 73 67 67 71 78 84 89 94 99 104 111 115 121 128 133 129 122 121 117
25 26 25 27 28 26 34 37 36 36 37 38 44 47 49 57 61 64 67 69 70 71 75 78 78 76 73 76 80 85 90 94 100 105 111 115 120 126 131 128 124 123 118 112
29 30 30 29 33 32 35 40 40 37 38 46 49 54 58 62 64 69 71 73 74 75 80 82 79 78 79 82 86 91 96 101 106 112 116 124 126 128 127 124 123 119 113 106
33 33 34 36 36 34 37 43 43 42 41 52 56 61 64 65 67 71 75 76 76 79 84 82 79 81 83 87 92 97 101 107 112 117 124 127 127 122 122 123 120 114 108 100
35 37 39 39 38 35 41 42 45 49 51 56 61 67 69 71 72 75 78 78 81 84 84 80 82 86 89 93 98 102 107 112 119 123 127 124 120 119 122 120 116 110 102 95
41 41 42 43 44 40 44 45 51 57 60 62 67 70 72 75 77 77 78 82 84 86 83 84 88 92 95 99 103 107 113 119 122 125 124 120 119 120 120 116 112 105 98 90
44 47 47 48 49 48 48 54 59 63 66 69 71 74 76 78 79 79 83 85 86 85 87 90 93 97 101 105 109 113 118 122 124 122 121 118 117 117 116 113 107 99 93 83
51 51 50 50 54 57 59 61 66 67 70 74 76 78 80 80 81 85 86 86 87 88 91 94 98 102 107 112 116 119 121 124 120 119 116 115 115 114 112 108 99 92 85 77
51 57 58 56 59 60 66 70 71 72 76 80 81 81 82 83 87 87 88 90 89 91 96 99 104 108 114 118 121 122 121 118 116 115 115 114 112 111 109 102 94 86 79 73
65 63 62 61 65 66 71 73 77 79 82 84 83 83 85 88 89 89 90 91 94 97 100 105 111 115 119 122 123 119 117 115 113 114 114 112 110 107 102 96 89 80 74 71

GFSCGP_250_spd_015.txt.gz
Wind_Speed
24 23 25 22 22 22 22 24 25 27 28 29 30 30 32 34 35 36 35 35 38 41 41 42 42 41 41 41 41 41 43 45 48 50 55 60 65 69 72 76 79 79 79 80
22 23 25 25 24 24 24 24 24 26 27 27 29 31 32 33 35 37 38 38 37 37 38 38 35 34 36 40 41 43 44 47 50 52 56 60 64 69 73 75 78 79 79 78
21 22 22 22 22 21 23 23 23 22 22 22 24 26 27 28 30 30 28 28 29 30 30 30 30 31 32 35 39 41 44 48 53 58 61 63 66 67 68 69 71 74 76 78
19 21 22 21 19 20 21 19 18 19 20 20 20 21 21 21 22 21 21 21 22 21 21 24 26 28 31 36 38 40 42 46 47 50 54 58 62 64 67 69 71 73 74 76
19 18 18 19 19 18 18 18 16 14 12 15 16 19 22 23 22 19 18 19 18 20 23 24 24 27 30 33 36 39 42 45 48 51 54 58 61 63 65 67 70 72 73 75
18 16 14 15 16 18 17 12 12 15 17 19 17 17 19 16 16 16 15 16 18 22 26 28 31 33 37 40 43 46 49 51 54 56 59 61 63 64 66 68 70 72 73 73
15 14 16 17 18 18 14 16 15 12 11 13 15 16 16 13 9 10 14 18 21 26 30 33 35 38 42 45 49 52 54 57 58 60 61 63 65 66 67 68 69 69 72 79
15 14 12 12 13 12 11 10 8 7 5 4 2 3 5 7 10 12 16 20 24 26 29 34 38 40 43 46 49 51 53 55 57 58 60 59 60 62 64 67 70 75 81 86
15 14 12 11 11 11 10 11 10 9 5 2 4 6 8 11 13 16 19 21 24 27 31 37 40 44 47 49 50 52 53 54 55 57 58 61 64 66 69 73 77 82 87 90
10 10 10 12 15 16 15 13 9 7 7 7 8 10 11 13 14 16 20 24 29 34 39 41 43 45 48 50 53 55 56 57 59 59 59 62 65 68 71 76 81 85 91 95
11 13 16 19 18 15 11 9 7 7 7 7 8 12 14 16 19 22 24 29 34 39 41 45 47 50 51 53 56 59 60 61 61 62 62 64 67 70 75 81 86 91 96 101
19 20 19 17 13 10 8 6 7 8 8 10 12 15 19 20 22 25 29 33 37 40 46 49 47 47 49 53 58 60 60 60 61 62 64 67 71 77 82 85 92 96 103 109
20 19 16 12 8 7 7 8 10 12 14 15 18 21 22 25 26 30 33 37 39 46 50 53 55 56 57 59 63 66 65 63 61 62 67 72 77 83 88 94 99 105 109 114
16 15 11 9 8 8 9 11 14 16 18 21 22 27 27 29 31 35 40 42 45 51 54 57 62 65 66 67 69 72 70 67 67 70 72 78 85 90 95 100 107 111 116 117
15 13 12 11 12 11 13 15 19 21 25 27 28 32 30 33 36 41 45 45 51 56 60 62 66 70 70 71 73 76 74 71 74 78 81 87 92 97 103 108 113 118 118 119
14 15 16 15 14 16 19 22 25 27 30 30 31 37 35 35 39 46 48 53 58 61 65 66 69 73 73 75 77 78 77 76 80 84 88 94 99 105 110 114 118 119 119 117
19 21 19 18 19 19 24 30 30 32 33 34 36 39 36 39 45 51 55 59 64 65 69 71 73 76 77 79 81 81 80 82 85 90 96 102 106 112 115 118 119 116 116 114
23 24 22 23 25 23 32 36 36 35 38 38 40 37 38 44 50 56 60 65 69 71 74 75 78 78 80 82 83 83 84 86 90 96 102 108 113 116 118 117 118 116 113 113
27 26 26 27 29 29 36 39 41 41 40 42 39 41 45 51 56 61 64 68 71 75 77 79 81 82 84 86 86 86 88 92 97 102 108 114 117 118 117 117 113 111 112 108
29 30 31 33 32 33 39 43 44 43 40 45 47 48 53 58 62 65 68 71 76 79 82 84 84 87 88 89 87 91 93 97 102 108 114 117 118 116 115 112 110 111 109 106
34 34 36 37 37 37 42 44 44 47 47 48 51 56 60 64 68 71 74 78 81 84 85 85 89 91 90 89 92 94 98 103 108 113 116 118 116 112 112 111 110 109 106 104
37 38 40 42 43 43 46 47 48 48 50 53 56 61 64 68 72 74 78 84 86 85 85 90 91 90 91 92 95 99 104 110 115 116 117 116 109 109 110 110 109 107 105 101
41 43 44 48 50 50 48 50 51 53 58 61 63 67 71 74 77 80 84 87 86 87 90 88 89 92 93 96 100 105 111 114 117 118 113 105 106 109 110 109 108 104 102 97
44 47 50 50 54 54 54 57 59 61 64 68 71 73 76 80 83 85 87 87 87 88 88 90 93 95 99 104 108 112 115 116 114 107 105 105 108 110 109 107 105 102 98 91
46 48 49 50 55 58 62 64 65 68 71 74 77 81 85 86 85 85 86 88 87 89 92 97 99 103 107 112 115 117 115 109 105 107 109 109 110 109 107 105 101 99 93 85
57 55 55 57 61 61 66 69 71 75 79 83 86 87 86 84 84 87 88 90 92 96 99 101 105 110 114 115 116 112 105 105 109 109 108 109 107 106 105 101 99 93 86 79

GFSCGP_250_spd_018.txt.gz
Wind_Speed
34 33 31 28 26 24 23 23 25 27 27 28 28 27 26 26 26 28 30 31 32 35 36 38 40 42 44 45 46 46 44 41 41 44 46 52 57 60 64 67 69 72 76 78
33 33 29 25 26 27 25 24 22 22 23 25 25 28 29 29 30 31 31 32 33 35 38 39 38 37 36 36 36 35 36 39 43 46 50 54 57 60 63 65 66 68 71 74
30 28 26 24 27 27 25 22 22 24 24 25 26 28 29 28 27 26 27 29 31 31 30 30 30 29 31 32 34 36 38 39 41 44 48 51 55 59 62 67 70 72 74 76
24 23 23 24 26 25 25 25 24 24 24 22 23 24 24 23 23 23 23 22 21 20 22 23 24 26 27 28 29 32 36 39 43 47 52 56 59 62 66 69 72 73 75 77
22 21 21 22 24 25 25 24 21 18 17 21 23 22 22 20 17 15 13 16 18 17 16 16 17 21 25 29 34 37 40 44 47 51 55 59 62 65 68 70 71 72 72 72
19 19 21 23 23 22 21 20 19 20 21 22 20 19 18 14 13 14 14 12 9 10 13 18 23 27 30 32 35 39 43 47 50 54 56 60 62 64 65 65 65 65 65 66
20 19 20 19 19 19 18 17 19 19 18 16 16 16 13 10 8 5 6 9 12 16 20 22 24 28 31 34 37 41 45 46 48 49 51 54 58 61 63 64 65 67 68 70
21 21 19 17 16 16 18 19 18 17 16 13 9 6 3 2 4 6 9 13 16 17 19 21 26 30 34 38 40 44 45 47 49 52 56 59 62 63 65 66 67 68 71 74
19 18 16 16 19 21 20 18 17 15 13 10 7 5 5 6 8 11 13 14 16 18 24 28 31 35 37 39 41 46 49 51 53 54 59 61 61 62 64 65 67 69 73 78
17 18 19 21 20 18 15 13 14 12 9 7 6 6 8 11 13 15 15 17 20 25 28 32 35 39 41 44 46 50 53 56 58 60 64 65 64 63 63 66 69 72 78 84
14 16 16 17 15 15 16 15 12 10 9 9 8 10 12 14 17 19 22 23 26 29 32 34 39 44 47 51 55 58 61 62 63 65 68 70 69 67 68 72 76 81 88 93
16 17 18 20 20 20 17 13 11 10 11 12 13 14 15 16 20 24 28 29 31 33 36 38 44 49 53 56 60 64 68 68 68 69 70 71 71 71 73 78 82 89 95 101
19 22 24 22 19 15 13 14 14 14 16 17 19 20 20 24 26 28 32 35 36 40 43 44 49 54 57 61 64 68 71 73 73 74 74 73 73 75 80 84 90 96 102 106
22 23 21 18 17 16 14 15 16 16 17 20 23 25 26 30 32 34 36 37 40 43 47 50 54 59 62 65 69 73 74 76 77 78 78 78 78 82 86 91 97 102 108 111
23 22 20 18 16 15 16 16 18 20 21 25 28 31 28 30 36 39 39 39 42 47 52 55 58 62 65 69 73 77 78 80 81 84 83 82 84 88 92 98 104 109 113 115
23 22 21 21 20 18 17 20 22 24 26 30 31 37 36 36 38 40 42 42 46 53 56 60 64 67 70 75 80 82 82 82 86 85 84 86 88 93 98 104 110 113 115 111
24 24 25 25 21 20 23 26 26 29 31 33 35 38 40 42 43 44 44 45 53 58 61 67 71 74 76 80 84 85 84 87 86 86 88 90 95 101 106 111 115 116 109 107
28 28 27 27 25 24 30 31 33 33 36 36 37 41 43 44 45 46 47 53 59 63 67 73 75 78 81 84 87 85 88 88 88 90 93 97 102 107 112 116 115 108 108 109
29 29 29 29 30 30 33 36 39 38 39 39 41 44 45 47 49 50 54 59 65 69 72 77 80 82 85 87 86 88 88 89 92 96 99 103 109 112 115 111 107 107 108 109
31 31 32 33 32 34 38 40 41 42 42 45 47 49 50 51 54 57 60 65 69 72 76 80 85 86 86 85 88 90 91 95 99 102 105 109 114 114 110 108 107 108 110 110
33 33 35 35 36 39 41 42 43 45 46 49 52 53 56 60 59 63 67 71 75 78 82 86 85 83 85 88 89 93 97 101 104 108 111 112 113 109 108 109 111 110 108 105
35 35 37 39 41 41 43 45 47 50 53 55 56 58 59 62 66 69 73 77 82 85 85 82 81 83 86 89 93 97 102 105 108 112 112 109 105 107 109 110 107 105 103 102
38 39 41 44 46 46 45 47 48 49 52 55 58 60 63 67 70 73 78 83 84 81 81 84 85 86 89 95 100 104 107 110 112 108 104 104 107 107 107 106 107 106 105 103
42 45 47 46 47 46 45 47 51 55 59 61 62 66 69 72 75 79 83 80 80 82 84 86 89 93 99 100 104 107 108 107 105 106 107 104 103 105 108 106 103 104 104 100
47 46 45 46 51 51 56 57 59 63 65 66 69 72 75 78 81 82 81 81 82 84 89 93 97 100 103 107 109 110 104 102 104 106 109 108 109 109 107 103 104 103 99 94
47 48 50 52 55 57 62 66 68 70 71 74 76 77 80 84 85 84 83 84 87 92 97 100 103 107 110 113 111 105 106 105 110 113 113 113 111 106 103 104 103 97 92 88

GFSCGP_250_spd_021.txt.gz
Wind_Speed
25 32 37 35 32 28 27 26 25 25 27 31 29 27 26 24 27 28 26 28 30 33 38 37 38 39 41 42 45 47 47 53 53 56 58 59 58 57 59 61 63 65 66 69
31 34 34 31 30 29 25 25 24 25 27 29 31 31 31 29 29 28 28 30 32 33 35 36 38 41 42 42 44 46 47 47 45 44 46 47 48 50 52 55 60 64 69 72
35 34 33 31 29 26 25 26 25 24 23 23 25 26 27 29 31 31 31 34 34 35 35 35 36 38 38 38 37 33 33 33 34 37 41 45 49 54 58 63 67 71 75 78
36 34 33 31 27 25 26 27 25 23 22 24 26 26 29 30 30 30 29 28 29 30 31 32 33 30 26 24 24 27 30 34 38 41 45 49 53 55 59 60 63 65 67 72
32 32 31 30 27 25 28 27 26 25 24 29 26 26 26 24 21 24 25 26 27 27 24 21 19 18 18 21 25 29 33 36 40 45 48 49 51 52 53 55 59 62 65 67
30 28 26 25 25 26 27 27 29 29 27 26 23 22 22 19 17 23 24 23 20 16 17 15 14 16 19 23 27 32 36 39 41 44 46 49 52 55 57 60 63 64 66 68
24 25 24 25 26 27 28 28 26 25 24 19 19 20 16 16 21 25 21 18 17 16 14 13 14 17 22 26 30 33 36 38 42 45 49 51 54 57 58 60 62 65 66 66
25 25 27 26 25 25 25 23 22 20 19 17 16 18 14 17 17 15 15 15 13 13 13 15 18 22 26 30 34 36 41 45 48 52 55 59 60 63 65 65 69 70 71 70
26 26 25 23 23 22 21 20 19 18 16 15 14 13 12 12 13 12 12 13 14 14 16 21 24 27 31 34 37 43 46 47 51 56 60 65 69 71 72 73 75 76 74 74
23 22 21 22 22 21 19 18 17 17 16 15 15 15 14 12 10 12 15 17 19 21 24 27 30 32 36 38 41 47 50 53 57 61 64 69 72 74 75 76 79 78 77 79
20 22 23 22 20 18 19 20 19 17 17 18 17 14 11 11 14 18 20 23 26 29 32 35 37 39 41 43 47 52 56 59 62 65 69 73 76 75 76 77 78 79 82 85
22 22 22 22 22 21 21 21 19 17 17 15 14 13 15 17 18 20 23 27 31 34 37 43 44 46 47 48 52 57 61 65 69 74 75 78 80 79 80 80 81 83 87 93
21 23 22 22 22 23 22 20 20 19 19 17 19 18 22 24 26 28 30 34 36 38 42 43 43 46 52 56 58 62 67 72 76 78 80 82 82 83 84 84 86 90 95 100
23 24 24 24 23 23 22 22 21 21 20 20 24 24 26 27 30 31 34 37 40 44 46 45 45 49 57 60 64 68 74 78 80 82 84 85 83 86 87 89 94 98 101 105
24 25 27 25 25 23 22 22 24 24 23 25 27 28 29 29 33 37 39 42 46 48 50 49 49 56 62 67 71 75 78 82 84 86 86 86 87 89 91 95 100 102 107 111
26 27 27 27 25 24 24 27 26 26 27 28 29 32 32 36 37 41 42 45 47 49 51 52 57 63 68 71 76 78 82 85 87 86 85 87 90 93 97 101 103 106 110 110
27 27 28 28 27 27 28 28 27 29 31 31 32 36 39 41 43 44 45 46 49 51 54 58 62 66 70 72 77 82 86 86 84 84 87 88 92 97 101 105 107 108 108 105
30 29 30 31 29 29 33 31 32 33 35 36 38 41 43 44 46 47 48 51 52 56 61 64 65 70 74 79 82 85 83 82 85 88 91 95 99 102 106 111 107 102 102 106
32 32 33 33 34 35 36 36 37 37 40 38 43 46 47 47 50 53 52 57 60 64 65 67 72 75 79 85 84 81 82 85 89 92 96 100 103 106 109 103 101 104 107 107
33 34 36 37 37 38 39 39 40 42 42 45 49 49 51 53 55 59 60 62 64 66 69 73 75 80 84 86 83 82 84 88 95 97 102 104 107 106 103 102 106 106 110 109
35 36 37 38 39 41 41 41 43 44 47 49 51 53 54 56 58 60 63 65 67 70 74 77 80 85 87 84 85 86 90 96 96 100 103 106 101 103 105 109 106 107 104 105
36 37 39 40 42 41 43 42 46 48 49 52 54 53 55 56 61 65 68 72 73 77 78 83 87 88 87 88 89 91 98 101 104 108 109 109 105 104 106 109 109 106 105 103
39 39 41 43 44 42 44 47 48 51 54 54 54 58 60 63 66 69 71 76 80 80 83 87 89 89 90 90 92 100 103 106 108 107 106 103 107 110 111 109 111 103 101 102
40 41 42 44 46 47 49 51 51 53 54 58 61 64 67 69 74 76 78 81 84 85 91 91 90 91 91 95 100 103 106 109 110 108 103 109 114 113 109 110 112 110 107 108
43 43 45 47 50 50 51 50 54 58 59 63 67 70 72 77 79 81 85 85 88 92 92 91 92 93 98 101 104 108 110 107 107 108 112 112 113 111 109 109 108 107 101 97
47 47 49 48 47 51 55 57 60 61 67 71 73 76 78 83 85 87 88 91 95 91 92 93 97 100 104 106 109 110 109 108 107 109 111 116 115 114 112 109 104 101 98 93

GFSCGP_250_spd_027.txt.gz
Wind_Speed
11 17 27 31 35 33 35 36 34 34 30 26 30 31 28 25 20 24 26 28 30 35 31 32 33 34 40 40 39 45 48 50 58 62 69 70 70 74 77 79 82 77 72 66
12 22 26 31 31 29 35 30 29 29 30 29 28 32 25 24 20 26 28 28 32 32 34 34 36 34 42 41 47 51 56 60 62 63 65 66 65 64 65 64 62 58 59 60
12 15 22 23 26 25 27 26 22 21 23 24 28 26 27 30 34 26 26 27 30 33 31 33 35 35 40 43 44 43 49 51 54 56 56 57 57 52 51 52 53 53 52 54
14 15 18 21 20 18 20 19 21 21 21 25 25 25 27 31 32 30 30 31 31 33 35 35 37 36 38 42 42 40 46 49 49 48 45 45 43 44 44 46 48 52 54 57
16 16 17 17 18 20 21 20 21 21 23 26 25 23 25 27 29 24 28 31 26 16 23 27 31 34 33 33 34 35 40 40 41 41 40 41 41 42 43 45 49 54 57 61
12 16 19 21 23 23 23 22 22 22 22 24 27 23 23 26 24 27 29 33 29 21 26 29 30 28 28 28 29 32 34 36 39 40 42 42 44 45 46 50 54 60 63 68
15 14 19 20 23 23 22 25 22 22 24 30 25 27 25 25 22 18 26 33 28 24 28 32 33 30 27 26 29 33 36 38 41 43 43 45 49 53 56 59 62 67 71 75
18 15 17 23 24 24 29 27 24 25 27 29 30 28 26 27 25 25 30 29 28 34 35 35 28 25 27 30 30 33 37 41 45 50 52 52 55 56 60 65 67 73 79 80
26 23 24 26 26 29 29 27 27 28 30 26 25 30 17 24 26 25 31 28 32 30 34 31 28 28 28 31 33 34 38 43 50 53 54 56 58 63 67 70 75 80 81 86
26 31 29 28 26 28 27 29 28 26 26 28 27 24 22 27 21 22 29 33 35 37 36 28 27 29 31 34 37 39 43 49 53 57 57 58 63 67 72 74 76 81 86 90
27 32 35 28 27 33 33 31 29 26 26 27 25 24 27 27 23 18 22 24 27 30 30 29 29 32 37 41 43 45 45 48 52 57 59 62 67 70 70 75 80 84 89 94
23 24 26 25 25 26 30 27 25 23 23 26 27 26 27 22 21 21 20 26 29 31 31 30 32 37 40 43 46 49 49 51 54 61 65 67 66 70 75 80 84 87 94 91
25 26 25 23 26 23 24 24 24 25 27 28 27 25 23 22 22 24 28 29 30 31 31 33 34 39 44 46 51 53 54 56 61 66 70 66 72 77 82 85 88 95 94 91
27 28 28 28 28 25 28 26 28 28 31 27 30 20 25 23 23 26 31 33 34 32 34 35 36 40 43 47 51 55 59 62 65 66 70 75 78 83 86 90 94 97 94 94
27 29 28 29 30 28 28 28 30 30 33 27 27 26 25 24 26 31 33 37 39 43 46 42 42 46 48 51 54 58 60 64 67 71 77 81 85 89 90 95 97 94 96 99
28 28 28 29 29 28 30 32 33 33 30 27 27 26 28 27 32 35 37 36 37 42 48 53 51 52 56 55 57 62 65 67 71 78 83 87 90 92 97 99 96 98 101 107
28 29 29 31 32 32 35 34 32 31 27 28 28 27 31 35 34 36 40 44 47 49 51 56 59 59 57 61 66 69 71 74 79 85 89 91 94 99 99 98 100 104 109 111
30 26 28 30 29 30 33 33 31 30 26 28 31 33 36 38 40 42 44 47 50 51 53 56 62 65 66 69 73 77 77 80 85 89 92 94 98 98 98 101 106 110 112 110
29 26 28 28 28 29 29 30 30 30 30 33 36 38 40 45 46 49 51 51 53 55 57 61 63 66 72 75 78 81 84 88 91 93 97 97 96 98 101 107 111 113 111 108
31 26 27 29 29 29 29 33 34 33 33 39 42 44 47 49 52 53 54 55 57 61 63 66 68 71 74 78 83 87 90 92 94 100 97 95 97 102 109 113 113 110 108 110
33 30 29 30 32 33 32 37 36 38 40 44 46 48 51 53 56 57 57 58 61 66 67 67 71 74 78 83 87 90 91 93 99 97 98 101 105 109 114 116 116 112 111 110
38 34 30 32 34 37 38 37 40 41 44 48 48 49 52 56 60 61 58 60 63 68 72 74 76 80 84 89 92 92 93 100 101 100 103 107 113 117 118 117 113 114 114 113
41 37 35 34 35 36 37 38 41 43 49 47 49 52 56 58 59 60 60 64 67 71 77 80 83 86 90 92 92 95 100 102 101 103 106 111 116 118 117 115 112 113 113 113
42 41 39 39 39 37 37 40 42 47 51 51 53 55 56 58 59 62 65 68 72 77 81 85 89 91 92 93 95 100 103 101 104 105 110 116 118 116 114 110 111 112 114 111
43 44 43 43 43 40 41 43 46 49 52 53 56 58 58 60 63 67 72 75 79 82 86 89 92 94 95 97 101 104 101 104 107 111 117 119 117 114 112 111 111 110 108 104
45 44 47 44 44 43 45 47 49 52 55 56 58 60 62 64 69 74 78 81 85 87 88 91 94 96 97 102 104 101 104 109 112 116 120 119 114 111 110 108 108 110 107 101

GFSCGP_250_spd_030.txt.gz
Wind_Speed
19 8 18 24 29 29 29 28 32 33 36 43 41 37 30 28 30 32 35 37 40 44 46 53 52 49 52 50 48 52 54 55 57 59 61 66 73 75 72 71 75 76 77 78
18 12 16 21 20 22 26 27 30 35 30 34 39 34 32 29 31 32 33 33 31 33 36 43 48 47 48 52 50 45 44 50 55 54 57 59 62 67 72 75 74 74 74 72
15 13 10 18 20 21 22 26 28 28 28 30 30 28 33 34 31 30 29 29 34 35 31 39 43 42 42 39 36 38 42 48 53 56 59 60 62 61 64 66 67 65 64 66
14 13 8 12 18 22 25 25 32 31 29 32 32 31 30 32 30 31 33 31 29 29 30 31 35 39 40 40 37 40 44 49 49 54 54 56 57 57 56 56 59 60 62 64
10 11 15 13 18 23 24 24 26 27 25 26 26 28 24 25 28 31 36 37 37 37 35 34 38 40 36 32 35 35 38 42 47 49 48 47 48 49 53 57 58 60 62 66
12 10 10 14 17 19 23 24 23 24 27 25 23 27 28 27 27 31 33 32 33 36 38 39 33 33 27 27 30 30 40 39 39 40 42 43 46 51 54 57 60 63 66 67
15 9 9 13 16 17 19 22 21 23 27 26 24 25 27 29 29 32 33 27 30 32 37 38 35 25 24 29 28 31 33 35 38 41 44 47 49 51 55 58 60 64 67 69
20 13 12 11 16 17 23 22 25 26 26 25 26 25 27 30 31 33 31 27 24 26 33 30 28 29 31 25 25 29 36 39 42 44 46 48 52 55 54 57 62 64 65 66
23 23 15 18 18 23 23 28 27 26 29 29 26 25 27 29 30 29 28 24 23 23 28 27 27 32 25 28 32 35 39 44 45 47 48 51 53 56 60 63 65 66 66 71
23 24 23 20 22 23 25 28 28 28 30 31 26 26 27 28 27 24 29 26 25 26 29 34 33 32 34 33 32 37 42 45 48 51 54 56 59 61 63 66 66 69 74 78
23 21 22 22 21 25 28 29 28 30 33 33 30 28 27 25 24 22 25 25 23 23 25 26 30 34 36 34 35 39 43 47 50 54 58 61 64 64 65 67 71 76 81 85
23 23 20 19 21 26 31 34 31 33 32 32 31 26 25 26 21 21 22 24 24 25 26 32 35 35 37 38 38 41 45 49 53 58 63 67 66 66 70 73 78 82 86 89
24 29 20 18 19 19 22 22 22 25 26 28 29 26 22 26 21 20 23 23 25 29 29 29 32 35 38 42 46 49 52 55 59 62 64 66 68 70 74 77 83 86 89 94
24 28 24 21 19 19 22 22 24 23 28 30 30 29 24 26 19 22 26 27 28 29 29 31 33 34 38 43 48 50 52 56 59 62 66 69 70 72 78 83 86 89 96 94
24 28 26 25 23 21 24 29 29 29 31 31 28 31 25 22 22 23 29 30 30 32 33 32 35 40 44 47 49 52 55 61 63 65 68 71 76 81 85 88 88 96 96 94
24 28 27 26 25 23 26 30 27 28 29 30 32 30 27 20 26 31 32 32 33 35 39 41 44 46 48 49 52 57 62 63 64 67 71 77 81 87 89 90 95 98 95 96
26 30 28 28 26 25 28 31 29 32 31 30 31 27 28 29 31 31 33 37 40 42 44 48 50 51 54 56 60 64 66 66 69 73 78 83 87 89 91 94 99 95 98 101
30 29 30 30 26 27 32 30 32 32 32 30 28 29 31 32 32 34 38 42 45 49 52 55 56 58 60 63 66 68 70 73 76 81 85 88 91 91 94 100 96 100 103 110
32 32 31 28 28 28 30 30 29 27 27 27 30 32 34 35 38 40 43 47 51 55 57 58 60 61 64 67 70 73 76 80 84 87 90 92 93 96 102 97 99 104 110 113
34 35 34 33 30 28 31 31 26 24 24 31 33 34 37 41 43 46 48 52 56 58 59 60 61 63 67 71 73 77 82 86 89 92 94 96 97 103 99 102 107 110 113 118
35 37 36 35 32 31 34 30 29 27 32 35 38 40 42 44 47 50 52 55 59 61 62 63 64 66 70 74 77 82 86 90 92 94 96 96 102 100 101 105 110 113 119 120
35 39 40 38 36 35 34 33 33 34 38 40 40 42 45 47 49 52 55 58 60 62 64 66 68 73 77 80 84 87 90 92 95 96 98 102 102 102 105 110 113 118 120 114
38 41 41 40 40 38 36 37 38 41 42 43 44 45 47 50 53 55 58 61 62 64 65 69 73 78 82 85 89 91 92 96 96 98 101 102 102 105 109 113 116 120 117 115
39 43 43 42 43 42 42 42 42 44 44 45 46 49 52 55 57 59 60 63 65 66 69 73 78 82 86 89 91 93 96 97 99 101 103 102 106 110 111 115 118 117 116 115
42 42 45 43 46 45 47 46 46 47 48 49 51 53 55 57 59 62 65 67 68 71 75 80 83 86 89 91 94 96 98 99 101 103 102 106 110 112 115 118 118 115 114 113
44 46 47 47 47 48 49 51 51 51 50 51 52 55 59 62 65 67 70 71 72 76 81 84 88 91 93 96 97 98 99 101 104 103 106 111 113 115 116 117 116 116 113 109

GFSCGP_250_spd_036.txt.gz
Wind_Speed
50 35 28 19 8 4 3 5 11 8 19 17 19 22 31 32 28 27 28 43 48 39 39 42 42 43 40 38 44 49 54 48 52 53 55 59 54 55 58 61 64 68 68 68
50 33 29 18 13 10 8 7 10 12 14 17 18 23 23 30 33 28 27 26 31 28 28 38 41 42 40 42 45 46 53 54 57 55 57 58 61 62 63 64 60 61 61 61
47 33 29 18 13 7 12 12 13 15 16 19 20 23 23 24 25 29 40 37 38 36 29 28 36 40 46 47 50 49 52 53 54 59 56 56 57 56 56 55 55 55 57 58
48 34 26 21 9 10 10 10 13 14 15 19 21 25 25 28 32 30 26 27 36 36 42 38 33 36 40 39 39 39 40 41 44 47 49 50 51 51 51 49 48 51 52 53
49 40 25 22 12 5 11 12 16 16 18 20 22 25 22 27 34 34 33 34 36 37 40 40 39 35 35 32 35 37 39 42 44 45 43 40 42 45 45 46 49 51 53 56
50 43 29 23 17 11 10 14 15 21 17 19 19 25 26 24 26 27 27 33 33 36 40 39 35 35 37 40 41 42 38 40 38 35 38 37 38 41 45 48 51 55 58 61
50 45 33 23 20 14 12 15 18 20 20 20 23 23 23 24 23 27 32 32 30 31 32 34 36 36 39 38 39 37 35 33 32 28 36 38 41 45 47 52 57 59 63 65
48 46 34 21 20 18 14 15 17 20 19 20 22 25 24 23 22 21 22 27 32 33 35 34 35 37 39 42 37 33 22 20 32 35 37 40 42 48 54 58 60 63 63 65
46 44 37 24 19 20 16 13 16 20 21 19 20 21 21 22 25 26 25 28 31 35 38 40 40 42 43 36 31 26 20 29 35 40 42 45 46 51 56 60 61 62 64 66
44 43 39 29 21 18 17 16 15 19 22 25 25 25 28 24 28 30 30 33 35 36 38 39 39 34 31 31 28 26 26 31 36 40 44 48 51 55 58 59 61 62 66 69
40 43 42 34 23 18 17 22 21 17 20 25 28 31 31 32 31 33 34 34 33 35 36 32 31 28 29 25 25 25 28 31 35 41 48 54 56 54 57 61 62 65 68 72
42 43 42 39 26 22 19 21 23 27 29 30 29 35 33 34 36 37 37 36 33 30 31 31 29 27 23 25 27 28 31 34 38 41 50 52 54 58 63 63 65 69 72 74
44 44 41 41 30 23 18 19 20 24 28 30 30 34 32 36 38 39 33 32 29 28 30 29 27 24 26 28 29 31 34 38 42 45 48 53 58 60 64 67 69 71 74 76
45 43 38 37 31 23 19 20 21 20 21 23 27 28 24 25 28 27 28 31 28 30 30 29 26 28 31 31 30 35 39 44 48 51 55 58 60 65 68 70 71 75 77 80
44 44 42 40 33 27 22 20 20 22 25 25 30 26 26 27 28 29 32 35 33 33 31 29 30 32 32 32 35 37 43 47 51 55 60 63 66 69 70 73 76 78 80 85
43 46 40 39 34 29 22 25 24 24 23 23 29 30 31 30 29 29 31 34 38 37 37 34 33 34 35 38 41 46 48 52 57 62 66 67 70 72 75 76 79 81 84 88
45 46 45 41 35 28 25 29 23 20 21 23 27 32 31 30 30 30 32 37 39 40 40 37 36 38 40 43 46 50 53 58 62 65 67 70 73 75 77 79 82 85 89 95
45 45 45 41 33 29 33 32 29 22 23 22 25 30 32 31 31 34 36 38 40 39 39 39 41 42 44 47 51 55 60 63 65 67 70 73 76 78 80 83 87 90 94 96
44 46 45 42 40 33 36 36 32 28 24 27 29 29 31 32 32 32 34 37 37 37 39 41 43 46 48 52 56 61 64 65 67 70 74 76 79 82 84 87 91 94 97 100
48 47 44 47 45 37 41 40 34 31 28 35 32 28 29 32 32 31 30 33 35 37 41 44 47 49 53 57 61 63 65 68 71 73 75 79 82 84 87 91 94 97 99 101
48 50 45 46 46 44 44 43 36 34 40 32 33 33 33 33 34 36 35 35 38 41 44 46 50 53 57 60 62 65 68 71 74 77 79 82 85 88 90 93 97 99 101 102
49 50 48 50 48 48 47 46 39 36 41 37 33 35 36 38 39 40 40 41 43 46 48 51 54 57 59 62 66 69 71 73 76 79 83 86 89 91 93 97 98 100 102 106
51 54 49 48 50 51 50 47 43 37 38 40 38 37 38 41 44 45 46 48 50 52 54 56 59 61 64 67 70 72 74 77 80 84 87 89 92 94 96 98 100 102 107 107
53 52 50 50 52 56 53 49 49 41 39 39 42 42 42 43 46 48 51 53 55 57 59 62 65 67 69 71 73 75 78 82 85 87 89 91 93 95 96 99 102 106 110 110
53 51 52 51 57 58 53 54 54 47 45 44 44 46 48 48 49 51 53 56 58 60 63 66 68 71 72 74 77 81 83 85 87 89 91 93 95 97 101 104 106 110 112 114
54 53 55 54 62 58 59 56 54 50 47 46 46 48 50 52 54 56 58 60 62 65 67 69 72 75 77 80 82 84 86 88 90 93 95 97 99 102 104 106 110 113 115 118

GFSCGP_250_spd_042.txt.gz
Wind_Speed
39 45 46 48 43 36 29 11 3 4 11 10 5 4 7 8 17 22 24 23 29 38 34 27 27 30 36 39 51 42 45 46 44 48 53 44 46 52 52 51 59 63 64 68
38 44 43 45 43 39 24 14 4 2 4 14 10 8 8 7 13 22 28 16 19 18 28 30 26 26 32 36 41 48 46 45 45 46 47 49 61 66 71 70 70 65 66 67
35 41 40 42 43 41 24 18 10 5 4 7 10 10 12 8 9 21 28 26 23 22 20 28 30 30 30 33 32 38 48 50 46 46 48 53 49 50 54 59 61 63 63 63
34 37 38 39 42 35 26 19 14 10 11 13 15 14 14 14 11 16 24 25 29 21 25 22 31 35 34 31 33 36 38 39 43 47 47 53 57 55 57 55 57 55 54 54
33 34 36 37 40 36 37 22 18 13 12 11 12 11 11 15 13 13 18 21 21 22 22 29 27 28 31 35 34 34 33 36 37 42 46 46 47 51 51 53 51 51 51 52
33 33 34 37 39 38 32 28 18 17 15 15 14 12 12 14 19 18 17 18 21 23 21 21 24 28 31 33 34 38 33 36 34 35 39 43 41 42 46 50 51 51 48 47
31 29 31 35 38 36 32 33 22 17 17 17 20 18 13 13 15 18 18 21 23 26 28 30 32 33 34 36 36 36 39 39 36 34 33 36 41 40 43 44 49 47 47 52
31 28 28 33 36 40 35 29 28 20 18 19 23 22 17 18 18 20 22 23 26 29 30 31 33 34 34 32 32 33 32 32 33 31 27 23 35 39 36 41 46 52 53 56
34 26 27 31 35 39 38 31 32 26 22 19 21 25 21 22 21 23 24 25 25 24 25 26 27 30 32 33 34 36 37 35 36 33 32 36 30 42 40 48 52 56 60 61
37 29 27 30 33 36 38 33 29 31 24 23 22 25 23 22 24 24 26 26 27 28 29 30 32 32 33 34 35 35 38 38 37 35 35 42 48 48 47 51 54 56 60 62
37 32 28 30 33 36 38 35 34 29 28 25 25 27 27 25 25 26 26 29 30 30 32 34 34 34 34 36 37 38 38 39 38 37 38 49 48 46 50 52 54 57 60 63
39 36 31 30 32 35 37 39 36 29 28 25 28 32 32 28 29 32 33 34 35 37 37 38 38 39 37 37 40 41 38 37 40 40 42 50 55 53 50 50 54 59 63 65
48 40 36 31 34 35 37 36 38 34 26 28 25 30 29 27 34 35 35 36 38 40 41 41 40 42 42 43 39 38 39 39 40 41 44 44 45 46 49 54 59 63 64 68
51 43 41 34 34 36 35 37 36 36 30 29 27 29 28 29 30 36 38 39 40 39 39 42 39 37 36 36 37 39 42 42 43 44 45 45 47 50 54 58 63 67 70 73
54 44 44 39 36 36 35 37 35 34 29 29 33 28 31 27 29 30 32 32 33 32 32 33 31 32 37 38 39 41 44 44 44 43 48 51 52 55 59 63 67 71 74 77
54 45 46 42 37 38 36 40 35 34 31 28 31 36 34 33 34 33 32 33 35 36 37 37 39 39 39 39 41 41 39 43 47 51 54 55 57 60 64 68 71 74 77 79
54 47 47 43 38 38 39 39 37 38 33 30 26 32 32 34 35 34 33 32 33 37 38 39 39 41 42 43 42 42 44 47 50 54 57 60 62 65 67 70 73 76 79 82
57 51 48 43 39 36 45 36 40 38 37 30 30 30 31 32 33 35 36 33 33 35 36 39 40 41 44 46 47 47 47 48 49 51 54 58 62 65 68 72 76 78 82 84
60 54 48 42 40 40 43 42 41 35 40 32 31 29 30 34 33 35 37 37 37 35 34 34 36 38 39 40 41 43 44 46 48 51 55 59 63 68 71 74 77 80 82 84
60 55 51 44 41 37 51 46 43 39 41 35 34 35 35 37 34 34 37 40 40 40 40 37 38 39 41 41 43 45 47 49 53 56 60 63 66 69 72 75 77 80 83 83
59 54 50 46 43 43 52 44 43 38 40 38 37 37 39 37 37 37 36 38 41 43 43 43 43 43 43 44 46 48 50 52 55 58 61 64 66 70 73 76 78 79 81 85
58 55 48 47 44 41 53 46 45 44 39 39 41 39 41 44 44 43 39 40 41 43 45 47 44 44 45 47 49 50 53 55 58 60 63 66 69 72 74 75 78 81 86 91
57 55 53 49 46 49 49 46 46 44 42 40 42 43 45 46 46 48 44 45 43 46 47 47 48 48 48 49 51 53 56 58 60 62 64 66 69 73 75 79 84 89 92 95
56 54 51 50 49 51 50 51 47 46 45 43 45 47 49 50 52 49 48 48 47 45 47 49 51 50 49 49 51 53 55 57 59 63 67 70 75 79 83 88 94 98 100 100
55 51 48 49 51 54 54 51 51 46 43 47 48 50 52 53 54 51 49 53 54 48 49 50 51 52 54 56 58 59 61 63 67 70 74 78 82 87 92 96 98 96 94 96
48 45 50 52 59 59 54 52 48 44 47 50 51 51 54 53 55 56 55 57 58 57 54 52 53 55 58 60 63 65 65 67 72 77 82 84 88 94 95 96 94 95 97 98

GFSCGP_250_spd_045.txt.gz
Wind_Speed
29 34 38 40 42 44 36 21 14 11 13 13 7 8 7 6 12 18 28 29 27 19 16 20 14 19 25 17 25 33 26 36 48 43 40 40 39 43 57 57 57 60 60 57
28 32 34 38 39 41 34 22 16 10 10 16 15 10 5 3 14 20 21 32 25 28 27 28 20 19 31 30 31 31 36 37 39 42 41 46 55 58 56 53 53 55 59 64
27 32 33 37 36 38 36 31 14 14 10 6 10 13 8 7 10 21 23 30 27 29 33 34 29 28 29 32 37 38 39 43 40 43 46 44 45 50 57 61 63 66 66 62
26 33 34 37 34 35 38 29 20 12 13 16 15 14 13 11 9 18 25 27 27 25 24 27 36 32 30 37 34 36 39 42 42 45 45 46 50 54 54 57 59 62 66 69
27 29 36 37 32 33 36 34 24 14 12 16 14 12 13 12 11 12 22 34 30 31 32 27 27 29 33 35 35 36 34 35 36 41 49 53 56 57 60 62 64 66 65 63
26 29 35 37 33 32 34 36 28 22 14 12 14 13 12 13 16 17 15 26 37 36 32 26 26 25 25 31 36 39 39 37 41 41 41 44 46 49 50 46 45 54 60 61
27 29 35 38 34 31 33 35 34 28 22 16 13 16 17 21 20 22 24 23 24 32 27 27 28 29 28 28 30 34 35 37 40 41 42 43 45 46 41 38 47 53 58 58
33 29 34 38 35 33 31 34 35 35 28 22 18 14 19 25 23 24 23 25 23 24 28 32 34 35 36 36 37 37 39 40 40 42 34 35 44 45 40 42 45 57 56 53
39 32 34 38 36 34 31 33 35 33 35 28 23 20 17 20 24 26 27 25 27 29 31 32 35 36 35 36 36 37 37 36 38 38 31 41 40 45 47 50 53 54 53 53
43 39 34 38 36 32 30 32 34 37 35 34 26 21 19 20 22 26 29 30 30 31 32 31 29 30 31 31 32 33 35 36 36 40 43 49 47 46 53 54 53 51 50 56
47 37 35 32 33 32 32 30 34 38 36 35 28 25 20 20 25 25 29 32 33 33 34 32 33 35 35 34 34 37 38 39 39 41 41 44 46 47 57 60 60 61 60 63
50 50 38 38 36 36 33 33 35 36 38 36 31 27 22 18 20 27 29 32 33 36 37 37 37 37 37 38 39 41 42 44 44 43 44 44 46 45 48 58 62 62 63 65
53 51 48 41 37 40 35 36 38 36 37 38 35 30 23 20 17 21 27 33 35 36 39 41 42 42 41 42 42 44 45 44 44 44 43 43 43 45 49 53 60 70 73 72
58 54 47 42 41 43 35 39 40 34 38 40 36 34 27 23 18 22 24 26 30 33 37 41 43 43 42 42 41 39 39 40 41 41 43 44 47 50 52 56 60 62 65 67
55 53 51 48 43 42 39 40 38 37 38 40 39 38 34 26 25 23 23 27 30 34 35 34 36 37 38 37 38 38 41 44 45 41 41 41 45 49 52 56 60 64 68 71
65 64 63 55 48 45 45 44 41 36 39 39 40 39 36 32 27 26 24 25 29 33 37 38 38 37 37 39 40 42 43 43 41 44 47 50 50 52 57 60 64 67 70 73
68 68 67 55 51 47 40 46 43 37 39 40 40 39 38 36 29 27 27 26 29 33 37 40 41 41 41 41 41 40 39 41 45 48 51 53 55 55 57 60 63 67 69 71
66 69 64 59 54 45 46 46 43 41 42 38 39 39 38 38 35 31 30 27 27 31 36 38 42 41 39 38 38 39 41 42 44 43 42 43 45 47 49 52 56 61 66 70
71 63 61 57 53 47 48 46 45 41 40 38 38 39 38 37 36 36 32 31 31 31 32 35 39 41 43 43 43 42 42 43 44 45 47 48 50 53 55 58 62 65 69 73
74 65 57 56 57 49 53 52 50 44 45 42 36 37 38 37 38 39 39 37 34 34 33 33 35 41 44 45 46 47 47 47 48 49 51 53 55 58 60 62 64 67 70 73
76 69 69 65 59 52 56 56 54 43 54 42 40 39 38 39 40 43 41 42 40 40 37 36 38 40 43 47 49 49 50 50 51 53 55 56 57 59 61 63 63 66 70 74
78 72 67 65 62 53 59 62 53 52 50 43 46 45 43 41 43 44 45 45 44 45 43 42 46 46 44 45 49 51 52 52 52 51 52 53 56 58 60 64 68 73 78 82
76 72 67 64 57 58 63 57 55 54 51 48 48 48 45 44 44 47 50 49 48 50 49 48 49 49 52 47 49 50 50 49 50 53 56 59 62 65 66 69 74 79 83 86
73 67 61 60 54 57 59 58 56 57 54 51 52 51 52 51 48 49 51 52 53 53 53 56 60 57 53 53 49 51 52 54 55 57 60 62 63 65 70 74 76 79 82 84
67 65 57 54 56 58 56 59 64 60 54 57 57 56 57 52 49 51 54 56 57 58 57 59 62 61 60 56 55 56 56 56 58 62 64 65 68 70 72 71 71 75 83 91
60 59 59 58 58 60 58 63 58 56 56 60 61 60 58 52 50 52 56 59 60 63 63 62 66 61 62 57 57 56 54 54 55 62 64 67 70 72 68 74 83 93 97 101

GFSCGP_250_spd_048.txt.gz
Wind_Speed
31 29 29 28 31 39 40 41 33 16 9 11 9 11 13 5 24 23 25 19 16 20 23 18 16 20 22 22 27 39 42 41 46 47 55 63 58 54 61 60 50 53 55 56
27 27 27 26 34 38 40 39 32 20 9 7 15 18 12 12 17 16 22 27 20 24 18 22 21 18 18 25 25 28 33 34 34 37 36 43 50 53 56 57 60 62 60 56
26 23 25 24 33 36 40 37 35 26 16 9 12 20 21 18 11 19 23 26 28 30 25 25 27 24 22 19 26 27 30 32 32 35 40 42 41 46 48 52 51 54 61 66
26 26 23 27 28 34 37 36 36 31 20 12 7 16 19 18 15 22 28 29 31 34 35 30 26 28 26 28 35 34 37 39 42 43 43 43 48 55 54 53 52 50 52 56
29 26 27 31 27 32 35 37 36 34 29 21 13 10 15 18 18 18 29 29 33 35 38 28 29 31 30 29 33 38 39 39 42 45 49 48 48 52 56 56 57 59 62 67
35 29 34 28 29 30 37 38 37 32 33 29 21 14 13 15 16 17 19 30 38 34 37 43 32 29 33 30 32 37 36 39 42 43 43 41 43 48 49 48 50 50 56 63
35 39 35 31 30 29 36 38 39 36 34 33 26 20 15 16 16 16 21 21 40 41 36 38 43 39 29 27 30 29 34 40 41 44 43 45 45 45 48 48 45 49 49 48
37 33 39 33 35 26 31 35 37 38 37 35 35 25 16 17 20 15 20 22 27 37 45 41 42 35 29 32 33 32 32 34 35 37 38 40 44 50 52 50 45 49 44 48
38 35 43 38 39 29 33 33 33 35 38 37 37 33 24 16 19 19 20 24 28 30 34 40 45 44 41 44 45 44 42 42 42 43 44 44 36 41 47 45 51 52 48 54
38 38 40 41 41 32 36 31 32 34 34 37 40 37 25 20 20 20 20 22 28 33 31 35 37 38 40 41 44 48 46 44 43 40 42 41 42 46 48 51 53 54 57 57
41 39 45 41 41 36 30 35 33 35 37 34 38 37 36 30 22 20 18 20 21 25 35 36 37 37 37 36 36 36 41 39 39 43 43 43 45 48 52 52 59 58 59 61
46 46 46 44 45 42 43 39 37 37 37 36 34 41 37 32 29 23 24 18 19 22 25 35 39 40 37 38 40 38 42 42 41 45 44 48 46 49 51 49 51 53 56 65
52 49 50 48 46 42 43 42 39 37 36 38 37 40 41 35 34 29 27 24 24 23 20 25 32 34 37 40 42 42 44 43 42 46 48 50 47 46 43 46 51 52 55 59
59 53 51 53 52 56 49 43 38 38 36 39 37 36 40 37 37 34 32 28 27 28 26 23 25 27 30 34 36 37 38 40 40 39 42 45 45 40 42 48 51 54 57 60
69 57 57 51 45 56 56 48 43 39 37 40 41 38 39 38 36 38 34 29 25 26 25 28 27 25 28 29 31 36 38 39 36 32 38 42 46 47 50 52 52 55 58 59
75 60 63 65 53 53 58 53 45 39 43 41 38 38 40 36 36 39 36 33 31 28 26 25 28 26 31 32 31 33 33 36 37 43 43 46 47 50 50 54 57 59 61 63
74 65 67 65 54 51 52 54 51 45 47 42 40 38 39 37 37 38 37 35 34 33 30 27 28 26 27 32 32 35 37 37 39 41 42 45 46 46 46 47 48 49 52 54
75 72 71 66 58 49 52 57 61 54 49 46 43 39 39 36 39 38 38 38 36 34 33 31 27 27 22 24 28 32 38 40 41 42 44 46 47 48 50 51 52 54 57 59
78 77 74 64 61 50 50 61 64 57 52 48 43 41 37 40 43 42 40 42 39 39 37 38 35 29 29 29 31 33 36 38 43 46 47 49 51 52 54 56 58 59 62 64
81 80 76 72 67 57 51 58 63 60 46 53 47 45 45 42 43 48 42 45 42 42 42 41 43 42 37 37 39 43 42 41 40 44 48 51 53 55 56 59 60 60 61 63
84 84 81 76 72 66 51 61 63 51 54 58 52 48 47 48 45 49 44 43 45 48 47 46 46 47 47 44 45 46 47 48 45 44 47 49 50 51 53 54 56 60 63 61
84 84 86 80 77 69 68 56 53 59 62 56 54 51 49 48 45 50 50 50 48 49 49 52 53 52 54 53 52 53 56 54 52 50 50 52 54 56 57 58 60 61 64 66
80 78 82 82 78 71 73 65 62 64 64 63 59 55 55 50 52 53 55 54 54 52 49 52 55 55 57 57 57 60 61 58 56 58 55 55 56 55 55 56 58 59 63 66
77 80 76 76 68 69 69 72 75 73 73 68 62 57 58 51 56 57 56 57 59 56 54 53 55 57 60 61 62 64 64 64 62 63 61 60 63 61 59 59 62 64 69 71
79 80 73 71 68 70 72 69 73 71 63 58 60 59 57 57 60 61 60 59 61 59 57 55 56 57 62 64 66 68 70 70 69 68 67 68 72 71 67 68 66 71 72 79
79 74 72 69 68 71 75 74 82 71 63 63 64 61 63 62 64 63 65 66 66 64 61 60 59 59 65 67 69 71 74 76 75 74 75 75 80 74 73 69 75 81 83 85

GFSCGP_250_spd_051.txt.gz
Wind_Speed
18 21 16 17 15 24 30 32 35 42 31 14 16 16 15 15 18 17 11 15 15 15 15 11 16 22 30 36 42 45 49 53 55 58 57 48 56 55 52 52 56 57 58 58
20 18 16 15 15 24 24 30 36 38 38 25 8 11 20 11 16 17 14 21 18 12 16 18 14 14 17 27 41 45 45 52 53 53 59 59 48 50 53 55 52 53 58 60
14 21 18 14 14 24 25 29 35 38 37 37 25 7 12 19 23 15 18 21 26 21 18 20 22 23 19 16 24 31 35 38 49 45 39 42 44 40 41 44 49 59 58 55
18 20 24 15 17 21 24 27 32 37 34 39 30 20 13 16 17 18 21 20 30 31 23 23 26 25 21 23 19 22 30 29 33 33 36 38 40 42 44 46 49 52 53 52
29 25 21 19 21 21 20 25 29 32 33 34 39 29 17 10 13 17 26 25 28 30 30 28 26 30 33 32 29 28 29 27 30 34 38 41 45 47 52 51 55 56 58 60
34 31 29 30 27 20 24 27 25 31 30 34 33 40 28 17 12 9 22 21 32 30 34 33 30 28 28 29 33 31 30 34 38 39 41 49 51 56 56 55 55 55 58 61
43 34 32 34 28 21 25 28 22 32 30 31 36 34 37 26 16 5 15 19 23 32 38 37 37 37 30 30 31 35 33 37 38 44 47 48 50 53 57 59 57 49 47 53
45 37 35 31 29 23 26 31 32 32 31 31 34 33 35 36 26 16 10 15 23 25 31 42 41 39 40 41 34 22 29 32 35 38 42 45 48 50 54 53 51 53 56 55
52 42 39 31 35 26 26 32 33 33 30 35 36 33 31 33 36 24 19 11 14 27 27 41 43 44 43 42 42 34 34 36 36 37 40 42 46 49 51 55 56 59 61 57
49 46 45 37 28 30 32 31 32 33 27 34 40 33 31 37 33 33 25 25 19 12 18 27 34 45 50 47 46 46 44 44 46 51 56 53 52 48 50 52 54 57 55 55
56 49 45 42 31 28 27 33 33 35 30 34 35 32 31 34 36 32 30 22 21 23 18 18 24 31 36 37 38 42 26 31 40 34 39 38 38 42 49 47 58 54 55 58
65 64 51 45 32 33 29 27 33 36 38 34 34 34 33 33 35 35 32 28 21 21 23 23 21 22 28 35 35 36 33 25 47 34 40 40 36 35 36 39 55 57 61 65
71 67 57 50 45 38 35 29 36 40 32 35 31 36 32 33 35 35 34 33 28 22 16 20 21 20 24 25 28 33 37 40 43 41 45 41 35 47 59 55 63 65 63 64
78 71 57 52 51 46 37 35 37 45 38 43 36 36 35 36 33 35 36 36 30 27 23 19 21 25 25 26 23 29 35 42 41 45 51 50 46 52 60 62 61 60 61 62
83 74 64 54 56 48 39 42 39 42 39 42 46 36 36 39 36 37 36 36 35 30 29 23 21 18 21 20 26 29 33 38 42 49 51 50 49 52 54 55 58 59 61 62
87 75 72 63 57 58 47 44 42 41 41 39 48 45 41 38 37 38 37 37 36 38 34 32 24 22 24 25 15 16 18 24 33 40 42 44 46 50 49 51 54 55 56 57
93 82 77 68 63 62 54 43 46 44 45 45 47 49 39 43 40 39 35 33 34 40 39 34 34 29 23 22 22 17 16 21 25 26 31 37 42 45 48 51 52 53 54 55
100 89 85 78 73 72 55 53 54 53 47 42 47 53 52 49 45 39 38 37 40 39 41 39 35 33 30 26 28 28 26 27 28 29 28 31 33 39 44 48 51 54 55 57
106 97 92 85 79 66 56 55 58 56 49 46 51 54 58 52 50 44 45 41 37 45 44 43 42 40 37 34 33 35 34 35 36 33 34 36 37 36 35 34 39 46 54 60
110 105 101 93 85 71 57 58 62 60 46 48 53 59 58 49 49 44 47 42 44 46 46 46 46 46 45 41 43 45 46 43 43 41 44 44 44 44 44 46 47 50 50 56
110 114 103 96 89 73 68 64 72 64 46 58 58 58 50 46 45 47 50 50 49 46 47 46 50 50 50 47 47 48 50 50 48 49 50 51 52 52 52 53 51 52 57 62
102 109 104 100 93 84 76 71 74 64 66 67 58 58 50 47 48 51 52 46 49 52 51 51 50 52 54 53 52 53 53 52 51 53 54 55 57 59 60 59 61 63 63 68
97 99 96 93 82 77 76 74 75 75 73 71 67 57 50 44 49 52 53 54 59 59 55 52 54 56 54 56 58 58 58 54 54 59 63 64 63 67 68 69 68 70 71 72
84 80 81 79 77 78 75 76 81 79 77 76 72 68 65 60 51 56 58 61 61 62 59 58 57 59 57 57 63 64 63 61 61 64 68 68 67 71 75 75 74 73 75 77
79 77 77 77 76 76 76 80 82 82 80 80 77 74 72 70 64 65 66 64 63 62 61 63 63 65 65 64 68 70 67 66 67 72 75 75 75 76 80 82 83 80 81 83
68 67 73 76 77 76 76 77 79 79 81 81 81 78 76 71 72 73 68 60 61 63 64 66 67 68 71 74 73 73 70 70 74 78 79 79 81 83 86 89 87 85 87 90

GFSCGP_250_spd_054.txt.gz
Wind_Speed
22 24 15 16 16 13 21 22 26 31 27 35 20 23 27 21 22 27 21 10 13 15 18 20 22 24 26 27 29 35 39 50 59 72 68 60 51 54 60 66 65 60 57 59
27 26 16 16 15 14 17 21 22 28 26 29 32 20 27 30 24 24 19 17 16 16 20 19 17 17 21 25 27 31 39 41 47 58 67 59 53 56 56 58 57 55 59 58
28 26 19 19 19 16 17 18 20 25 28 31 30 36 19 23 28 28 26 22 16 23 18 22 18 12 15 15 18 30 35 40 45 45 43 46 53 56 55 56 53 47 52 60
33 29 24 18 22 18 13 16 19 25 25 27 28 33 28 22 19 25 24 24 19 24 23 18 22 16 15 16 12 12 22 30 33 37 40 43 49 52 48 47 51 58 60 57
44 36 37 29 24 19 17 16 19 23 24 30 28 29 36 28 21 19 17 22 22 20 28 27 17 21 19 22 22 17 16 19 22 26 28 27 31 35 37 39 42 47 51 55
47 40 41 44 31 25 23 20 18 21 26 30 26 29 28 31 27 22 21 19 10 20 25 33 30 22 24 23 24 26 23 24 27 27 27 32 36 38 37 45 51 56 57 60
53 48 38 44 37 30 26 31 20 17 23 28 31 31 29 29 30 27 22 21 16 16 23 27 36 30 25 28 30 27 28 28 28 31 34 34 38 44 46 47 49 52 56 60
51 49 45 50 45 42 27 25 24 16 22 25 29 29 34 25 26 27 23 19 20 15 19 26 35 43 37 34 29 30 34 34 39 36 37 36 38 41 44 48 50 50 52 57
51 48 49 48 48 44 44 30 32 23 24 25 27 27 34 24 25 25 26 23 20 22 19 20 26 31 46 42 38 38 39 38 34 32 31 32 35 38 42 46 47 51 55 58
52 55 56 53 50 45 44 36 34 26 25 22 26 26 33 27 24 25 22 25 20 18 22 23 25 29 36 41 41 43 45 45 39 37 37 32 35 38 33 33 35 38 44 40
60 57 60 57 49 46 45 42 34 31 27 24 30 25 27 29 26 28 25 22 19 11 11 15 24 30 29 35 41 41 38 35 31 38 41 36 31 24 31 37 43 42 38 33
63 60 60 58 55 53 50 41 42 33 25 27 22 25 26 29 31 26 29 31 26 22 12 12 16 19 26 31 30 35 38 36 33 37 35 39 40 35 38 30 51 37 46 50
72 64 62 62 59 52 46 46 41 33 31 26 24 36 29 28 33 29 33 34 32 29 20 16 11 14 21 25 29 32 35 36 37 40 46 42 47 43 42 42 50 47 49 52
74 68 63 64 66 63 59 54 51 49 48 40 31 38 36 28 31 33 34 31 34 33 29 24 20 11 12 16 27 31 32 36 39 41 46 46 51 50 49 49 55 60 67 67
80 71 68 68 67 69 66 56 53 48 44 40 31 35 38 30 29 33 35 31 32 34 28 28 27 20 16 11 13 20 31 33 38 44 46 48 51 52 50 53 59 66 70 71
83 78 76 72 73 71 68 65 56 54 53 37 36 32 39 35 28 32 32 26 30 33 25 26 30 29 28 22 15 16 16 20 31 32 31 35 34 36 34 46 54 61 65 67
85 79 80 74 75 78 76 62 59 56 50 42 38 39 41 40 33 35 39 42 34 32 37 33 31 29 30 27 26 21 19 17 21 23 27 30 35 43 53 58 53 46 49 46
90 83 83 79 82 87 69 68 62 59 55 50 45 43 45 46 44 37 43 45 43 41 42 39 36 33 32 30 31 31 29 26 24 25 29 32 34 37 39 40 41 39 37 40
97 94 91 85 86 84 80 72 68 65 61 58 48 48 50 52 50 37 45 47 46 42 42 42 39 39 34 34 33 36 37 36 35 35 31 33 37 40 40 38 40 39 41 41
104 105 98 96 95 92 78 81 76 73 65 63 61 58 57 60 52 42 47 49 47 39 41 41 42 45 41 36 39 38 40 43 43 44 43 42 44 44 45 47 49 50 51 52
99 105 100 104 105 99 92 89 85 83 65 71 68 64 58 62 56 51 44 48 47 45 45 47 50 51 43 44 44 44 46 47 47 47 47 49 51 51 54 54 55 57 58 61
87 96 101 106 111 105 99 97 93 84 77 77 76 72 67 65 58 54 51 46 50 50 48 47 50 47 50 54 56 52 51 51 52 52 53 56 58 59 59 60 62 64 66 67
87 86 90 98 103 106 104 102 99 93 88 82 76 73 67 65 64 64 60 58 56 55 52 49 53 55 58 61 60 53 54 55 57 59 61 65 68 67 63 65 67 69 70 71
78 88 92 95 100 104 101 97 90 90 90 88 83 77 71 67 67 69 65 63 60 57 60 54 58 57 58 60 63 63 61 62 63 66 68 72 74 74 74 72 73 75 76 76
81 86 91 96 98 99 98 92 79 81 83 81 81 80 77 70 72 76 73 68 68 64 63 64 66 68 68 64 63 65 66 68 70 73 73 77 78 78 80 78 77 79 78 79
76 81 85 87 92 84 86 80 75 75 79 79 79 76 74 74 78 80 79 78 74 71 70 71 72 73 73 75 77 73 75 73 77 77 77 79 80 82 83 83 82 82 83 88

GFSCGP_250_spd_057.txt.gz
Wind_Speed
29 33 33 30 26 18 17 21 18 21 19 24 30 35 29 19 22 28 23 28 24 19 17 34 53 60 58 60 54 53 53 61 62 69 75 73 75 78 75 72 72 73 70 64
31 35 28 29 30 21 19 21 19 18 16 22 27 30 34 23 16 20 30 32 25 16 18 17 21 32 39 44 54 59 51 44 40 50 74 74 76 75 75 77 75 77 76 69
31 38 29 35 28 23 21 20 17 16 23 19 27 27 32 26 20 16 17 29 28 23 21 19 19 24 25 27 34 39 36 33 35 34 42 61 72 76 82 79 70 64 64 60
30 36 34 34 31 29 24 22 20 12 22 22 23 28 31 34 25 19 15 16 20 19 22 25 18 25 23 22 22 26 24 27 26 28 32 41 50 70 65 65 65 65 51 52
39 35 38 36 33 30 28 25 23 22 21 23 19 27 32 35 27 22 19 12 15 20 20 26 24 23 24 23 20 20 21 21 28 27 31 35 36 41 50 56 52 47 47 44
42 39 36 45 41 32 35 37 30 25 22 26 19 23 27 32 30 27 21 19 12 13 19 25 30 26 24 26 24 24 21 21 19 17 18 23 29 30 30 33 36 41 45 48
52 43 44 41 41 37 35 40 32 27 22 24 20 19 23 27 31 29 25 23 20 10 11 24 27 30 29 23 27 27 25 27 22 19 22 23 26 29 33 36 37 40 43 45
53 50 49 48 43 41 38 31 35 35 22 26 27 19 21 23 27 26 26 25 23 18 11 12 19 28 33 33 28 27 33 33 30 27 28 31 34 34 36 36 35 39 41 43
57 56 57 51 49 43 38 37 38 34 34 29 27 21 24 19 23 26 31 28 28 26 13 9 12 19 26 34 38 36 32 33 35 35 32 30 34 37 38 35 36 35 36 36
59 59 62 58 52 45 39 41 40 39 36 35 28 21 24 20 21 21 28 34 34 30 27 21 13 12 17 21 28 37 45 42 39 38 39 37 36 40 39 41 42 39 36 41
58 57 62 59 50 50 47 41 43 45 36 39 29 24 27 21 20 19 20 30 35 33 31 28 22 18 15 17 18 24 32 37 46 47 48 49 44 46 46 46 46 41 32 36
59 58 61 60 58 55 51 44 46 45 42 40 34 30 31 27 22 25 23 26 30 35 35 27 26 20 16 13 15 19 22 29 38 42 45 45 44 47 46 47 46 37 33 40
66 66 64 64 62 59 57 49 49 49 45 37 40 35 34 31 30 29 29 27 28 30 35 32 28 24 25 20 16 13 18 22 27 32 35 37 41 44 40 38 40 45 48 45
72 70 68 66 68 66 62 56 54 51 46 45 38 38 45 41 36 32 29 28 27 30 28 36 33 26 29 26 23 20 19 19 22 26 32 37 40 40 43 40 44 48 54 57
79 70 70 67 73 71 67 62 58 53 50 48 44 43 46 41 37 32 29 28 29 30 30 27 27 32 34 27 26 24 21 19 17 20 28 32 37 43 45 52 53 54 57 57
68 67 64 67 68 69 73 65 61 57 56 54 52 47 50 47 42 36 27 32 29 31 29 32 26 36 35 33 27 19 21 21 23 23 23 23 27 34 39 42 46 48 51 54
72 71 71 66 73 70 62 60 68 62 57 55 50 51 57 53 48 35 31 34 31 33 37 38 41 38 41 36 35 31 22 19 20 21 23 25 29 33 35 37 41 43 45 49
75 78 79 76 78 76 60 67 70 68 64 62 57 55 60 58 52 42 38 35 37 35 41 42 42 44 40 40 36 33 35 29 28 26 27 29 29 30 31 35 38 40 42 45
90 91 85 78 79 75 70 66 75 76 69 68 63 60 58 61 55 52 48 45 41 38 43 45 47 42 38 40 39 39 41 38 37 32 32 35 38 38 37 39 42 43 45 49
103 96 97 95 88 81 69 73 75 79 70 71 70 70 66 60 59 59 58 50 48 46 41 45 45 41 42 44 46 44 44 44 43 40 42 44 45 45 47 47 48 49 52 57
93 100 104 98 96 93 87 86 84 84 65 76 78 78 73 68 62 66 63 55 54 53 52 45 48 45 45 46 48 48 50 47 47 50 54 49 49 51 52 54 55 56 60 63
87 89 92 98 102 96 92 96 96 93 85 84 84 82 76 73 71 69 65 66 58 59 59 57 53 54 55 54 51 53 53 53 54 56 60 59 57 56 56 59 62 62 66 68
84 85 85 87 87 86 88 93 95 99 98 96 93 91 84 80 76 76 71 66 65 58 61 59 59 61 60 55 53 54 60 60 61 60 62 62 61 66 65 67 66 68 70 73
78 79 80 82 76 79 88 87 89 99 104 103 98 97 94 88 83 78 77 74 71 64 64 66 65 66 68 68 64 63 66 72 68 68 68 70 69 71 69 69 70 73 76 77
76 75 73 72 76 81 83 85 92 98 98 102 107 103 97 94 91 90 89 87 81 76 71 69 71 72 73 74 73 71 70 74 74 73 74 72 75 74 74 72 73 78 80 82
67 69 70 71 73 77 83 88 92 93 93 92 90 89 87 84 81 80 78 77 75 75 73 72 73 77 80 78 78 78 78 77 76 77 75 78 78 78 78 79 81 81 84 86

GFSCGP_250_spd_060.txt.gz
Wind_Speed
37 32 32 28 27 31 29 22 19 13 11 16 19 21 26 33 30 20 15 18 21 28 18 22 50 64 59 56 56 56 52 50 51 59 55 59 54 56 61 63 60 66 65 67
36 38 32 27 27 34 34 25 21 15 11 16 20 21 25 33 31 29 20 17 19 24 22 20 25 55 66 62 63 62 57 58 57 58 59 61 58 57 64 62 68 72 73 74
41 43 31 29 30 33 34 27 20 17 12 13 17 23 24 27 30 30 25 21 17 16 19 20 19 25 41 60 74 67 69 63 59 57 57 63 60 73 69 69 72 69 68 68
43 44 32 30 36 34 36 29 24 21 14 12 16 19 23 24 28 30 30 26 19 15 15 21 23 22 24 27 33 51 68 70 69 68 64 63 56 55 60 70 70 67 67 70
47 46 36 24 37 33 34 31 30 24 17 19 19 18 23 24 24 25 29 28 24 17 14 15 21 24 20 22 23 22 26 35 44 49 52 57 51 42 42 42 52 66 67 55
45 46 36 34 35 35 40 25 30 25 24 26 19 21 18 24 22 22 26 29 27 23 18 14 16 20 26 21 20 21 20 23 25 27 30 30 31 31 31 34 37 40 43 46
52 50 46 41 37 36 35 39 31 26 30 29 20 23 20 24 20 20 20 24 31 29 22 18 15 15 22 27 25 27 24 22 21 24 27 28 25 27 30 32 35 35 37 39
50 48 48 45 44 43 34 32 30 31 30 28 19 22 20 24 20 21 20 21 26 32 30 23 19 16 13 22 29 25 27 29 27 27 25 25 26 27 30 31 33 38 39 42
55 53 52 50 50 45 40 36 36 28 30 28 25 25 30 24 25 21 20 21 20 26 29 32 24 18 16 14 24 35 32 29 28 32 33 35 34 32 34 38 40 40 42 42
58 55 55 55 52 48 46 44 38 33 29 32 30 31 31 24 25 21 21 25 25 22 25 27 28 25 18 14 16 20 32 40 38 36 34 34 36 37 39 37 38 40 42 43
56 58 57 58 52 53 51 48 45 44 36 32 35 35 35 28 27 22 23 23 28 29 24 26 27 30 25 18 15 15 19 23 31 46 41 39 40 40 41 43 46 47 49 48
61 57 55 58 55 54 52 51 49 40 40 34 34 41 42 31 32 26 25 26 29 28 28 24 26 24 25 21 21 18 16 20 23 25 34 42 46 49 50 52 49 48 47 47
64 59 61 64 58 51 47 49 50 48 46 41 40 39 45 38 38 30 27 29 29 29 27 27 24 26 25 24 23 22 18 16 17 24 27 31 34 37 39 38 37 38 41 40
70 63 66 67 67 64 57 53 52 52 47 45 39 42 49 42 39 39 35 31 30 33 28 26 26 26 26 29 30 29 24 21 18 16 20 27 29 31 34 36 37 36 34 37
68 66 69 67 67 63 54 57 59 51 53 50 49 48 50 49 44 42 40 35 31 33 36 31 26 26 27 30 29 35 34 28 25 22 19 19 19 20 25 29 30 33 36 41
73 72 65 69 64 60 56 61 60 57 56 51 53 51 48 49 48 47 44 41 36 36 39 38 33 32 28 32 29 28 35 32 30 28 25 24 25 24 25 27 29 32 30 34
77 78 78 75 72 70 71 71 70 63 62 59 57 57 56 53 55 53 50 47 45 38 43 43 37 36 36 36 28 27 30 32 33 33 33 31 26 26 29 30 31 32 30 32
82 80 80 79 77 75 78 76 73 64 64 64 62 61 60 58 60 58 52 50 54 48 47 47 43 43 42 42 39 37 37 35 35 31 34 36 35 30 30 33 37 38 40 42
71 72 68 71 77 71 68 73 64 63 61 65 62 60 63 65 64 55 55 51 56 59 52 49 45 46 46 45 43 44 42 37 41 43 40 39 41 40 40 36 37 40 45 49
75 72 69 66 67 60 62 66 66 68 59 68 64 64 63 66 62 62 63 60 58 61 59 56 52 47 47 50 52 47 46 48 48 48 49 48 49 50 51 51 48 50 50 50
90 89 89 84 89 81 74 72 74 75 73 77 73 70 68 66 67 66 69 66 63 60 63 64 61 57 56 54 54 56 56 55 54 53 55 54 56 53 51 55 58 59 58 59
101 98 95 91 90 85 88 89 90 88 81 77 76 73 71 68 66 69 73 70 69 67 65 62 64 67 62 60 61 65 64 62 60 60 61 56 57 57 59 63 65 62 64 67
87 89 91 90 90 90 93 95 97 99 98 94 88 87 79 77 75 71 69 70 73 76 76 73 69 69 66 67 67 69 72 70 67 68 67 62 63 65 68 70 73 73 74 75
79 81 81 80 82 82 84 87 95 99 104 106 97 94 97 94 91 85 81 78 76 81 80 76 71 75 71 72 73 70 72 72 73 74 77 78 78 78 79 79 75 75 78 80
75 77 79 77 78 78 80 78 80 84 87 94 98 103 104 98 97 93 93 91 89 88 86 84 83 81 77 78 74 77 77 76 78 79 79 76 76 76 76 79 82 83 83 86
72 75 75 74 74 76 80 77 78 81 80 82 85 89 96 103 101 102 100 99 96 94 93 92 90 87 86 86 86 82 84 81 79 84 86 83 85 85 87 89 90 90 89 90

GFSCGP_250_spd_063.txt.gz
Wind_Speed
45 40 42 39 28 29 22 27 27 22 24 14 9 13 16 19 23 24 23 15 8 13 24 26 24 48 57 51 48 53 47 42 42 47 47 38 37 38 51 51 44 46 44 45
43 44 47 34 28 28 24 25 26 21 24 18 8 12 17 18 23 22 24 25 18 10 19 28 29 36 54 58 56 52 51 56 50 47 46 46 46 48 43 50 53 54 57 61
47 54 45 35 30 29 25 25 26 26 23 20 13 13 14 17 20 21 23 28 25 17 10 24 32 39 53 62 65 59 57 56 59 56 53 51 49 48 51 53 50 53 54 59
47 52 47 38 34 33 31 21 26 24 23 24 16 16 17 16 20 21 24 24 29 25 19 10 16 25 28 38 40 62 56 58 61 58 60 61 62 55 53 55 57 61 58 57
47 55 52 44 44 36 37 24 30 27 27 26 19 19 18 14 22 19 20 20 24 29 25 18 11 11 22 25 27 34 41 57 59 61 62 62 57 64 62 63 59 61 65 59
51 51 45 46 41 37 37 31 32 26 27 30 20 22 18 19 21 17 20 21 21 24 27 23 15 11 11 20 25 24 26 29 28 31 40 49 54 60 65 60 62 59 54 46
50 48 49 48 42 41 39 33 31 31 22 26 20 25 24 21 19 18 19 20 24 19 22 26 23 14 9 14 22 21 24 23 20 21 25 29 34 38 36 39 36 35 34 38
51 50 48 49 52 49 44 33 21 30 30 30 27 31 28 22 20 20 15 16 22 24 21 20 23 24 16 8 17 23 25 27 26 25 24 24 28 32 34 35 34 35 36 37
57 52 50 49 53 50 45 32 35 26 23 23 24 36 34 27 23 21 18 12 18 20 24 25 25 20 20 16 8 14 27 26 27 28 28 27 29 33 32 34 34 36 38 40
58 54 53 54 52 46 45 42 34 31 30 27 22 28 41 31 28 28 23 18 16 18 23 24 24 23 17 17 16 9 13 26 35 34 32 31 33 36 36 39 38 38 37 39
60 59 57 55 48 47 47 44 41 40 37 33 31 31 37 36 34 34 30 26 21 21 22 24 21 22 21 17 13 17 13 10 17 25 37 42 41 38 39 38 36 38 37 36
62 64 56 51 50 50 46 41 41 42 42 42 39 34 41 36 38 38 37 34 31 22 22 21 22 20 21 22 19 18 18 18 13 12 20 26 31 43 47 43 42 42 44 44
65 58 59 55 54 51 52 51 50 51 49 47 45 39 44 40 36 40 40 40 37 29 30 26 24 24 24 21 21 21 21 20 20 18 15 16 21 27 33 39 41 43 44 42
68 67 62 59 55 52 56 58 53 46 44 45 43 45 47 47 42 42 42 41 40 36 32 32 27 28 28 25 23 22 23 25 23 21 19 18 18 19 22 26 29 31 33 36
66 68 67 67 62 53 51 52 54 48 50 47 46 44 48 49 49 46 42 41 43 43 40 36 34 29 32 31 29 25 25 26 24 24 24 22 21 22 21 19 19 19 20 24
71 68 66 62 65 61 53 53 56 57 57 57 54 50 51 54 51 52 47 45 46 48 48 44 40 39 34 35 34 32 30 28 26 26 28 27 27 27 27 26 24 25 26 28
75 73 69 71 69 66 63 63 61 60 63 63 59 52 59 55 53 56 59 57 51 46 50 50 49 47 44 37 35 36 37 35 33 33 34 32 32 33 34 34 33 31 29 29
77 81 78 74 73 70 70 69 69 68 68 63 55 58 62 58 54 56 56 57 56 54 51 51 51 50 50 48 46 40 38 38 42 39 41 41 37 36 40 43 42 41 41 43
76 77 76 79 74 72 71 71 65 65 67 67 67 67 67 64 58 60 62 62 62 60 56 52 53 53 54 57 54 52 50 45 41 44 44 44 45 45 46 46 47 47 48 50
77 75 74 72 77 75 75 76 78 80 79 79 75 73 73 73 70 68 68 66 66 65 62 60 59 57 57 59 60 55 54 55 51 45 49 50 52 50 54 55 51 53 55 58
82 84 81 82 81 76 77 81 85 87 79 80 80 78 77 77 75 72 67 66 65 67 67 62 65 59 60 60 59 60 60 60 61 61 55 57 58 57 57 58 61 61 58 62
77 82 86 85 82 78 81 84 85 83 76 74 73 76 76 71 68 66 66 67 66 67 67 66 67 65 68 68 64 64 63 65 65 67 66 64 58 65 69 69 68 67 65 64
79 79 77 77 78 73 74 77 76 77 75 70 68 71 69 67 67 69 70 70 70 71 72 71 69 70 70 69 67 68 69 68 67 68 71 70 68 68 72 73 72 73 73 77
85 84 85 86 87 87 83 85 86 86 84 84 83 83 83 84 82 81 78 75 76 73 73 74 73 71 71 70 70 71 75 75 76 73 73 75 79 79 77 77 77 76 79 77
78 81 83 87 91 95 94 92 94 97 98 98 99 97 92 94 95 93 90 88 85 82 81 78 80 82 81 76 76 76 77 79 81 81 81 84 87 85 84 82 82 86 86 88
73 76 78 82 83 85 86 87 88 89 93 99 100 98 97 101 101 103 100 97 95 95 96 96 93 91 91 89 88 89 85 85 86 86 90 86 91 92 92 91 90 90 92 94

GFSCGP_250_spd_066.txt.gz
Wind_Speed
45 44 42 50 41 39 32 34 34 24 27 23 21 14 12 14 17 18 20 20 14 9 21 32 38 46 49 44 47 49 42 43 34 38 42 47 48 42 38 48 50 48 43 43
46 39 51 45 42 42 37 35 34 24 27 26 24 22 12 11 16 17 21 22 18 10 10 20 33 33 46 52 52 47 51 44 52 39 39 45 44 38 35 42 39 49 48 41
48 52 54 48 44 43 39 37 30 27 26 29 26 23 13 12 15 16 18 19 21 18 9 8 20 35 34 52 55 57 53 49 50 48 44 45 41 46 41 42 40 45 51 56
50 54 52 49 45 44 41 38 28 27 27 29 29 24 20 13 13 15 16 18 21 22 18 8 9 20 33 35 48 56 59 60 56 51 46 49 53 47 49 48 45 42 43 44
48 54 53 52 54 49 48 34 30 26 28 32 29 26 20 16 16 16 15 18 18 18 21 17 8 7 21 31 33 39 56 57 63 64 62 56 58 55 53 49 55 51 55 51
50 54 53 55 55 50 46 35 32 31 28 31 30 27 22 23 18 17 14 17 16 19 16 20 19 13 7 20 29 28 31 37 47 60 55 62 63 59 59 59 57 54 55 60
58 55 55 57 55 51 46 41 40 36 33 37 26 29 29 28 24 19 17 14 16 15 16 21 23 20 13 6 19 27 26 24 27 32 34 40 45 45 55 52 54 50 52 58
56 54 57 56 55 54 54 52 44 42 37 37 23 27 27 31 28 24 23 16 16 20 17 17 22 22 16 12 4 16 25 23 25 25 23 24 25 28 31 33 36 36 35 33
58 54 59 57 58 57 56 48 49 43 38 35 37 38 35 31 32 33 27 23 17 18 18 19 22 20 19 14 13 8 11 24 28 28 28 26 24 24 28 32 34 34 34 34
61 57 58 59 60 58 53 52 46 40 34 34 34 38 38 31 31 36 33 27 23 19 18 18 22 19 16 15 12 11 9 8 21 25 27 31 32 32 32 32 36 35 38 39
63 57 60 57 56 53 51 50 48 47 44 42 39 41 40 31 30 29 33 33 31 27 21 21 22 20 18 15 14 14 9 9 8 12 28 37 37 35 35 36 38 39 38 39
63 62 61 59 56 53 52 51 50 50 46 42 39 40 42 40 39 37 32 34 33 32 32 29 25 20 19 19 16 13 15 11 8 7 8 11 19 30 40 46 43 40 45 43
67 63 63 61 58 55 56 52 51 51 53 48 44 44 47 44 44 42 38 36 37 36 33 35 34 28 25 20 22 20 16 17 16 14 12 11 10 12 16 21 27 34 46 53
68 64 63 62 61 58 56 58 57 56 53 51 49 48 48 46 46 45 44 41 39 36 37 35 35 33 32 26 23 23 24 20 20 19 18 15 13 15 14 14 16 19 24 30
69 69 67 61 59 62 63 62 62 60 59 57 56 54 54 54 53 51 49 46 43 42 40 41 39 37 38 35 30 25 27 29 26 25 23 21 21 18 18 18 18 18 19 19
72 72 65 62 63 62 65 66 69 65 59 56 58 57 55 52 52 53 52 50 46 45 44 44 44 44 42 45 42 34 31 32 33 33 31 30 29 29 27 26 27 27 23 25
77 70 68 67 67 64 64 67 67 69 65 60 61 58 58 56 56 56 50 50 49 48 48 46 46 49 50 49 47 46 40 34 37 39 38 36 36 38 35 34 33 36 36 36
72 75 72 73 72 71 69 70 70 68 66 64 61 59 57 57 60 60 56 52 57 55 50 49 50 49 50 53 51 47 45 44 45 45 44 42 41 39 43 43 42 40 43 44
80 80 71 69 68 74 76 74 72 72 73 72 66 62 59 64 67 64 57 55 58 57 58 58 56 52 54 54 56 55 52 51 51 50 51 49 45 44 43 46 49 48 51 52
84 88 82 77 74 72 75 74 74 76 75 70 69 69 69 70 69 66 62 58 63 62 59 59 58 56 56 59 62 61 58 57 56 57 56 54 55 52 50 52 54 57 59 59
84 87 85 84 83 79 79 79 78 79 77 76 77 77 77 78 79 78 68 68 69 71 69 66 65 63 65 65 66 67 64 62 58 59 60 57 58 58 58 61 63 64 67 65
87 86 90 90 86 84 84 83 84 85 85 84 77 76 76 77 74 73 74 74 78 78 79 77 76 74 75 71 70 69 65 66 66 66 64 65 65 65 63 64 67 68 67 72
88 87 86 85 86 83 86 88 85 84 84 85 88 87 86 88 87 86 84 84 85 82 84 84 82 80 78 72 72 73 70 68 68 68 68 69 70 68 68 71 74 74 73 73
85 90 90 87 83 82 80 83 85 87 84 84 83 85 86 88 90 92 92 91 93 92 87 83 79 80 77 73 72 74 72 72 74 73 73 73 72 71 71 72 74 75 79 81
85 87 84 82 87 88 90 89 90 89 87 89 90 91 93 94 93 89 84 85 84 79 73 72 76 75 77 79 79 79 79 78 77 78 79 78 78 77 77 79 81 83 85 86
78 80 81 80 82 84 82 84 87 89 91 92 94 95 96 91 87 85 85 84 84 84 83 82 81 83 85 87 88 87 88 86 84 83 83 84 86 87 87 89 91 92 94 94

GFSCGP_250_spd_069.txt.gz
Wind_Speed
46 46 43 44 45 48 48 37 40 44 40 35 30 26 23 16 14 15 16 20 20 18 13 25 31 43 42 47 45 44 36 35 36 36 45 48 44 43 45 43 44 44 40 36
50 40 48 46 45 49 38 39 43 45 39 34 31 32 23 22 16 13 15 15 21 19 21 12 26 38 48 51 50 45 50 35 33 42 39 43 49 52 46 44 44 49 50 48
47 47 50 44 45 43 40 43 47 44 36 35 33 36 24 25 19 14 14 14 17 21 21 16 14 30 46 51 58 54 50 51 38 39 48 48 47 46 53 51 47 48 50 50
50 51 49 48 49 44 41 46 46 44 36 35 34 37 27 25 21 17 14 15 14 17 18 20 15 10 38 46 54 62 55 53 57 48 47 50 43 51 47 43 43 42 41 43
51 53 52 51 51 48 48 49 45 46 36 35 39 35 30 28 26 19 16 14 14 13 14 15 19 17 11 25 45 50 63 58 55 55 58 52 58 49 46 47 47 42 45 45
53 54 50 52 55 51 53 46 47 44 37 34 40 35 34 31 28 25 18 16 16 11 11 15 17 18 16 12 17 38 46 56 59 63 63 60 55 60 53 55 53 57 51 49
57 54 50 53 56 52 51 46 47 44 38 40 38 32 34 29 30 30 26 20 19 16 16 20 18 21 17 15 12 14 27 35 46 53 61 62 68 63 63 65 63 60 53 54
55 53 50 53 56 55 52 51 51 50 44 48 37 35 33 30 34 34 29 25 23 21 17 19 21 20 16 15 15 10 10 20 30 31 35 41 52 60 53 59 57 58 57 58
57 56 55 56 58 57 55 49 53 52 47 46 37 42 35 29 34 35 31 29 27 24 20 18 19 22 17 14 16 13 10 9 16 24 26 28 27 30 37 38 35 37 34 36
53 60 51 56 58 55 56 55 52 50 51 48 44 46 43 39 35 34 34 30 32 29 24 22 18 22 22 14 12 14 11 9 7 12 22 27 29 28 28 28 30 30 29 29
57 59 64 62 56 57 57 56 51 55 55 52 50 49 47 46 43 42 38 36 35 29 30 28 21 21 22 23 16 13 10 10 8 8 9 15 26 29 28 30 33 35 36 39
67 66 62 57 55 58 59 58 57 55 59 56 54 52 49 46 41 40 39 36 31 32 26 28 28 27 29 23 25 19 17 14 11 10 9 11 12 16 23 32 39 41 39 38
62 63 63 61 56 55 59 58 57 55 56 57 52 51 50 49 48 46 44 41 37 32 32 34 29 28 27 29 28 25 22 18 17 14 14 13 13 14 15 15 20 27 32 37
63 64 66 59 56 55 56 59 56 57 56 57 55 56 54 53 49 47 48 46 41 38 35 35 35 35 37 31 27 28 27 22 23 23 21 18 20 19 14 15 16 16 17 20
66 64 63 64 60 55 55 57 56 57 57 58 58 58 58 55 52 48 46 45 46 46 43 41 42 39 36 34 34 31 32 33 32 30 30 30 25 24 25 23 21 21 20 19
80 72 67 64 61 63 63 59 56 59 59 59 62 59 59 54 52 51 48 47 47 46 47 47 45 42 41 40 39 37 38 39 34 37 36 31 33 33 29 30 34 31 29 28
80 81 74 69 63 67 63 66 64 61 59 63 66 67 63 63 59 55 55 55 56 54 50 50 47 43 45 45 44 45 45 44 41 39 40 42 39 38 37 34 36 39 39 37
79 76 76 73 71 66 62 64 64 64 66 66 66 67 69 66 61 58 57 57 58 58 54 54 51 45 46 50 50 49 44 43 46 46 45 40 42 42 45 43 43 43 43 43
83 75 72 75 77 75 71 64 68 66 66 68 69 70 70 71 70 65 60 59 59 61 59 58 56 57 55 53 55 57 55 54 48 50 52 51 49 48 49 49 48 46 47 51
87 81 75 74 76 77 78 75 72 71 71 70 68 70 74 73 75 71 68 69 62 60 63 62 60 54 54 57 60 62 62 61 58 52 52 57 58 57 57 56 54 54 54 52
84 80 77 77 76 78 77 80 80 76 76 72 71 70 72 74 75 74 71 68 69 65 63 63 62 60 59 61 60 62 63 65 65 62 62 61 63 64 65 66 66 65 63 65
86 83 83 81 78 77 77 78 83 82 81 77 79 78 78 77 76 76 79 78 76 76 75 75 71 69 66 70 72 69 68 70 70 72 70 68 70 71 71 65 64 65 65 64
85 87 86 87 84 81 78 79 85 82 77 77 76 76 79 82 81 81 81 81 79 78 80 81 83 82 78 79 82 82 82 82 81 81 80 82 80 79 77 74 71 70 69 70
90 88 88 87 89 87 83 84 86 88 87 87 85 83 82 85 85 86 84 82 82 83 84 85 84 84 81 83 86 88 88 87 87 87 87 84 81 79 80 80 78 76 76 77
92 89 89 92 88 87 92 91 91 93 96 97 94 94 93 94 93 94 92 91 93 94 95 94 93 93 93 93 92 93 96 96 96 95 91 84 82 81 81 81 81 80 79 79
86 89 91 92 95 95 91 94 97 95 94 97 98 99 100 100 96 98 98 95 91 92 95 95 96 98 100 100 102 104 106 104 99 91 86 82 82 84 84 85 85 85 86 88

GFSCGP_250_spd_072.txt.gz
Wind_Speed
57 52 45 46 44 45 46 46 43 39 38 36 39 37 33 31 27 20 14 16 12 17 19 18 15 19 36 31 35 46 41 39 38 26 41 46 44 42 49 41 43 38 39 37
53 38 40 47 43 46 47 45 41 37 34 37 42 37 36 30 28 21 16 17 11 15 18 18 12 14 28 40 42 49 42 44 42 33 29 48 49 49 47 42 48 45 39 41
47 40 48 50 46 47 46 41 38 35 36 39 40 38 38 29 32 26 19 18 16 11 14 17 17 8 15 37 40 54 49 44 51 40 36 40 45 48 52 51 48 46 45 42
40 43 45 50 47 47 48 36 41 37 39 37 42 38 37 35 33 31 22 19 18 12 12 13 19 17 10 16 49 49 56 56 43 50 42 42 44 50 49 48 47 44 39 44
39 43 47 56 49 49 37 44 45 41 39 40 41 37 37 34 34 30 25 21 20 16 8 9 15 19 16 10 18 55 57 57 56 45 42 46 44 48 52 53 55 54 51 45
45 47 50 51 53 47 44 49 44 40 38 39 45 40 36 37 32 29 29 25 21 18 14 12 14 18 20 14 8 14 50 58 61 57 59 52 45 49 56 55 56 59 53 53
47 50 51 53 54 44 42 49 46 38 37 38 51 41 38 34 30 34 31 31 24 20 18 17 15 17 18 16 15 10 10 41 55 63 62 61 57 56 55 55 57 57 56 58
55 53 55 50 54 48 46 50 45 39 40 44 52 38 39 32 31 29 36 34 30 26 23 20 17 16 19 14 15 14 12 6 26 44 49 66 66 64 63 61 61 58 56 62
59 57 56 59 58 52 49 48 45 47 46 48 49 44 38 34 32 35 36 33 32 29 28 22 21 18 17 18 13 13 15 12 9 12 28 36 40 50 57 62 63 68 65 65
65 59 55 61 62 49 49 50 54 52 47 44 50 46 42 38 37 36 34 30 32 31 29 28 26 20 21 18 16 12 11 11 10 9 9 16 27 30 31 33 33 41 48 51
70 66 62 58 63 60 52 52 53 51 49 45 50 52 48 44 39 36 35 29 36 31 30 24 25 25 27 18 20 25 18 12 7 9 10 8 9 17 22 23 24 28 31 31
62 59 55 60 59 60 55 52 52 53 49 48 48 53 54 52 45 41 39 41 40 36 36 35 35 24 29 32 25 24 19 20 17 15 9 9 8 10 12 16 22 28 34 36
64 54 55 58 57 58 58 56 56 51 55 53 47 46 57 55 51 49 46 41 43 43 39 34 30 33 27 23 23 21 21 25 21 19 19 15 10 9 10 11 16 17 18 21
68 57 59 57 64 57 56 60 52 56 55 55 50 53 53 59 55 53 49 45 43 42 41 40 36 33 34 34 32 31 33 26 24 24 24 24 23 22 21 17 15 14 14 15
75 67 56 63 62 63 57 58 60 59 53 54 55 55 51 57 60 55 52 47 49 48 45 44 40 38 37 37 37 35 32 34 30 29 30 29 27 27 26 26 24 22 22 22
77 68 63 63 60 68 70 66 63 57 57 53 56 58 62 56 53 54 53 52 49 49 48 44 45 48 46 42 42 41 38 38 36 38 40 39 36 36 36 33 29 30 33 34
81 75 69 69 71 67 62 60 57 55 53 52 57 56 59 60 59 54 56 55 53 50 47 45 46 47 47 47 45 45 42 43 43 43 42 44 44 46 41 39 41 39 39 40
82 79 67 72 69 68 67 62 58 55 49 53 55 59 59 60 61 58 57 54 52 51 49 49 50 52 50 49 48 48 49 49 47 48 49 47 47 45 47 46 43 42 42 44
93 86 78 64 68 61 65 68 64 58 55 62 64 62 60 59 61 55 58 59 60 60 58 57 56 57 56 54 54 51 53 53 54 52 53 53 53 54 55 50 53 54 52 50
96 89 78 80 70 73 71 56 58 59 60 70 75 63 61 60 57 53 60 62 63 62 59 58 59 60 60 61 59 57 57 57 61 63 62 61 61 59 59 59 60 58 54 55
95 91 83 86 76 70 72 70 68 65 72 69 67 62 65 64 62 60 60 62 63 66 66 71 67 68 69 65 62 60 63 65 65 64 62 61 61 61 62 64 63 65 66 65
96 95 86 83 88 76 76 77 70 74 74 70 65 68 63 66 69 67 68 64 67 68 71 74 71 72 70 65 64 64 65 66 67 68 66 69 71 69 69 71 69 70 70 70
95 96 98 88 85 82 87 84 84 80 81 76 74 73 72 71 71 72 71 71 72 72 75 76 77 77 77 78 77 78 79 80 81 80 76 74 77 79 78 78 76 79 78 78
84 90 85 88 91 87 84 84 78 78 83 84 80 79 82 81 83 83 78 82 81 81 82 83 83 84 82 83 85 84 85 84 84 81 82 83 84 87 88 87 88 90 90 91
83 90 87 85 83 91 88 88 82 80 79 81 83 85 85 88 89 90 90 89 90 85 84 82 84 85 86 86 87 86 84 83 85 89 90 91 91 92 93 93 95 97 99 101
83 82 87 85 89 91 89 90 85 84 84 83 83 84 88 89 90 91 93 93 95 95 95 93 94 92 92 93 93 95 98 101 100 102 102 103 104 106 106 107 107 103 98 94

GFSCGP_250_spd_075.txt.gz
Wind_Speed
101 102 102 97 85 67 62 52 46 45 52 49 47 46 36 30 27 26 26 21 13 10 14 16 20 22 14 32 27 27 25 35 37 41 33 43 59 57 56 59 54 41 40 31
102 105 81 62 65 61 50 45 39 42 45 43 42 40 32 29 28 30 27 23 14 11 12 11 16 19 16 24 34 26 28 40 41 37 28 37 48 47 56 60 61 51 39 35
97 87 74 59 58 47 38 37 45 48 49 44 43 34 33 31 30 28 29 25 15 14 11 11 14 13 13 14 35 34 33 46 45 35 31 33 41 42 45 44 43 40 40 41
85 71 57 56 46 42 35 44 50 55 51 39 41 36 32 30 31 29 29 27 17 16 15 9 11 11 11 9 19 39 40 51 48 43 39 33 39 37 39 46 47 50 53 39
66 53 53 52 41 41 42 45 51 49 41 44 35 31 30 33 33 30 28 32 25 22 17 11 10 12 12 15 12 16 48 48 55 43 48 41 35 42 50 50 48 49 55 60
54 51 49 43 40 42 50 49 51 48 47 39 30 29 32 33 33 30 29 31 29 23 19 16 11 11 13 14 15 11 21 50 55 52 47 45 42 46 44 45 55 53 57 57
50 52 42 35 43 46 55 54 53 50 45 29 29 31 36 35 34 30 31 33 31 26 21 17 14 11 14 13 13 12 7 20 57 62 56 54 45 45 51 47 47 53 53 54
48 47 38 36 46 52 57 55 56 46 42 35 36 31 40 36 36 29 31 36 31 30 28 24 18 15 15 17 11 13 11 7 12 49 65 65 65 54 53 52 50 51 53 57
48 41 36 44 52 51 52 48 49 46 41 37 31 37 36 35 36 31 34 34 35 32 32 30 25 20 16 16 14 8 11 14 9 7 21 59 62 61 61 61 57 56 54 58
45 40 41 50 53 57 55 51 47 47 38 37 36 37 36 38 39 35 32 33 30 31 34 34 29 24 23 21 17 17 10 12 14 10 6 9 23 45 60 66 68 66 64 62
43 42 47 56 56 62 56 52 47 46 41 41 34 35 36 37 39 37 34 33 36 35 34 32 30 25 28 26 23 21 17 19 8 12 11 8 9 11 21 32 42 51 57 58
42 48 55 59 60 68 59 52 47 47 43 39 34 35 39 39 42 41 39 38 35 33 31 31 30 27 25 22 22 25 27 22 13 14 16 14 11 8 10 13 16 21 27 34
43 61 59 59 64 68 62 56 49 47 42 39 40 35 25 41 43 46 39 40 39 36 31 31 32 33 32 31 31 21 20 21 20 19 20 18 20 15 15 13 12 12 16 19
47 71 69 65 70 68 65 57 52 51 46 42 41 44 43 42 40 41 44 42 40 39 35 34 36 39 36 32 30 31 32 29 28 28 32 25 22 25 25 23 22 22 20 19
52 77 70 69 70 74 66 62 61 51 46 46 44 48 47 48 48 47 44 46 46 45 42 41 38 37 34 35 37 36 34 32 31 31 32 32 30 27 29 29 29 30 31 30
61 81 74 74 70 72 73 67 64 56 54 50 48 50 50 51 46 50 46 44 49 52 47 45 42 39 39 41 40 42 40 39 38 39 39 37 38 39 40 40 40 39 38 39
62 78 79 77 75 72 68 73 63 61 58 53 55 51 51 57 59 55 42 43 46 46 47 48 49 45 43 45 46 46 46 44 42 40 37 38 41 42 42 43 44 45 46 46
66 81 79 76 77 66 67 73 64 65 62 58 59 54 55 57 56 52 52 51 51 50 45 47 50 51 51 50 51 50 50 51 51 50 46 42 43 45 46 47 48 48 48 49
78 85 81 76 67 62 69 71 67 62 58 58 65 62 62 59 56 54 54 54 49 46 49 50 52 53 54 57 57 55 55 54 53 51 49 47 48 48 50 54 55 55 56 55
80 83 84 80 74 67 68 71 72 68 64 59 62 65 67 64 61 57 55 53 51 46 50 53 56 55 54 56 58 58 54 54 54 54 54 53 54 54 55 58 62 63 60 61
74 90 86 87 78 70 61 67 69 75 73 70 70 74 68 67 61 60 56 51 50 50 48 53 55 57 58 59 59 57 60 61 60 61 63 62 59 60 59 62 65 64 62 66
75 90 91 88 80 73 67 66 67 67 68 71 70 74 66 66 64 63 64 59 58 55 55 56 58 59 60 61 63 65 68 69 71 70 68 64 61 58 57 60 66 72 73 74
74 87 92 90 91 79 71 71 70 69 74 75 74 78 76 67 63 63 66 64 65 62 63 64 66 66 65 64 65 65 67 68 69 70 68 69 72 74 75 75 77 76 74 73
68 81 84 83 87 87 79 74 63 73 74 67 73 69 65 62 64 66 67 66 67 66 67 67 70 70 71 72 71 71 72 73 75 77 80 80 81 82 82 81 82 77 76 78
74 78 82 86 88 84 88 86 78 72 74 78 74 75 74 70 69 72 68 68 71 70 72 74 74 76 77 78 80 82 85 86 88 87 87 85 84 84 84 84 83 84 87 89
70 80 81 81 95 90 100 96 86 84 83 80 78 77 78 81 79 77 78 78 80 82 84 86 85 85 87 90 91 90 91 92 92 91 91 96 95 95 97 99 100 101 101 104

GFSCGP_250_spd_078.txt.gz
Wind_Speed
84 85 89 95 95 93 91 92 85 83 77 71 55 37 44 44 37 37 35 31 27 24 18 18 13 16 23 18 16 29 29 28 24 28 21 30 34 47 56 63 61 59 59 60
85 82 87 90 96 98 92 83 79 70 63 62 45 35 38 37 35 39 34 29 27 24 16 11 9 14 17 19 15 24 30 30 22 29 28 36 41 48 53 55 52 56 52 52
84 84 88 90 96 91 88 83 70 55 57 53 29 40 37 30 38 38 33 27 28 26 18 13 10 11 12 14 17 14 32 29 25 27 31 34 38 50 53 49 54 52 55 54
86 85 85 89 89 88 64 60 51 50 53 37 32 44 35 39 41 31 34 28 29 29 21 19 12 10 7 12 12 10 25 30 29 26 37 36 37 42 54 53 53 49 53 50
87 85 86 88 85 71 56 52 48 44 44 27 38 42 45 44 38 33 32 29 30 33 24 21 16 12 7 9 12 11 11 34 35 32 38 39 33 29 42 48 54 49 53 56
86 84 85 82 67 53 55 47 45 40 33 37 43 48 46 47 41 36 33 31 32 35 28 26 21 14 11 7 10 11 11 8 36 38 45 45 38 33 29 35 40 41 50 57
80 78 73 64 54 47 49 45 40 33 31 46 48 51 50 49 43 39 37 35 35 37 34 28 25 20 14 8 8 12 10 10 12 42 46 50 47 42 40 36 39 43 45 49
70 70 61 51 46 41 39 42 37 36 40 53 51 49 49 47 44 39 40 35 32 35 36 33 29 21 17 13 11 10 9 8 8 8 47 51 56 50 51 46 44 44 50 52
65 65 57 46 44 41 36 40 43 42 48 54 52 48 38 50 37 37 42 38 36 35 39 37 33 25 22 16 11 7 6 7 8 8 7 21 56 58 60 55 52 49 49 53
65 62 52 43 44 40 38 47 45 47 53 54 55 47 45 45 40 42 42 35 35 35 40 40 36 29 26 21 17 14 12 11 11 12 10 8 7 34 61 59 60 60 57 53
64 52 50 43 42 40 44 51 50 53 59 49 55 45 49 45 42 40 43 37 34 37 37 36 35 33 30 26 23 22 16 16 13 10 12 12 12 12 12 24 44 60 55 52
63 54 47 45 41 43 49 56 56 54 60 50 52 48 45 45 39 37 42 40 36 37 36 34 33 32 31 29 23 17 15 15 21 16 12 10 16 19 17 16 16 21 29 37
51 46 48 46 45 49 54 61 57 59 62 53 49 43 37 37 39 38 36 39 37 38 37 34 32 33 31 30 27 24 23 24 21 18 19 15 15 16 19 20 20 19 20 23
47 46 50 45 50 55 62 66 62 63 64 56 49 41 33 34 37 40 37 37 39 37 36 34 33 32 32 32 32 29 28 29 28 28 27 27 22 22 24 23 25 24 25 25
49 51 53 50 55 62 65 69 63 62 65 57 55 49 48 41 35 40 36 40 41 39 38 38 35 32 32 32 33 33 35 35 32 30 30 28 28 28 28 28 29 27 28 29
51 54 53 54 58 65 67 70 63 59 59 56 56 49 41 45 38 44 43 39 43 37 40 43 42 41 39 38 36 37 35 35 38 39 36 35 31 31 33 33 34 35 37 38
51 53 55 57 62 68 69 71 65 56 58 55 56 54 52 52 47 45 52 46 41 40 41 46 46 46 46 45 44 41 41 41 41 42 43 42 41 40 38 36 39 40 42 43
51 55 60 61 65 69 71 69 71 63 61 57 56 56 56 58 51 46 42 44 51 48 45 46 48 48 46 47 47 48 46 46 46 46 46 46 46 47 46 46 45 46 45 46
52 56 61 66 70 70 72 67 68 63 63 60 57 55 56 54 55 56 56 56 51 47 49 49 49 48 45 46 48 51 52 51 52 52 52 52 51 51 51 52 52 52 50 52
52 57 60 70 75 72 71 75 73 69 70 71 66 67 65 61 59 55 53 52 52 51 52 54 55 53 51 51 50 50 52 55 56 56 58 57 56 55 55 54 55 55 55 57
53 58 63 69 79 76 71 72 75 76 69 67 71 67 67 66 63 61 59 60 54 56 57 56 52 49 49 49 51 53 55 56 56 57 59 61 61 59 57 56 57 59 62 62
54 59 65 62 82 77 75 76 77 78 78 75 73 74 70 69 69 68 65 61 58 58 60 58 52 48 49 52 53 52 53 55 56 56 57 58 60 62 62 64 65 68 66 64
57 62 69 71 78 84 78 80 81 79 77 81 79 75 75 78 77 71 70 67 63 64 64 66 57 56 53 54 53 56 56 57 61 63 63 63 65 66 67 68 68 66 67 69
57 60 70 72 67 80 76 75 79 81 76 76 78 77 78 77 71 71 66 66 66 65 64 68 65 63 65 66 66 65 65 65 66 67 68 70 70 70 69 70 72 74 79 82
52 59 69 74 70 77 79 78 77 79 73 77 81 80 81 80 78 77 76 75 74 73 68 68 71 70 69 73 74 74 72 72 72 72 73 73 75 75 77 82 84 85 86 87
53 61 70 76 75 76 82 82 87 83 79 73 79 83 79 80 81 82 79 76 74 73 77 77 76 76 73 75 74 74 75 76 77 79 82 83 83 85 89 91 91 93 94 95

GFSCGP_250_spd_081.txt.gz
Wind_Speed
84 80 80 82 84 85 88 93 91 90 93 88 81 70 71 54 39 33 27 30 36 38 32 28 23 26 18 20 26 23 19 28 22 19 19 18 20 19 29 41 47 51 49 47
83 80 84 85 85 85 87 88 84 90 92 85 77 67 49 44 30 31 27 39 38 37 30 24 22 22 15 19 20 20 16 27 26 21 21 17 20 19 29 39 52 47 51 53
90 86 88 86 86 85 83 76 84 84 80 76 69 46 31 41 26 29 35 40 38 37 30 24 22 16 13 10 15 17 12 23 28 22 20 22 23 26 25 31 52 56 57 61
88 88 89 89 86 88 86 86 85 86 80 67 64 25 32 30 28 37 37 40 39 33 32 26 21 17 13 11 11 15 12 13 27 25 20 26 28 33 33 37 45 50 59 54
87 88 90 89 90 88 85 86 86 85 72 58 46 25 39 26 36 48 46 44 38 33 34 29 25 20 14 14 9 10 12 7 26 28 23 19 30 35 38 36 43 48 50 49
86 83 85 86 88 86 81 82 83 75 55 43 40 30 35 36 50 54 53 48 43 37 37 33 29 25 18 16 10 8 10 13 7 29 31 28 29 33 35 34 41 46 52 48
84 81 81 82 83 84 79 79 72 57 45 38 34 37 40 51 58 56 56 53 45 40 42 39 33 27 22 18 13 10 10 9 11 12 31 31 26 38 37 37 36 40 49 48
84 82 81 81 81 80 79 70 58 48 37 37 29 43 43 60 62 61 55 51 45 40 44 41 35 29 24 22 18 11 8 5 5 6 16 30 27 41 40 35 31 38 44 51
78 78 78 76 75 69 63 57 45 42 36 34 35 55 60 61 62 62 55 45 44 41 42 41 37 33 28 26 20 14 8 4 4 4 2 8 30 38 47 43 41 38 37 36
70 69 68 67 64 60 54 48 42 35 37 37 50 60 60 60 60 56 49 44 46 40 39 41 38 37 32 29 23 18 14 11 9 6 6 4 4 14 35 48 53 50 46 47
67 62 60 57 56 53 48 41 40 33 36 45 58 59 59 58 61 56 49 45 45 46 42 41 40 38 35 33 28 23 20 17 15 14 9 9 6 6 6 11 29 48 55 56
68 65 63 60 55 52 47 37 37 34 39 47 60 57 59 60 63 54 45 42 46 46 46 39 38 40 40 38 33 31 25 23 18 20 19 13 12 8 9 9 10 10 17 38
73 68 65 66 58 49 39 36 38 38 46 48 66 57 62 63 59 54 43 47 47 45 41 42 37 40 37 37 36 35 30 25 23 22 19 22 18 14 13 14 15 15 15 15
72 69 66 67 54 46 39 41 39 41 47 56 68 58 62 61 59 52 47 44 48 45 38 37 35 37 36 35 36 34 33 30 29 30 25 22 23 24 20 24 23 22 21 23
64 62 59 61 46 43 41 45 42 44 50 62 70 57 60 62 58 56 47 44 47 49 41 36 37 39 38 37 36 35 35 35 34 29 27 28 29 29 27 24 26 27 28 28
55 53 51 52 47 45 45 47 46 47 53 66 63 58 56 59 60 58 54 43 40 43 41 38 37 40 40 39 36 37 38 39 38 36 35 34 33 32 31 31 31 31 31 31
54 54 51 51 48 48 50 47 48 52 64 65 61 59 52 51 61 61 56 47 40 38 42 43 40 41 42 41 38 37 38 37 36 36 37 37 40 39 39 37 39 39 37 39
51 53 51 51 51 49 52 49 53 58 69 66 65 62 57 49 48 54 61 56 42 40 41 44 47 46 46 45 45 45 44 43 43 44 44 42 43 44 45 45 45 45 45 44
46 47 48 50 47 50 52 52 61 61 72 69 66 64 63 56 58 56 48 50 45 50 47 47 47 51 52 51 49 48 50 50 49 48 49 49 49 49 50 50 50 51 50 50
42 43 46 48 46 52 54 58 67 68 74 71 68 69 72 68 67 62 59 58 60 56 56 58 52 49 47 48 47 47 48 50 52 53 53 54 55 54 54 56 57 57 57 56
42 44 46 47 49 57 58 70 70 73 72 74 71 71 66 62 59 62 68 63 57 58 62 64 61 54 52 53 53 52 52 51 51 53 54 56 57 58 59 61 62 63 63 61
40 41 44 46 54 59 62 72 74 77 76 79 77 79 76 71 71 67 64 67 65 63 60 59 58 55 55 57 60 60 60 60 59 58 59 61 61 61 63 65 65 64 64 63
41 42 41 44 56 60 64 75 80 79 80 79 78 73 74 74 74 78 73 72 66 67 65 66 66 64 59 58 58 59 62 62 63 64 64 64 66 67 65 63 64 65 67 69
46 44 43 48 60 63 63 75 80 82 81 83 81 77 76 76 76 74 72 70 70 70 71 69 71 71 66 66 61 63 62 63 66 65 62 64 63 65 68 68 70 71 73 74
47 45 46 53 63 64 67 75 83 80 83 80 81 81 82 83 78 79 78 76 74 76 76 73 74 74 70 70 66 68 69 68 72 72 71 71 73 75 74 76 78 77 78 79
42 47 46 54 66 67 68 73 79 81 82 78 82 81 84 84 81 83 85 86 84 79 77 77 76 77 79 76 76 77 76 76 75 75 77 78 80 81 82 83 86 87 87 87

GFSCGP_250_spd_084.txt.gz
Wind_Speed
83 80 76 82 84 80 76 80 78 78 82 86 86 83 83 88 75 71 73 57 46 41 43 26 17 31 32 25 18 28 27 22 22 19 24 19 21 22 20 25 29 39 38 46
86 82 81 83 84 86 88 82 75 76 79 84 83 84 82 81 79 75 64 43 40 41 39 23 25 36 32 22 18 20 17 18 20 23 20 19 19 20 23 26 35 34 37 38
91 88 86 85 86 85 86 84 80 80 81 87 87 80 79 77 74 66 56 40 36 43 31 24 37 37 30 19 16 13 12 15 17 25 22 22 18 19 20 31 25 36 39 38
91 90 92 88 86 86 85 86 86 85 80 83 89 82 74 75 71 54 39 38 40 41 31 34 41 36 26 19 13 12 11 12 10 28 27 17 21 24 24 24 33 35 40 41
94 89 82 87 90 87 83 84 83 80 82 84 81 82 65 62 49 43 38 41 44 38 37 45 44 34 28 18 14 8 9 9 6 22 26 21 28 29 28 30 35 35 35 44
85 78 83 83 80 79 78 77 77 77 77 74 73 73 58 56 44 38 41 46 44 45 45 47 41 35 28 20 17 8 7 8 9 13 27 26 31 35 31 37 36 41 46 49
89 82 81 77 79 79 77 74 76 75 74 68 69 63 51 45 39 38 47 52 52 50 49 49 43 39 30 24 19 12 8 8 9 7 27 30 26 38 38 34 33 41 43 44
86 83 80 79 76 75 74 72 72 72 68 66 63 47 42 46 30 35 46 46 48 51 54 51 45 37 30 28 21 15 9 5 6 5 9 29 29 26 41 41 39 37 37 49
86 81 81 80 77 75 72 72 73 71 68 62 51 45 35 45 30 44 50 52 52 53 52 51 44 36 33 30 25 20 13 9 5 1 3 12 30 31 34 38 41 38 39 42
80 84 83 82 83 82 79 74 72 70 63 53 37 43 34 40 38 53 54 55 56 54 51 51 45 39 36 32 26 25 18 13 10 5 2 2 8 28 32 33 41 40 39 39
75 76 80 82 80 75 70 70 66 60 53 37 32 37 37 38 47 56 56 57 57 54 51 51 48 43 38 35 31 27 23 17 15 13 11 8 8 8 14 24 43 46 45 42
69 64 66 66 62 58 56 55 51 47 41 30 31 32 46 43 55 59 59 58 61 59 50 48 49 45 39 36 34 30 29 25 21 20 20 16 11 12 10 11 14 21 33 47
68 67 65 62 58 53 48 47 43 39 32 30 30 35 49 47 58 62 61 59 58 57 51 46 47 45 43 39 39 35 34 31 28 22 21 21 22 18 17 11 13 13 12 14
69 71 68 65 59 54 51 49 45 39 32 31 29 44 52 55 61 61 58 54 56 56 53 44 42 42 44 42 42 38 39 38 34 30 27 24 22 21 22 18 17 18 19 18
64 65 69 67 62 58 54 52 45 36 34 30 38 50 57 59 61 59 56 49 49 54 51 49 44 43 42 40 43 41 42 40 37 33 31 30 28 22 23 25 26 26 22 22
57 55 59 64 60 56 55 48 39 33 37 31 48 62 63 62 62 61 54 47 49 52 52 50 47 41 43 39 42 42 43 40 38 38 38 36 32 30 29 31 32 30 28 27
48 53 54 54 49 47 47 42 37 36 40 40 57 73 64 62 61 64 54 45 42 51 54 52 47 42 39 42 44 45 45 43 43 41 40 39 36 36 36 37 38 37 36 38
47 45 45 49 44 43 42 41 37 43 41 52 64 71 68 64 63 66 57 52 46 46 57 54 50 47 45 46 48 50 49 46 43 42 42 40 38 37 37 38 40 43 43 44
42 44 46 47 46 42 43 41 42 44 41 57 69 71 71 66 64 64 60 56 53 46 52 58 55 52 51 49 48 49 48 48 47 46 45 45 45 44 45 46 46 48 49 50
39 39 43 46 45 44 47 43 43 44 42 64 72 67 64 61 64 62 61 59 57 54 47 50 57 53 53 52 51 51 50 50 49 48 50 51 52 52 53 53 54 54 55 56
37 40 42 44 44 46 46 45 45 44 52 66 74 66 67 58 55 63 64 64 64 55 55 55 50 50 53 53 54 56 58 58 59 58 56 57 56 56 57 58 59 61 61 63
39 40 41 41 41 45 45 48 47 50 62 69 74 70 68 66 61 67 66 68 69 67 61 61 58 58 59 59 61 61 59 59 59 56 56 57 57 57 58 59 62 63 65 66
38 38 38 40 42 48 49 52 54 58 71 71 76 74 74 75 72 66 63 59 62 67 70 63 69 66 67 66 69 68 64 59 59 60 61 62 63 64 66 67 67 67 68 68
37 38 37 38 44 46 51 54 57 63 75 75 77 79 79 79 79 75 69 68 72 69 69 66 69 69 70 74 73 69 70 67 64 66 67 67 67 67 69 70 70 71 73 72
37 36 37 38 42 46 53 56 61 74 79 78 83 86 81 82 85 81 73 70 74 76 81 71 74 75 74 74 75 74 72 72 74 70 72 72 72 74 73 73 74 73 77 78
35 36 38 39 44 49 57 61 64 79 83 83 86 86 83 84 86 87 83 81 77 79 79 78 78 81 80 82 82 81 79 77 79 81 80 82 79 78 78 78 80 81 79 81

GFSCGP_250_spd_087.txt.gz
Wind_Speed
87 81 78 81 83 84 76 71 70 74 78 81 77 63 71 73 72 75 77 78 77 77 79 69 67 54 38 34 36 23 25 28 23 25 30 25 29 25 25 27 25 26 31 37
86 82 85 87 80 79 77 73 73 76 78 73 69 61 68 72 72 72 74 72 81 79 75 71 55 39 32 37 27 25 26 21 20 23 24 27 28 23 27 26 24 27 26 35
92 88 91 86 82 79 76 76 77 77 77 78 76 69 71 73 76 78 76 80 74 74 69 54 41 29 38 31 26 26 23 18 14 19 21 26 25 26 27 27 26 29 29 30
94 89 86 87 89 84 76 77 78 76 76 78 81 74 73 78 82 81 79 79 78 71 59 41 32 35 37 29 30 28 23 15 10 14 25 28 26 25 25 28 29 34 34 37
93 96 92 87 85 85 78 80 80 79 79 77 77 82 72 78 82 79 74 68 66 58 43 33 32 42 34 34 32 27 20 12 7 10 27 28 30 27 27 25 34 35 35 36
98 92 89 87 88 85 79 81 82 82 81 81 79 76 70 76 72 69 55 56 60 43 35 31 40 39 39 38 35 25 17 10 6 8 25 32 27 30 34 33 44 29 37 33
99 95 94 91 86 83 81 82 81 81 80 81 77 75 72 71 67 61 46 52 43 35 30 36 48 44 45 41 34 27 15 7 5 8 13 32 29 34 35 38 35 36 37 40
90 92 94 93 90 87 83 80 78 77 71 66 60 59 62 63 61 47 47 36 34 33 32 45 47 48 46 41 33 28 17 8 5 7 10 34 32 40 32 38 36 36 37 41
84 84 86 87 87 84 80 77 75 74 69 61 59 60 57 58 53 45 34 35 33 35 45 50 53 51 48 42 34 27 19 11 8 3 4 31 35 39 39 37 40 42 43 44
76 79 81 84 85 81 76 79 76 74 66 59 57 57 56 55 45 42 32 34 39 46 54 56 58 53 49 43 34 28 22 15 11 7 6 16 34 32 41 39 41 44 50 53
69 72 76 81 80 76 76 77 75 73 66 60 58 58 60 56 42 34 35 40 46 52 55 59 59 53 49 43 36 30 25 20 16 12 10 11 20 38 40 36 48 43 42 45
64 70 72 73 76 76 73 75 74 67 63 59 57 56 53 44 39 34 38 47 56 57 55 57 58 53 51 45 38 34 30 26 22 19 15 15 16 19 30 43 44 47 48 46
65 65 66 66 66 67 67 64 62 64 62 57 47 44 44 36 41 36 45 56 61 59 56 56 58 54 51 46 41 38 35 32 30 26 22 19 18 17 19 22 34 50 51 49
63 66 66 64 61 60 59 58 54 49 41 38 36 37 40 37 39 40 52 60 63 59 55 58 57 55 52 47 44 42 39 38 35 32 24 19 20 19 22 22 23 23 26 30
60 64 63 61 60 57 53 50 45 40 38 31 35 28 39 36 38 43 55 62 63 59 55 56 55 54 52 49 46 45 43 42 37 33 32 29 27 25 24 27 28 28 26 27
56 59 60 57 56 56 53 51 45 39 35 35 33 35 35 36 39 45 58 63 61 57 54 56 54 55 54 52 47 45 44 43 41 40 39 36 33 33 33 32 31 34 33 31
49 48 50 51 50 55 55 52 48 45 38 37 33 33 38 38 42 50 60 64 58 56 53 51 57 53 52 53 50 48 46 45 45 43 42 40 40 39 37 36 34 34 34 35
45 43 44 47 51 53 53 53 53 50 44 37 37 39 40 42 45 55 64 62 56 53 55 56 58 53 50 49 47 47 47 48 47 47 46 43 42 44 43 42 41 40 40 40
39 39 40 43 48 51 52 54 49 52 46 43 41 46 43 50 51 62 64 62 57 49 52 53 56 57 51 49 48 46 46 49 48 51 49 47 45 47 49 48 47 46 44 43
48 47 46 45 47 48 51 49 45 45 43 40 46 51 48 53 54 64 65 62 54 53 53 55 58 60 53 52 48 44 48 45 53 52 52 50 50 49 50 51 50 50 50 50
45 47 47 46 44 47 49 47 43 43 42 44 46 49 51 56 61 63 67 63 58 52 49 48 53 59 59 57 55 54 45 58 58 56 56 55 54 54 53 54 55 56 58 59
40 42 41 41 43 46 47 45 43 41 41 44 48 48 54 64 66 63 61 62 63 52 54 51 46 51 60 65 62 61 65 62 60 59 57 58 59 58 59 60 61 62 64 64
40 38 37 41 45 45 45 44 45 44 46 48 49 56 61 69 71 64 61 62 61 64 63 58 56 55 59 64 65 63 64 64 64 65 67 66 66 67 68 70 71 71 68 66
38 37 37 40 41 41 41 44 46 47 50 52 57 64 68 72 61 77 68 66 64 65 64 64 62 64 62 61 60 63 64 72 73 73 77 74 73 74 75 74 74 74 69 69
36 35 35 37 36 38 41 44 47 50 54 57 67 70 71 76 70 64 77 80 72 68 68 68 69 63 65 68 63 73 73 76 80 78 82 78 75 76 76 76 76 75 76 76
34 35 34 33 35 40 41 45 48 54 58 62 74 76 76 80 79 76 72 68 69 73 74 77 78 79 73 74 79 79 81 80 80 81 81 83 84 83 81 84 83 84 84 83

GFSCGP_250_spd_090.txt.gz
Wind_Speed
77 80 84 87 86 87 82 79 74 73 72 72 69 75 72 71 75 74 71 70 71 71 71 71 71 70 73 72 66 63 54 44 39 33 29 26 30 31 28 28 29 28 34 36
74 79 90 92 87 84 85 81 77 74 74 71 68 65 66 70 72 73 73 73 71 70 70 69 68 66 72 73 72 53 42 37 34 28 23 27 29 29 27 30 30 32 34 33
73 82 90 94 92 88 85 82 83 81 79 76 70 63 65 65 71 68 67 66 65 64 66 69 70 76 68 62 52 38 34 33 30 20 23 26 30 28 30 28 33 34 32 35
65 78 86 91 93 91 83 85 86 82 80 79 75 68 64 65 71 70 71 69 66 67 70 74 77 74 60 50 36 35 33 35 24 20 20 26 31 32 30 27 33 31 28 32
64 78 83 91 94 90 88 79 81 82 80 76 72 71 72 73 76 76 75 73 73 75 77 76 76 60 48 39 35 33 37 28 25 18 19 25 30 35 30 30 33 32 29 29
64 74 79 89 94 92 87 84 80 79 81 76 74 71 74 71 74 75 72 71 71 73 74 70 60 50 36 36 36 40 34 27 24 22 14 23 33 30 31 33 34 32 32 38
63 69 79 86 91 93 90 87 86 83 78 74 75 76 81 80 76 74 74 75 74 72 69 63 58 37 38 42 41 39 32 27 26 23 11 25 33 33 33 30 25 32 39 35
61 64 78 85 85 90 91 91 91 85 77 80 77 74 80 81 78 77 75 74 70 58 56 58 43 36 40 44 44 38 33 27 26 20 13 20 31 37 34 37 33 33 36 38
62 64 72 83 85 82 89 90 88 83 79 75 75 78 76 77 73 73 70 55 50 45 52 41 35 37 51 48 45 41 33 28 26 17 13 14 39 38 37 40 38 40 40 31
61 60 67 79 86 86 80 84 80 84 87 84 79 77 80 76 72 66 55 48 39 43 46 36 34 48 50 50 48 44 35 29 27 16 9 12 39 41 42 37 36 43 35 37
55 59 65 75 82 83 82 81 87 84 78 75 73 73 72 72 65 56 51 46 42 45 39 35 44 52 52 51 50 44 37 31 28 20 12 9 35 41 47 39 39 43 40 45
56 60 62 72 77 75 72 71 77 81 75 73 68 65 65 63 63 57 50 44 43 41 36 41 53 54 56 53 52 46 40 34 28 24 17 13 27 39 39 46 40 46 45 47
55 60 61 65 71 71 72 71 72 70 68 66 64 64 64 59 55 53 49 42 42 36 37 52 53 55 56 56 54 48 41 36 33 29 24 19 18 24 37 41 46 46 47 46
55 59 60 62 64 69 71 71 70 68 66 63 61 60 60 54 52 50 46 40 41 36 47 56 56 58 57 57 55 50 44 40 38 34 28 24 22 21 22 29 46 48 50 50
59 60 58 58 59 62 63 64 63 62 62 59 60 57 49 47 46 42 39 40 38 41 55 55 57 60 59 58 55 53 47 44 41 36 31 26 25 23 21 28 29 39 53 54
54 56 56 58 60 61 59 58 58 56 53 49 47 42 40 37 37 38 40 40 38 50 59 56 58 59 61 62 57 54 50 46 42 38 36 35 33 30 27 28 30 32 33 40
51 53 51 53 55 55 55 55 54 49 44 39 40 39 38 37 37 37 39 38 44 60 61 58 59 59 60 63 58 55 51 47 45 43 40 40 39 39 37 33 33 35 36 40
44 45 47 48 51 54 55 55 51 47 42 42 42 40 40 38 39 37 39 42 51 65 62 58 58 58 57 61 59 56 54 49 47 47 45 44 44 44 41 39 39 42 42 40
33 42 47 47 47 52 57 55 54 52 48 46 43 41 39 39 40 38 38 45 56 68 63 61 58 55 56 58 59 57 56 54 52 50 49 49 48 48 47 46 47 47 47 47
36 40 46 47 45 48 54 55 55 53 52 48 45 42 39 42 41 42 42 46 57 67 64 59 55 56 56 54 54 57 56 55 56 53 56 54 51 53 52 52 51 50 51 52
44 44 44 48 47 46 51 52 53 53 53 51 49 47 42 43 47 47 48 50 58 63 49 52 55 55 56 56 57 56 55 54 51 46 52 55 56 58 57 56 55 54 54 55
47 47 49 50 50 50 47 49 51 50 51 49 49 49 46 48 54 50 52 55 61 64 61 49 53 55 56 56 57 56 54 54 51 47 48 51 50 54 59 60 60 59 59 60
42 43 47 51 48 45 42 43 45 46 43 43 43 43 47 54 50 48 54 59 64 67 59 44 43 51 56 55 57 59 60 58 56 57 57 58 64 56 64 66 65 65 64 65
37 38 40 42 43 41 40 38 41 42 42 42 45 47 53 52 49 50 58 64 68 69 69 58 52 57 53 57 61 60 62 65 67 65 66 67 68 73 79 77 76 71 71 71
31 36 40 39 38 38 38 37 39 41 42 45 50 54 54 51 51 58 62 64 73 72 72 66 62 60 59 60 58 57 55 58 68 73 70 71 80 80 82 83 82 81 80 82
34 35 35 35 33 33 34 36 39 43 46 49 55 57 56 55 60 65 69 68 74 77 72 71 74 72 71 71 68 70 70 74 67 78 81 83 79 87 82 88 91 92 89 90

GFSCGP_250_spd_093.txt.gz
Wind_Speed
82 74 64 76 79 79 85 87 84 79 85 77 71 71 72 75 74 78 76 75 75 74 71 69 71 70 70 70 70 74 75 73 69 68 63 49 39 31 32 34 28 30 33 35
80 65 68 72 74 76 79 85 81 82 84 80 72 68 69 69 71 75 74 71 69 67 67 67 67 68 71 73 74 74 76 65 71 64 49 37 30 28 33 30 29 32 33 31
74 64 66 67 67 71 74 79 82 82 86 78 75 63 72 73 70 71 70 67 66 67 68 70 70 70 67 68 72 73 69 68 75 52 37 29 27 30 28 30 32 29 30 27
64 64 60 62 59 66 69 78 82 82 84 79 75 66 70 71 71 70 66 63 64 65 65 67 64 65 66 69 70 72 71 75 59 39 29 26 28 29 30 32 28 31 29 29
55 62 58 55 57 61 66 78 79 81 84 81 71 72 71 72 70 71 67 63 65 61 59 62 64 66 67 69 74 74 71 60 42 33 29 26 27 29 31 29 30 30 32 35
58 62 56 51 57 55 64 70 79 82 82 77 76 78 75 82 74 72 71 69 64 62 64 66 68 70 73 77 78 73 60 49 36 34 29 28 26 29 31 28 31 30 35 33
59 59 55 53 52 54 61 66 77 83 81 73 77 76 61 79 76 77 74 69 69 68 68 71 74 76 82 80 70 68 59 40 37 33 31 31 26 29 30 35 32 34 35 31
53 52 51 51 52 54 58 63 71 78 80 71 70 68 79 80 80 78 75 69 70 70 73 76 81 82 82 75 73 56 40 40 38 32 31 30 28 30 32 37 35 36 35 32
46 46 47 51 55 56 56 58 64 76 79 81 78 77 77 77 77 78 77 77 76 76 76 78 80 77 77 67 57 42 41 42 37 33 31 28 28 31 34 34 37 34 34 33
43 46 44 50 54 53 54 59 61 66 78 79 79 78 78 74 74 75 74 69 71 73 75 77 76 71 58 54 45 40 45 45 37 34 30 30 26 35 36 38 37 33 29 26
41 44 44 50 48 53 57 61 63 63 66 79 80 78 78 80 79 75 74 74 74 73 71 72 67 57 54 44 39 45 49 43 38 33 30 31 29 37 42 40 40 38 35 29
39 42 46 49 53 57 61 65 66 67 62 67 72 74 79 82 80 74 72 70 69 70 66 60 53 57 39 38 43 51 51 45 38 35 31 29 30 34 45 45 38 39 38 37
40 43 47 49 56 60 64 69 65 60 56 55 64 71 79 82 77 80 77 73 69 65 54 50 51 47 39 42 49 54 51 46 42 37 32 25 27 27 46 46 39 39 40 39
45 49 54 54 58 61 64 67 70 67 65 62 58 62 67 66 65 66 65 64 59 58 48 47 53 40 43 50 55 55 51 48 45 39 34 28 24 25 43 44 45 41 42 40
43 45 50 53 57 60 62 65 70 72 71 63 62 61 60 57 57 58 56 52 52 49 43 48 47 43 50 58 58 54 53 51 48 42 36 29 28 26 33 37 50 45 44 49
50 54 53 52 50 54 58 62 66 66 63 62 62 62 54 57 55 53 49 48 47 41 45 43 40 45 56 61 57 54 55 54 50 46 41 33 30 29 32 31 36 43 52 56
44 48 48 49 51 57 59 62 63 61 59 62 61 59 56 56 54 50 46 44 42 44 39 40 42 51 60 59 58 56 58 58 54 47 43 38 35 33 34 33 28 34 37 47
40 45 46 50 54 58 60 60 60 59 59 56 55 53 49 44 42 39 39 39 40 38 35 41 46 56 57 57 57 56 59 59 55 52 47 44 41 39 39 38 35 33 35 36
36 42 44 49 48 50 54 57 57 57 54 52 49 44 37 39 36 38 40 36 40 31 37 42 51 57 52 56 56 56 59 60 57 55 51 49 48 46 44 43 42 42 42 42
33 38 41 43 45 47 50 55 57 57 53 47 44 39 38 41 43 43 41 38 39 33 42 48 53 58 60 57 59 56 56 60 61 58 56 53 50 49 49 49 48 47 48 49
23 28 36 40 42 44 45 50 55 55 51 49 44 41 40 43 44 44 42 41 38 37 50 52 54 53 54 38 57 58 39 65 63 62 59 57 54 53 54 54 54 55 55 54
29 32 37 38 40 44 47 47 48 51 52 52 49 46 45 45 43 47 44 42 39 44 55 53 42 45 54 64 59 59 55 58 60 63 62 61 58 56 61 59 55 58 60 57
34 40 42 45 48 50 53 50 48 49 51 53 53 52 52 50 47 47 48 48 45 53 60 65 55 54 53 58 60 58 59 61 58 57 60 62 62 61 61 56 54 51 61 65
35 38 42 44 44 43 42 43 42 44 48 51 53 55 55 54 52 51 51 52 51 58 64 68 73 63 45 53 58 57 51 60 51 53 62 61 61 55 59 63 62 64 67 66
36 39 41 40 32 35 38 41 41 42 45 47 50 53 55 56 56 56 51 54 54 60 67 70 65 63 65 66 63 60 66 69 60 62 57 63 54 62 68 71 72 69 70 72
32 34 31 27 32 32 34 38 39 39 41 43 46 50 53 56 56 55 53 54 55 63 68 70 69 69 63 63 69 70 71 69 65 61 66 64 69 77 76 78 81 77 75 77

GFSCGP_250_spd_096.txt.gz
Wind_Speed
88 85 76 85 89 86 87 87 83 78 82 88 78 77 77 78 66 64 64 71 69 68 70 65 64 65 66 66 65 69 69 69 67 68 69 74 76 73 67 62 42 31 27 28
92 84 79 87 88 83 76 78 73 75 75 82 74 73 75 79 60 70 75 73 68 70 69 65 62 62 64 65 64 67 67 62 66 72 75 74 73 68 62 46 32 27 27 32
92 80 83 84 78 77 70 65 66 67 72 71 69 68 75 79 77 61 74 74 71 69 67 65 65 66 66 66 68 67 65 66 70 78 74 71 68 65 47 35 25 25 30 33
86 79 80 79 68 70 61 59 61 62 66 62 67 67 78 80 75 71 68 67 61 65 65 66 63 63 62 60 62 62 65 72 71 77 69 70 66 53 34 29 26 28 33 34
72 74 74 70 62 60 51 57 55 59 61 60 62 64 73 79 76 74 64 65 61 58 58 58 55 57 57 59 62 62 66 75 71 74 67 71 54 39 31 29 30 32 34 34
66 67 66 62 56 51 49 50 52 53 56 51 59 62 71 75 73 76 60 63 62 55 54 59 60 58 58 60 58 63 75 76 71 71 72 66 53 34 32 32 31 33 33 31
59 62 63 57 50 48 46 47 45 48 46 45 56 64 66 65 72 67 67 57 55 53 58 60 64 56 61 63 66 67 72 71 70 78 73 57 41 35 34 31 33 34 33 33
55 53 54 50 47 47 49 45 43 41 41 44 53 59 63 69 66 70 67 64 55 57 63 62 62 63 66 63 63 70 72 77 75 73 63 41 35 38 36 33 31 32 33 33
49 48 43 43 41 41 43 39 41 43 39 44 49 56 63 65 67 66 70 57 53 56 67 63 67 63 70 64 69 70 73 76 74 64 38 36 38 38 35 34 31 33 32 32
40 35 37 40 34 38 40 47 43 39 43 47 50 56 64 63 65 68 70 73 66 66 70 78 72 69 70 74 76 75 68 67 61 38 35 36 40 33 31 31 27 35 34 32
33 34 35 35 30 34 38 44 38 41 44 48 56 55 59 56 73 68 68 62 68 65 65 69 72 72 72 77 70 65 60 56 38 34 36 41 36 32 31 27 32 37 35 33
30 30 29 33 35 37 41 44 43 44 45 49 59 58 65 71 68 73 68 68 76 75 67 71 71 71 70 71 63 62 59 42 35 39 43 40 35 32 31 27 35 34 35 32
23 25 27 29 30 33 36 41 44 45 44 48 64 61 69 72 80 72 70 70 71 71 67 66 66 62 65 62 62 59 47 36 37 45 43 38 34 32 30 26 38 37 39 36
24 30 30 30 36 39 45 48 49 51 49 55 62 72 81 77 77 75 75 72 73 69 64 68 69 64 69 65 51 50 39 36 46 47 45 37 31 30 31 32 38 42 40 39
29 34 35 34 40 44 55 57 57 59 57 60 64 71 65 64 63 68 71 71 69 69 69 68 73 69 61 45 44 39 38 46 53 48 45 38 31 27 28 27 40 49 45 43
31 37 40 45 47 54 62 70 69 66 57 55 65 60 53 61 68 65 65 67 68 63 52 48 49 46 45 43 40 37 42 57 54 52 46 41 35 31 27 25 44 45 47 41
31 35 39 45 50 55 62 67 64 59 59 59 56 50 52 48 53 50 54 50 41 45 49 52 50 48 45 40 41 41 53 60 57 54 50 45 38 35 31 29 35 47 47 48
30 32 42 41 39 51 55 57 62 65 64 62 60 57 58 61 58 56 50 49 51 51 50 47 46 47 40 40 41 46 60 59 58 57 52 47 42 40 37 34 34 38 40 50
27 27 33 36 40 43 48 53 60 60 61 59 60 60 63 62 57 52 54 54 52 49 47 45 46 39 37 41 44 54 62 61 58 57 53 50 48 45 43 39 37 38 38 37
29 32 35 37 39 45 50 52 60 60 58 56 56 55 51 48 48 50 52 46 43 41 45 43 37 35 38 42 48 55 59 60 57 55 53 52 51 50 49 46 44 44 43 43
28 28 31 36 39 43 47 51 59 57 57 57 53 51 51 50 47 41 41 41 41 40 40 35 30 35 38 46 50 52 57 55 54 53 54 55 56 55 54 52 50 50 49 49
26 28 30 35 39 42 45 49 52 56 60 59 56 54 51 45 41 38 40 41 40 42 38 33 32 40 45 40 34 39 42 41 52 56 52 53 56 59 59 57 56 56 56 55
29 26 28 36 38 40 44 46 49 53 58 62 59 56 52 45 41 39 42 45 48 42 41 35 42 45 51 54 47 41 57 59 57 46 54 54 57 61 64 62 62 61 61 60
28 28 32 35 39 41 44 49 49 49 52 57 59 59 55 50 46 45 46 50 48 46 46 42 53 53 61 64 56 54 50 50 58 58 59 57 51 52 55 62 64 53 66 66
25 26 31 32 36 40 42 39 41 43 45 49 53 56 57 56 51 51 51 52 50 50 49 50 62 65 61 55 68 61 58 70 69 69 70 63 54 56 62 62 59 65 68 67
24 26 28 31 35 36 32 35 35 39 42 42 45 51 55 57 55 56 56 56 54 53 55 52 68 69 67 60 66 74 74 69 65 64 69 70 72 66 64 63 68 77 68 68

GFSCGP_250_spd_099.txt.gz
Wind_Speed
98 88 86 92 96 95 91 90 90 82 82 92 89 80 76 84 82 83 82 77 74 68 67 67 60 59 58 53 47 40 46 50 57 64 59 63 63 63 64 67 69 73 68 59
93 85 91 89 91 94 91 89 85 83 82 89 83 72 70 72 71 70 73 77 82 77 69 64 61 61 57 58 59 57 50 54 57 64 59 61 62 64 64 67 70 64 64 44
92 88 90 94 92 92 90 88 82 81 78 80 69 64 60 64 63 72 67 69 74 75 67 62 60 55 55 58 57 54 53 53 56 61 61 63 64 62 65 68 67 63 55 35
88 94 94 90 87 89 87 79 78 67 64 58 66 46 52 56 58 60 64 68 69 69 65 60 53 54 53 54 57 54 52 56 60 61 65 64 60 62 69 71 64 60 44 33
81 89 89 86 80 79 73 71 67 61 50 47 53 40 47 53 49 54 59 63 65 68 61 54 58 58 55 55 55 52 54 56 59 59 63 59 60 69 70 66 68 53 36 32
88 83 81 78 69 68 66 61 55 52 42 36 45 37 41 47 48 50 53 56 61 59 55 51 56 59 59 57 56 53 51 53 57 59 63 63 67 70 64 67 61 42 33 32
85 76 70 67 58 63 59 55 49 40 34 33 42 28 39 45 42 43 51 57 60 54 61 50 46 50 54 45 49 53 52 55 57 58 61 66 65 63 65 68 51 35 34 35
70 64 62 59 53 54 49 47 42 39 32 35 26 27 39 41 40 33 42 59 61 64 52 54 50 49 49 54 57 58 55 54 55 62 65 60 63 68 67 58 40 35 35 35
64 59 51 51 49 45 40 36 43 37 31 28 28 31 34 36 39 45 53 50 63 61 59 57 53 57 52 56 57 58 62 60 60 62 59 61 65 68 60 43 34 36 38 35
57 54 45 43 38 33 36 37 33 31 28 31 31 32 33 36 42 56 60 45 51 59 63 55 51 48 55 55 53 53 52 55 56 62 61 64 65 59 40 38 33 36 38 35
52 42 34 31 30 31 30 28 26 29 33 39 35 33 31 45 43 53 45 46 47 59 57 53 50 51 57 59 52 55 58 55 58 62 67 68 55 40 37 36 33 39 34 33
41 31 26 25 25 28 29 33 35 41 42 44 45 45 41 37 62 55 53 62 56 53 61 60 53 57 62 58 56 57 62 62 65 65 67 48 36 36 36 34 36 33 29 32
31 26 22 21 25 27 26 29 38 42 47 49 52 51 58 50 49 57 68 63 53 52 55 59 58 52 56 56 60 63 60 59 64 60 49 38 36 38 36 35 36 32 26 36
24 25 24 27 28 32 33 38 40 44 48 56 58 64 62 62 57 55 59 63 56 57 54 58 63 65 66 66 61 65 63 61 58 55 46 38 37 41 38 38 37 30 29 38
23 23 26 30 30 32 34 38 44 48 53 61 66 61 59 65 69 60 55 55 59 56 60 63 61 61 65 66 68 68 66 61 61 58 45 38 43 43 40 38 38 32 31 41
20 23 32 35 36 38 39 43 49 56 58 59 65 63 59 63 65 62 58 53 51 53 59 58 62 64 66 69 68 62 60 65 59 46 39 41 47 44 37 36 35 31 31 43
21 26 30 37 41 43 46 53 56 58 56 56 57 62 64 62 59 58 60 60 58 58 63 63 64 68 67 62 67 67 58 47 42 40 41 51 50 46 37 33 32 32 32 51
21 25 27 40 43 48 50 56 56 56 53 50 48 52 55 57 58 60 60 59 58 59 56 57 59 62 66 66 53 49 48 43 42 41 49 55 53 49 41 36 32 30 32 48
24 24 26 36 40 41 51 55 54 53 53 51 50 54 57 58 59 55 55 54 53 54 55 59 60 54 48 50 52 52 47 42 45 44 57 60 57 53 47 42 38 36 32 42
26 26 26 25 31 44 48 55 58 53 53 54 55 53 54 56 57 58 54 46 43 45 48 46 41 47 52 55 53 49 41 44 45 45 60 63 57 51 48 47 44 42 41 37
28 26 27 27 23 26 45 52 54 57 58 56 56 56 54 53 55 52 47 49 51 51 51 46 50 55 56 55 52 39 43 45 43 47 62 63 57 55 53 52 50 49 46 45
26 29 29 28 30 32 33 42 49 54 60 59 59 60 58 57 57 56 55 57 56 53 46 49 53 55 53 46 39 42 46 46 39 46 59 62 58 58 57 57 55 53 52 51
31 30 34 33 34 33 34 40 45 50 57 63 61 60 59 59 56 54 53 47 46 48 51 51 49 49 43 36 41 44 44 49 51 49 54 50 49 60 62 60 59 58 57 56
29 30 31 33 37 38 39 40 42 48 53 58 62 60 59 56 55 53 48 48 48 50 49 46 46 45 40 38 42 46 48 51 55 56 57 65 61 56 59 60 61 63 61 62
24 28 29 31 33 37 38 39 43 49 50 50 52 56 58 57 55 54 52 50 47 46 45 47 46 42 41 41 49 54 56 55 54 50 53 57 59 56 55 63 61 63 63 63
20 22 23 26 27 30 34 39 44 44 43 43 45 49 55 60 60 58 56 54 49 49 48 51 50 46 46 49 58 60 61 61 60 63 63 59 65 66 68 67 68 68 74 73

GFSCGP_250_spd_102.txt.gz
Wind_Speed
88 83 80 86 89 93 93 95 88 89 92 102 94 89 86 85 81 79 80 81 83 82 84 81 80 70 65 59 62 63 44 42 37 42 44 49 46 44 46 52 54 53 52 55
88 77 85 89 91 98 104 100 99 97 92 98 93 86 79 80 78 82 78 78 81 73 70 70 82 72 66 61 64 60 47 46 45 43 47 45 41 45 51 54 53 51 53 60
86 81 87 96 102 99 97 106 100 97 92 94 94 80 73 67 72 73 72 73 67 66 71 69 71 76 65 62 60 62 52 47 45 46 48 47 45 47 50 52 55 55 58 60
92 96 102 100 98 104 108 105 100 97 93 88 84 69 56 59 60 63 66 60 57 63 66 65 65 66 63 59 57 62 60 56 50 49 55 52 47 47 50 55 57 59 60 57
90 97 96 100 101 104 101 96 92 92 83 75 60 57 47 53 51 56 55 48 50 51 53 52 55 57 62 59 59 59 57 60 60 60 52 54 48 48 51 60 59 57 59 61
108 102 103 103 101 94 91 87 83 74 66 51 56 44 48 46 47 44 36 39 40 44 46 45 48 55 63 60 59 59 56 56 52 49 51 52 50 51 58 59 59 59 60 63
110 105 103 108 94 79 84 75 65 57 54 50 43 41 39 36 32 31 32 36 37 42 45 47 53 60 68 64 62 59 51 49 52 53 53 56 51 53 57 59 57 60 62 61
98 94 99 98 80 67 71 61 55 50 46 38 36 40 32 26 25 28 30 36 36 38 43 48 54 58 60 60 57 51 52 54 54 56 53 56 52 56 55 56 60 63 60 64
90 73 77 68 67 59 60 51 46 40 37 31 29 27 28 23 22 28 34 38 38 43 46 54 55 60 53 51 52 50 52 52 46 50 56 51 52 52 54 56 57 56 62 56
74 63 59 59 56 52 46 39 34 31 28 32 28 28 29 26 33 37 34 38 35 50 52 50 58 58 61 56 54 49 50 50 53 51 50 52 54 55 57 60 59 59 61 41
62 57 54 54 44 40 32 29 27 26 31 33 36 33 33 37 48 42 47 50 37 53 54 52 57 61 63 49 43 44 49 51 56 55 55 53 55 58 58 57 61 63 49 36
56 52 48 43 35 28 23 22 27 32 35 37 40 39 38 47 59 51 44 48 47 49 63 57 57 58 54 56 50 51 53 49 49 53 51 48 54 58 57 59 59 49 43 35
46 42 38 32 26 25 26 32 40 44 44 46 48 46 44 52 56 63 59 53 54 44 52 65 61 57 54 60 56 60 51 51 48 46 47 50 57 60 58 55 48 46 37 35
36 31 27 23 22 23 26 38 43 42 47 51 54 58 53 48 50 63 62 58 57 45 38 42 58 61 54 53 54 57 55 55 54 51 53 55 59 65 64 48 47 42 36 35
26 23 20 19 21 26 33 37 44 44 48 54 62 59 60 59 56 53 50 56 56 53 47 41 44 53 49 55 54 52 52 57 56 52 55 62 65 62 66 44 48 42 40 39
22 19 20 24 29 35 36 40 46 49 55 62 64 67 63 60 58 61 61 58 48 53 52 46 51 53 54 51 52 54 57 57 58 58 60 65 64 65 52 47 43 42 42 40
20 21 25 29 33 37 41 46 55 58 58 63 62 60 62 59 56 53 54 58 54 46 44 48 48 49 51 54 58 58 59 59 60 63 64 65 64 60 50 43 43 44 42 45
19 22 26 32 35 38 43 49 56 60 60 59 59 61 62 63 52 49 46 44 48 53 46 48 51 52 54 55 56 58 60 63 63 63 62 65 66 58 44 43 47 45 44 43
19 23 27 36 39 45 48 52 57 61 63 61 60 58 61 60 62 57 54 51 48 51 46 54 56 57 59 61 61 62 64 63 63 64 64 66 52 48 46 46 50 46 44 44
21 28 28 36 42 46 48 51 53 57 62 63 62 58 56 59 61 62 61 60 59 52 48 54 59 56 56 59 62 60 58 62 63 68 56 53 53 49 49 50 54 50 48 42
25 27 28 27 37 44 44 48 50 53 53 55 58 57 59 60 61 63 62 60 58 59 56 55 58 59 62 62 62 62 63 60 56 55 56 54 53 49 51 54 59 53 53 49
23 25 26 26 26 37 44 48 50 49 49 50 52 54 55 56 55 56 61 59 57 57 54 52 52 55 55 53 53 51 51 54 56 56 50 52 52 49 54 55 60 56 57 56
29 29 29 30 29 31 32 41 48 49 51 52 52 53 54 53 52 51 54 54 53 55 54 51 51 47 51 52 53 55 56 59 58 52 50 48 42 47 53 57 60 63 62 61
32 33 31 31 32 32 30 29 29 38 47 51 49 52 53 52 52 52 52 51 53 54 55 52 52 53 56 58 56 55 57 56 50 49 53 56 48 41 44 63 63 64 66 64
31 33 33 33 33 33 32 33 36 37 40 47 55 61 57 54 54 55 56 56 54 53 54 55 57 56 53 53 56 55 53 48 48 50 53 54 56 57 55 64 73 70 69 69
29 29 34 37 36 36 37 39 40 44 48 52 53 49 50 54 58 57 57 57 56 55 54 56 55 52 53 56 55 52 51 49 47 50 52 58 58 64 66 66 71 74 75 76

GFSCGP_250_spd_105.txt.gz
Wind_Speed
84 83 78 77 81 86 90 89 81 80 80 83 87 86 86 84 87 89 93 89 88 86 83 87 82 76 75 73 73 73 69 64 59 56 49 53 54 48 45 49 48 42 43 44
89 86 84 85 89 95 97 97 89 81 84 92 91 84 84 88 94 97 92 88 87 89 89 88 83 80 77 76 70 70 69 66 57 55 58 52 52 47 45 39 37 42 45 44
88 93 95 91 93 97 98 99 93 90 88 93 96 85 83 84 96 96 89 88 87 78 81 80 79 81 77 67 66 64 67 66 59 58 57 59 48 47 45 41 42 46 45 41
99 100 99 99 97 99 96 104 99 99 103 97 100 89 78 95 88 86 84 83 63 66 74 75 73 74 68 59 57 53 65 67 61 60 56 55 53 48 45 47 46 43 43 44
106 106 109 113 107 103 101 104 104 105 103 93 79 89 64 82 67 66 63 54 50 54 59 62 61 63 61 58 53 48 58 66 61 61 60 56 48 45 40 42 43 49 45 45
105 107 108 107 106 107 107 104 101 94 90 83 80 84 70 64 56 52 45 43 43 42 45 50 51 53 54 56 55 57 60 67 65 65 63 60 55 48 46 47 49 45 44 46
104 106 103 105 107 104 99 92 87 82 81 76 76 66 63 53 47 41 41 41 35 34 37 40 43 47 51 54 60 64 68 70 65 63 65 62 58 55 55 52 49 46 47 48
101 103 102 100 101 94 88 85 81 77 69 66 62 56 48 42 37 36 35 36 33 31 33 35 39 44 49 56 64 71 73 65 60 57 60 58 53 51 54 49 49 52 46 51
99 90 85 87 81 78 73 71 69 61 59 56 51 47 41 33 31 32 31 32 30 31 34 34 38 43 47 55 64 68 66 60 57 56 55 53 54 47 45 44 47 49 51 54
78 73 80 75 66 68 57 55 57 53 50 45 44 41 34 30 29 30 30 28 31 35 39 39 40 45 49 54 57 59 58 57 53 56 48 47 42 45 45 46 47 49 47 52
75 72 66 58 57 53 51 49 46 41 36 36 36 34 34 33 35 36 36 34 30 36 43 43 44 47 47 50 52 56 55 55 52 48 50 48 45 43 45 46 45 44 51 56
71 60 52 52 50 47 44 38 35 35 34 33 34 34 37 41 44 41 41 35 33 38 40 43 45 46 47 51 58 57 53 54 53 56 51 49 53 46 42 40 43 51 54 56
54 48 47 45 41 36 31 31 33 36 37 38 39 37 45 47 50 47 43 42 35 41 41 44 44 47 50 51 51 53 55 50 44 47 54 46 47 49 46 44 52 54 57 59
48 44 41 33 29 27 28 32 35 37 40 41 44 48 60 56 55 51 45 46 43 38 49 48 46 49 51 55 58 62 56 48 51 52 53 50 48 50 47 48 53 57 59 60
40 35 30 25 24 26 28 34 38 43 42 47 48 52 63 62 62 58 53 53 49 43 36 54 52 54 54 57 56 63 62 61 52 51 50 50 50 52 55 58 60 62 62 59
31 27 23 18 20 23 27 28 33 39 46 48 51 52 60 67 65 62 58 55 53 51 42 56 60 61 57 59 56 55 53 54 55 55 59 53 53 53 56 57 60 63 65 65
25 21 17 16 24 30 31 39 39 47 49 49 54 56 60 61 66 64 60 57 56 49 50 43 64 62 63 63 59 56 57 60 52 57 64 58 57 60 63 64 67 69 67 59
19 17 15 20 27 37 43 45 48 49 50 50 55 55 58 56 64 67 64 61 60 54 51 46 44 57 61 59 62 58 53 50 56 58 59 60 61 62 63 62 66 68 66 62
18 14 18 23 31 39 47 49 55 51 51 53 54 56 59 55 55 61 60 65 64 61 56 52 52 49 49 49 51 53 53 53 54 57 58 61 63 64 64 66 67 66 67 61
16 16 20 25 32 42 47 54 56 55 52 52 53 55 56 57 56 55 60 59 56 55 48 46 52 50 50 50 53 54 57 58 59 59 61 64 65 66 66 68 68 67 67 50
18 18 22 25 32 39 45 56 57 58 57 55 54 54 56 58 58 51 52 50 53 55 54 51 50 49 51 55 56 56 57 58 59 62 63 65 67 69 69 67 66 64 53 46
20 17 18 23 23 36 40 49 58 59 59 57 56 55 55 57 57 54 54 51 50 49 51 52 58 55 54 56 55 59 62 62 63 64 67 67 66 67 71 69 64 63 54 51
21 19 19 21 23 27 37 45 53 58 58 55 56 54 56 57 59 61 60 58 59 59 59 58 57 54 54 57 59 60 61 62 63 66 69 71 72 68 68 65 68 67 55 54
25 22 24 22 24 25 29 36 44 48 50 51 53 53 53 52 55 58 60 63 67 67 67 65 62 61 62 62 62 64 63 62 63 68 67 68 68 70 71 69 68 68 60 66
30 28 26 26 27 29 28 29 36 44 44 44 48 49 47 49 52 56 58 58 61 60 60 58 59 62 64 62 62 59 59 60 62 65 64 67 69 69 69 67 67 61 57 63
32 33 30 31 31 32 32 33 34 37 37 37 40 40 45 50 54 56 57 58 57 58 57 57 58 60 60 60 61 63 61 64 64 67 70 72 68 67 63 63 64 65 65 72

GFSCGP_250_spd_108.txt.gz
Wind_Speed
86 88 88 91 90 92 89 80 71 81 79 79 82 77 76 83 81 68 73 82 86 87 89 91 93 89 85 81 69 60 64 66 66 75 76 76 70 64 56 52 57 54 51 44
87 87 91 91 91 89 82 82 86 85 87 92 85 74 73 70 74 71 81 88 94 96 88 90 90 93 89 82 75 62 62 68 67 68 71 74 74 66 58 54 53 50 46 40
90 92 92 92 94 87 89 94 96 91 96 93 90 76 77 78 78 86 84 87 91 94 92 90 89 94 97 84 82 75 64 66 68 65 72 74 70 64 59 54 53 45 42 45
99 102 101 97 96 94 101 104 102 101 97 93 100 90 78 86 87 89 89 88 88 85 82 85 84 86 90 86 82 76 68 65 68 67 68 71 68 64 61 56 60 56 53 50
106 104 104 105 104 106 103 104 106 105 102 101 95 95 69 86 79 81 85 86 81 78 81 75 72 72 72 72 70 68 68 65 68 65 63 69 72 67 57 55 58 60 52 46
106 103 104 106 103 105 105 107 107 102 99 99 94 91 62 81 76 76 75 72 70 69 65 63 60 62 66 61 61 63 64 62 65 65 60 66 71 66 57 57 51 51 48 47
101 97 99 101 102 104 104 100 99 97 94 90 86 79 69 69 68 67 63 58 58 55 53 51 47 51 52 51 50 56 58 60 62 63 60 67 71 66 59 56 49 43 40 42
92 95 97 97 100 97 96 96 93 86 79 75 75 69 64 64 63 58 54 52 50 45 44 40 38 38 40 43 47 52 56 59 60 61 60 67 69 66 59 57 52 46 40 44
85 85 85 89 90 87 82 85 81 75 73 66 67 63 62 62 56 51 48 42 40 36 32 29 33 32 35 41 47 51 56 58 56 59 65 69 68 62 56 51 53 52 52 50
75 75 78 81 74 73 70 76 74 71 66 64 58 58 57 52 47 43 40 35 30 27 24 26 28 31 34 37 40 46 52 55 58 58 66 66 64 58 55 55 53 51 47 48
69 68 66 67 69 73 71 67 64 58 58 57 56 51 48 43 34 34 33 32 25 25 28 30 29 30 32 34 35 40 44 51 59 60 60 57 58 52 48 49 54 54 49 48
57 59 63 67 66 63 60 56 52 50 50 49 46 47 38 29 29 30 31 31 28 29 31 31 32 34 34 32 33 32 36 44 51 52 48 48 45 45 44 47 46 46 44 40
59 58 59 59 53 52 49 49 47 44 42 40 39 34 30 26 32 35 36 30 28 33 34 36 37 38 35 33 34 39 40 43 50 49 47 46 43 42 40 46 45 44 42 38
56 53 51 49 47 45 44 41 39 39 38 34 33 34 29 34 40 37 33 28 29 31 33 35 36 38 38 35 37 44 48 51 52 51 48 45 46 43 42 45 44 38 34 38
46 44 44 42 40 37 36 35 35 33 27 27 31 34 32 42 44 40 39 38 32 33 38 35 39 39 39 38 37 40 46 52 55 51 51 51 52 49 45 45 49 49 45 48
37 37 36 32 31 31 30 30 30 26 24 34 37 39 38 45 48 50 46 46 41 35 34 37 39 42 41 41 43 46 46 49 50 50 52 53 50 52 47 49 53 51 55 58
31 28 26 24 23 24 27 28 23 20 31 35 39 40 38 49 51 49 51 50 48 41 43 44 40 42 45 47 45 49 48 51 50 51 49 43 44 44 51 52 54 53 53 54
25 22 20 18 17 22 25 25 25 26 35 40 43 42 41 49 55 48 56 51 51 51 46 36 38 42 46 48 50 50 51 54 52 51 46 49 44 45 59 58 57 57 58 60
21 19 16 14 18 23 28 28 31 34 36 44 45 44 44 48 56 53 59 52 49 52 53 44 43 45 44 50 52 51 55 57 52 55 51 56 52 67 67 65 63 61 61 62
16 17 14 14 18 27 32 36 38 45 42 41 49 49 46 47 57 59 58 58 52 51 53 48 41 46 44 48 54 57 62 57 59 62 58 55 56 65 56 54 61 64 68 70
16 15 12 14 21 29 35 41 45 53 50 49 52 52 46 47 52 55 61 63 56 52 51 49 50 43 50 50 53 50 57 58 61 62 60 63 60 64 67 69 67 69 70 71
15 14 11 9 18 27 33 42 51 54 51 50 56 54 49 48 49 51 56 60 64 59 55 50 52 52 50 49 53 56 56 55 57 60 62 65 64 66 71 71 72 73 73 75
18 12 14 14 14 26 32 40 49 56 51 52 52 54 50 44 48 47 56 54 54 57 59 57 55 53 55 52 59 60 61 63 59 59 63 67 70 72 73 73 76 76 78 79
19 15 16 17 17 19 28 37 47 53 56 51 51 52 46 46 46 48 48 52 54 52 56 56 55 54 52 54 53 55 61 62 62 64 68 70 72 75 76 79 80 79 80 82
22 20 18 18 20 21 22 26 38 50 56 54 51 51 50 46 43 43 50 54 54 55 55 57 57 55 62 65 65 68 67 66 66 68 70 72 76 78 79 80 83 86 87 87
25 25 22 24 23 25 25 25 30 35 41 46 53 55 52 52 46 41 46 50 56 63 64 64 64 63 65 66 67 68 68 72 73 75 78 79 81 83 85 87 90 91 91 90

GFSCGP_250_spd_111.txt.gz
Wind_Speed
71 71 75 80 81 82 83 85 88 88 91 91 89 84 88 95 84 71 76 83 83 81 81 89 95 96 90 82 86 86 84 84 84 77 64 54 58 62 64 68 70 65 57 53
85 81 81 80 84 86 86 87 88 89 92 94 91 77 69 85 77 86 89 91 84 77 77 77 81 83 87 85 88 91 89 90 86 79 68 56 58 63 64 68 66 66 60 58
95 91 90 91 86 85 88 88 90 92 91 88 88 72 78 87 88 92 91 90 86 82 77 77 78 81 83 88 90 92 92 93 87 78 68 58 60 56 59 60 64 65 68 64
103 102 101 102 102 104 100 98 92 95 96 93 98 82 85 91 90 88 89 86 83 83 81 78 80 86 89 92 95 92 87 85 85 79 68 59 57 52 63 67 70 69 67 64
113 111 111 110 108 109 107 105 102 99 100 98 100 92 74 81 91 92 88 86 86 85 84 84 85 86 88 90 91 89 82 83 87 79 70 62 59 56 71 72 70 65 65 65
115 116 115 110 110 111 106 104 103 100 100 97 94 93 81 84 86 85 83 83 82 79 80 79 81 78 77 78 77 78 77 77 78 76 69 64 64 65 73 72 68 63 65 62
96 98 95 97 95 93 97 96 94 94 92 90 92 91 83 78 79 78 70 71 72 70 69 66 65 64 64 65 66 64 63 65 70 70 67 66 68 71 73 71 66 62 61 58
76 77 77 79 83 84 83 83 85 85 86 84 82 81 77 75 70 69 65 64 58 55 53 52 51 49 49 51 53 54 54 57 60 64 64 66 64 70 69 69 63 61 58 57
65 67 70 75 77 77 77 79 79 76 76 76 75 75 66 67 62 58 54 48 44 43 41 39 35 36 39 40 43 44 46 47 50 54 58 60 67 67 65 67 64 60 57 52
61 63 66 69 67 68 69 69 69 69 72 69 66 62 60 55 49 45 43 42 40 35 29 29 30 33 32 35 37 40 41 43 48 49 50 53 62 58 57 60 62 59 51 49
55 56 59 59 59 58 60 64 65 63 62 56 56 54 49 45 45 42 39 34 29 24 25 28 27 26 28 29 30 33 35 39 43 43 43 46 54 54 51 57 64 54 49 50
49 51 50 49 50 54 57 56 54 51 51 49 50 48 41 42 38 34 30 25 20 21 26 27 26 20 19 24 24 27 29 33 33 38 47 46 49 50 52 56 58 53 50 47
41 43 46 50 53 54 52 49 45 43 46 47 46 41 38 32 28 22 24 23 18 24 26 26 26 23 18 22 23 25 23 26 29 36 44 41 40 45 46 49 53 50 47 47
39 46 50 51 52 50 45 41 40 40 42 41 38 32 29 26 25 26 27 17 23 26 27 30 27 33 37 26 18 12 25 29 30 36 42 47 40 40 44 50 48 41 43 45
44 47 52 50 47 43 40 38 37 35 31 30 26 25 24 24 25 31 29 27 31 29 29 30 31 30 31 28 33 31 28 36 37 38 42 45 44 46 49 49 44 46 51 49
44 42 42 38 37 37 34 32 30 25 24 23 21 22 24 23 26 36 33 35 33 33 30 33 30 29 31 29 30 29 30 35 40 30 46 48 46 48 45 45 48 52 50 50
34 31 32 33 31 28 28 25 23 19 19 20 19 21 22 24 36 39 36 38 38 38 38 36 32 30 32 32 30 31 32 34 42 49 48 50 46 42 43 42 48 48 49 49
28 28 28 25 21 23 24 21 18 17 20 21 22 24 25 31 41 41 40 42 43 39 37 34 35 30 29 33 31 30 32 36 43 46 50 52 43 40 40 38 47 51 52 54
23 24 22 20 19 18 19 17 18 18 20 22 24 27 31 35 42 42 46 43 45 41 39 33 30 29 27 32 36 35 35 41 40 46 48 47 49 48 45 42 50 51 58 60
19 19 19 18 18 17 20 19 22 21 25 26 27 30 34 50 44 42 46 49 45 47 43 41 35 33 32 29 39 39 37 42 44 45 47 48 49 56 60 60 54 64 66 63
18 18 17 17 18 20 22 21 26 26 31 29 31 32 36 44 49 45 48 49 47 49 47 46 37 36 35 34 39 44 44 46 45 47 50 50 53 56 57 63 71 66 68 66
15 16 17 17 18 20 25 25 27 32 33 31 32 34 38 41 43 49 54 54 54 50 50 47 43 48 40 40 41 43 47 50 52 53 54 57 57 58 59 62 69 73 73 68
14 14 20 20 19 22 21 28 32 36 36 36 36 36 44 41 40 42 52 54 57 58 53 49 47 44 50 46 46 47 49 54 58 58 65 60 64 65 64 66 69 71 74 75
16 17 21 22 20 22 24 21 29 35 38 42 39 38 43 48 47 46 47 47 44 60 61 58 54 50 49 48 53 55 54 54 58 58 59 71 75 73 72 74 74 75 80 82
18 19 23 24 23 23 22 25 29 34 34 38 40 43 46 47 46 43 44 43 42 40 49 54 56 62 65 59 57 59 61 59 61 63 66 67 71 76 78 78 82 83 84 86
19 19 24 25 25 26 25 24 25 28 30 38 41 38 39 38 37 37 37 38 42 42 45 49 54 55 57 63 64 63 60 60 66 67 69 75 77 78 78 83 84 85 88 90

GFSCGP_250_spd_114.txt.gz
Wind_Speed
83 83 81 84 84 81 80 76 79 81 81 83 83 83 90 90 92 92 92 92 92 93 90 88 89 89 80 77 82 85 88 89 90 88 86 82 84 86 79 69 59 61 57 62
98 92 91 91 88 87 87 88 84 82 85 86 86 81 96 95 96 94 94 93 94 94 90 83 82 83 85 85 89 90 91 94 89 87 89 89 88 87 86 79 61 59 61 62
102 100 96 93 92 93 91 90 90 92 93 89 91 79 95 96 97 98 96 100 99 93 89 88 90 92 93 92 92 93 93 92 94 92 90 88 92 88 86 81 70 67 67 65
101 100 102 101 98 98 100 99 98 97 97 94 94 91 87 97 99 90 96 94 91 92 93 93 92 94 92 91 91 91 91 93 95 96 93 89 88 93 86 86 80 70 63 65
106 97 97 100 103 103 103 104 106 108 105 100 96 99 83 96 96 95 97 94 93 93 92 89 89 89 92 90 87 88 88 91 95 94 93 92 88 91 92 87 86 74 64 65
102 96 89 87 89 90 96 100 104 107 104 99 100 100 90 96 92 90 92 93 91 88 88 87 86 85 86 87 87 89 90 91 91 91 90 90 89 87 92 87 87 82 62 67
99 91 82 79 78 76 79 81 85 87 93 92 87 89 89 79 84 82 84 85 87 85 79 77 79 78 78 77 77 77 76 77 81 77 79 81 81 78 79 78 82 76 59 66
80 75 68 68 67 67 68 70 73 73 76 75 73 72 76 75 76 77 80 79 75 70 71 69 67 66 64 63 64 65 65 66 68 68 70 74 73 72 70 72 74 70 63 72
69 64 60 58 56 57 55 59 62 65 66 67 70 70 70 71 71 69 67 64 63 61 59 58 55 56 56 56 55 53 53 55 56 55 56 60 63 64 67 71 73 72 63 70
61 55 51 51 51 52 53 53 55 58 60 62 64 65 65 61 57 54 56 57 54 50 48 44 44 43 43 43 41 38 39 41 42 44 46 48 52 54 61 67 67 68 64 65
50 48 47 48 47 48 48 50 51 54 56 59 57 54 49 46 48 50 49 45 42 37 34 32 28 27 26 25 27 28 29 31 31 31 33 37 40 44 50 54 56 56 66 58
42 43 44 43 42 43 44 47 50 52 52 48 46 47 47 41 41 41 35 34 31 26 21 16 15 16 15 15 20 21 21 21 23 22 21 22 24 28 36 38 46 51 52 54
38 39 39 40 40 43 47 49 47 43 42 43 43 38 35 34 34 30 30 24 16 14 10 15 18 15 14 14 12 6 10 12 13 14 19 23 24 27 29 37 39 42 46 47
36 39 39 40 44 48 46 41 39 38 39 36 32 31 32 32 28 25 20 15 14 14 22 23 25 21 19 13 6 0 11 11 17 18 24 31 28 25 31 33 35 37 38 43
36 37 41 44 46 45 40 35 31 32 31 30 26 26 25 22 18 17 18 18 20 23 30 30 30 29 22 20 18 19 11 14 19 26 28 32 33 34 37 36 37 38 41 48
37 43 44 43 43 36 35 34 32 29 29 25 18 18 18 16 17 21 18 23 28 36 34 37 34 31 29 25 27 19 17 21 21 30 31 34 37 37 39 41 39 41 41 48
42 42 42 40 36 34 33 31 29 25 22 17 16 18 18 17 20 24 24 31 38 37 31 34 33 30 31 30 31 25 22 30 28 36 41 40 41 36 37 42 42 43 43 46
42 38 35 32 31 32 29 27 22 19 16 16 16 19 19 23 23 24 35 39 43 39 35 37 33 27 26 30 30 27 23 33 38 39 39 46 49 46 42 39 38 41 44 52
30 32 30 26 27 29 25 21 18 18 16 18 20 22 24 26 28 28 40 42 43 39 38 37 30 29 27 30 28 25 26 33 37 37 41 44 47 48 40 41 38 41 41 44
25 28 25 24 22 25 21 19 20 20 20 21 22 25 28 30 32 31 38 37 44 42 39 38 36 28 30 27 25 27 26 33 42 38 43 48 49 51 47 47 48 46 46 49
20 25 23 22 22 22 21 21 22 22 22 24 22 23 29 32 39 43 41 42 39 45 44 41 40 31 33 31 27 32 31 30 33 42 49 46 42 46 43 46 53 56 58 61
18 23 23 21 22 24 24 23 23 25 23 24 25 25 26 29 36 46 49 44 41 37 46 46 44 40 33 37 37 34 39 37 37 45 47 50 52 53 50 55 55 56 58 66
19 22 23 23 24 24 25 26 26 25 24 23 25 23 26 30 34 38 50 53 51 45 44 46 47 43 42 41 42 40 42 43 43 46 51 52 56 60 58 60 60 62 67 69
19 19 24 25 26 27 28 24 24 26 25 25 26 27 28 31 32 36 40 52 55 53 54 51 49 51 48 47 42 49 47 52 52 52 54 58 60 61 64 66 68 68 74 77
20 18 27 29 28 29 31 29 27 25 26 28 30 32 31 30 33 34 35 37 42 48 46 54 59 57 60 57 54 46 51 55 57 60 62 62 65 67 69 71 74 75 78 80
22 18 30 32 30 29 30 31 28 24 25 31 35 35 35 32 29 31 33 33 35 39 43 46 51 51 50 58 65 64 59 55 60 65 69 70 72 75 76 78 82 82 84 86

GFSCGP_250_spd_117.txt.gz
Wind_Speed
93 93 99 101 100 97 96 94 92 95 95 89 84 84 84 88 88 86 87 90 93 92 93 92 92 93 93 93 95 95 89 88 85 83 80 79 78 78 77 76 75 76 74 72
99 100 107 103 103 103 104 104 103 103 102 100 93 89 93 93 91 94 94 96 97 98 99 98 98 100 100 98 96 96 94 90 85 84 85 85 83 85 82 80 84 82 82 80
101 104 105 104 106 108 109 108 110 113 103 99 97 92 94 96 98 97 96 99 103 105 105 106 104 104 102 98 98 97 97 96 94 94 92 89 90 90 90 86 82 84 83 82
106 108 107 111 108 112 108 118 116 110 99 99 100 98 88 100 104 107 100 93 103 107 107 106 104 105 105 106 103 99 100 101 104 100 97 98 95 91 88 87 85 84 82 80
106 109 112 116 121 120 120 116 105 103 101 100 89 110 79 105 103 113 98 99 105 107 105 103 104 104 105 105 106 105 104 101 99 99 100 97 95 90 89 86 85 85 82 81
112 117 120 121 118 115 110 102 102 99 92 87 84 95 84 94 100 101 100 103 103 103 105 106 106 105 106 107 107 101 96 94 94 95 95 95 93 92 91 87 83 80 81 84
120 124 123 104 101 98 95 96 90 85 83 72 75 75 86 83 87 96 98 97 98 102 107 104 107 105 101 97 95 91 89 88 91 91 92 92 92 92 90 87 83 82 84 84
126 124 110 97 102 91 87 75 75 71 68 64 63 62 74 70 74 78 82 84 88 89 91 90 87 82 81 81 83 85 82 80 80 80 78 77 79 79 80 81 84 81 84 85
115 106 94 95 93 83 75 68 61 56 54 52 54 58 59 59 65 67 70 71 74 77 77 75 72 74 74 71 69 70 69 66 64 62 63 64 66 68 69 68 71 69 74 80
102 97 90 81 72 70 63 58 53 51 49 51 52 56 59 56 60 62 65 67 67 65 64 64 62 57 54 54 53 51 52 51 50 48 48 50 52 52 53 57 60 60 55 61
90 80 74 66 61 54 53 54 49 49 49 52 52 55 55 54 53 53 54 55 53 51 48 44 42 40 41 42 43 43 40 39 39 38 39 42 45 42 40 42 45 48 46 52
69 65 60 52 49 48 48 45 46 48 49 48 46 44 45 39 38 42 44 40 39 35 33 31 31 30 27 23 22 22 21 21 20 21 19 22 27 30 29 28 25 29 38 48
58 52 48 47 47 43 43 44 45 45 46 44 39 40 41 39 40 40 33 29 28 27 26 24 21 16 15 12 11 9 6 11 14 7 7 9 16 20 20 27 34 28 31 33
46 44 44 45 43 44 41 44 44 42 42 40 41 39 38 33 32 27 23 22 20 19 19 21 18 20 18 11 2 7 7 6 5 3 4 10 13 22 18 20 26 29 35 41
40 40 42 42 41 40 43 42 40 40 38 33 28 29 29 28 27 19 17 17 22 24 33 28 27 27 22 18 11 8 5 2 11 14 15 14 16 23 26 22 22 27 33 36
39 40 38 37 41 43 44 41 39 33 28 23 23 24 24 22 18 17 17 24 27 29 37 33 33 27 25 24 22 10 7 5 11 21 21 20 20 20 25 29 30 31 33 36
35 35 36 41 43 42 39 32 29 26 24 20 21 21 19 18 18 18 26 27 31 36 40 40 35 27 26 28 26 22 17 17 14 20 23 23 24 23 22 27 31 36 36 38
33 37 41 41 39 34 31 27 26 25 21 17 19 18 19 20 21 24 30 30 39 38 39 45 41 35 32 29 29 22 21 24 22 24 22 26 30 28 21 27 29 28 24 28
39 41 41 37 33 31 27 27 25 23 18 16 19 21 25 26 25 26 35 37 42 42 40 41 43 38 33 29 30 31 24 28 25 33 26 30 37 28 31 34 34 30 25 29
39 41 36 33 29 29 25 23 20 20 17 19 22 26 32 31 28 26 35 41 43 45 45 40 36 31 31 26 31 29 30 25 32 35 35 39 45 43 37 44 41 39 36 37
39 35 31 30 27 26 24 21 20 21 20 21 24 28 36 36 32 31 32 37 44 46 45 44 39 33 33 28 30 34 30 25 28 39 41 45 48 43 47 50 50 44 47 50
31 30 28 27 25 25 24 23 23 22 21 24 25 27 33 38 39 36 37 36 48 49 48 46 44 40 38 32 35 35 31 32 30 43 42 46 51 50 46 53 51 54 54 51
29 27 26 25 25 26 26 26 24 24 24 27 28 26 30 37 39 41 41 40 42 42 44 47 47 47 45 40 33 41 40 40 40 41 50 46 49 56 59 59 58 55 57 59
25 24 25 26 26 26 27 28 28 26 27 27 28 29 29 31 36 39 46 46 44 48 48 46 46 46 44 50 46 43 47 46 50 47 49 50 55 56 62 63 61 63 62 65
26 24 26 27 26 28 29 30 30 28 29 28 30 30 30 33 34 37 42 48 51 50 51 50 50 55 52 50 48 50 45 53 54 56 56 55 59 64 63 69 68 67 70 72
27 25 27 29 28 31 30 31 31 29 27 29 29 29 31 33 34 36 37 40 44 50 55 58 60 58 60 61 60 56 56 55 53 63 63 64 65 66 73 71 75 75 77 79

GFSCGP_250_spd_120.txt.gz
Wind_Speed
77 77 80 85 95 92 91 93 89 91 96 105 97 94 92 96 97 97 97 97 100 95 91 88 93 93 93 94 95 94 92 88 86 86 87 88 88 87 87 82 77 73 69 73
85 84 87 91 93 95 97 100 98 96 103 108 107 107 97 102 104 105 103 106 108 105 96 94 97 96 99 100 97 97 95 94 90 88 88 90 92 91 89 87 79 75 72 72
85 89 93 89 90 96 99 104 105 108 107 109 111 109 109 115 114 114 115 110 103 99 96 100 102 103 104 106 105 104 102 102 99 99 100 101 100 97 91 85 79 83 79 76
86 88 91 93 92 102 100 108 111 113 114 113 109 117 120 110 104 110 119 96 88 94 99 101 103 105 108 108 109 109 109 109 109 107 105 105 101 99 98 99 92 90 89 83
98 98 100 100 103 108 114 118 118 118 115 121 109 121 107 97 99 99 96 94 92 95 97 99 102 104 109 110 109 108 108 108 109 108 107 105 104 101 99 98 98 95 92 90
101 101 104 107 112 116 120 123 121 117 112 107 100 103 97 98 92 88 82 83 87 89 90 92 97 100 106 111 112 111 110 111 110 110 109 108 106 106 106 105 100 93 87 86
108 108 110 113 114 121 123 119 113 102 101 97 95 95 95 84 73 74 73 71 76 76 81 81 88 95 100 104 106 108 107 105 103 103 104 109 106 102 95 88 85 86 85 83
111 115 122 119 120 120 113 113 101 99 96 90 85 77 83 69 58 63 68 66 67 70 71 76 81 83 88 92 97 99 98 97 100 99 95 92 87 84 84 86 85 83 82 81
118 121 124 121 122 112 111 106 102 97 87 79 71 67 70 57 54 55 56 58 62 64 63 64 65 69 72 73 75 76 79 81 80 79 79 78 77 74 72 74 74 73 74 73
125 122 123 118 109 103 101 96 89 82 71 67 62 60 60 54 53 53 52 54 56 57 56 54 54 56 57 59 61 63 65 67 66 64 62 61 60 59 59 60 59 54 53 52
126 118 108 104 97 92 85 78 72 67 62 57 53 53 56 54 49 47 48 48 50 50 49 50 52 51 48 48 48 48 48 48 47 46 43 42 43 44 46 47 46 44 44 43
103 96 99 94 82 72 64 64 60 54 53 51 50 50 52 49 43 41 42 43 42 39 39 38 34 33 32 32 33 33 33 32 31 28 27 28 32 37 42 35 30 32 37 36
95 89 82 70 62 57 53 51 49 49 48 51 50 46 44 39 40 42 40 34 31 32 27 24 22 22 22 20 15 12 12 12 14 15 16 16 17 24 21 23 25 27 30 37
79 69 61 56 51 48 45 45 45 47 47 46 43 37 42 41 41 37 31 27 26 24 22 18 16 19 20 14 11 8 8 7 9 13 14 12 11 16 16 17 19 25 35 43
57 53 49 45 42 41 41 44 45 46 44 40 40 38 39 37 33 28 23 23 21 19 19 24 28 28 21 16 15 12 6 4 8 13 12 12 12 14 16 18 26 32 40 44
44 41 38 37 39 40 42 44 43 42 42 38 34 33 30 29 26 21 22 19 20 25 34 34 30 28 26 22 20 12 8 5 12 11 13 14 16 16 18 26 31 33 41 44
34 34 35 38 39 38 40 42 41 38 33 28 28 26 24 23 18 20 20 24 30 36 39 34 30 30 29 28 23 16 14 11 19 12 14 18 17 19 21 23 25 28 32 31
30 33 36 36 36 38 41 40 34 28 23 25 23 20 18 17 17 20 26 31 34 44 35 37 33 31 29 33 30 25 19 18 17 19 19 20 19 21 23 24 23 24 27 32
31 32 33 37 37 38 40 32 28 24 19 20 18 16 18 21 22 26 32 35 37 44 37 34 38 36 31 28 35 31 27 23 21 23 21 22 22 26 24 24 28 27 30 29
31 33 36 36 36 37 33 27 25 23 16 17 18 20 26 27 26 29 36 37 40 44 38 33 35 42 41 34 30 34 31 27 28 28 25 23 26 29 26 27 31 34 32 33
34 36 38 38 36 33 29 24 23 21 16 17 20 24 29 32 31 31 35 39 42 41 43 39 36 35 43 42 36 33 33 27 27 33 35 32 36 36 33 34 39 36 34 34
38 38 38 37 31 30 26 25 21 19 18 19 22 28 35 38 35 36 34 33 40 42 44 41 38 41 42 42 39 33 34 37 30 34 37 39 40 45 43 42 43 45 43 43
40 39 39 34 30 29 26 24 21 19 19 21 25 30 41 42 39 36 35 32 36 47 47 46 47 47 48 48 49 36 39 40 42 39 37 42 46 53 52 51 50 51 51 50
42 40 36 30 31 26 26 24 23 19 21 23 29 31 35 45 44 42 40 40 42 42 44 48 51 50 55 53 51 51 39 42 44 44 44 44 55 55 59 61 58 58 61 62
40 35 33 31 29 27 27 26 24 23 23 26 31 35 35 38 46 50 50 48 46 47 48 46 50 56 59 58 60 59 55 49 50 52 53 54 52 63 62 66 68 65 67 70
36 34 31 30 29 29 27 26 26 25 25 30 31 31 33 34 35 42 47 49 51 51 54 56 57 59 61 63 61 60 59 56 55 58 62 62 62 60 67 69 75 73 73 74

GFSCGP_250_spd_123.txt.gz
Wind_Speed
76 73 75 76 78 81 84 88 87 84 87 89 87 84 87 91 93 98 103 106 108 108 101 93 89 93 99 98 91 91 87 81 87 89 83 83 81 82 82 82 79 76 73 71
82 80 82 80 83 83 84 86 87 88 93 95 87 85 92 93 100 109 109 114 114 110 107 103 103 102 106 103 101 97 95 91 89 93 95 92 92 90 87 85 83 80 78 79
88 82 84 84 85 88 90 92 93 93 95 94 97 95 99 97 108 119 118 114 113 110 110 108 107 101 95 94 101 101 100 97 94 95 98 98 94 91 89 87 85 82 79 76
85 87 87 89 91 95 91 98 99 100 100 101 102 110 103 105 112 118 111 110 111 105 105 107 101 93 92 92 92 99 102 100 96 98 100 102 102 100 99 95 91 89 86 86
94 94 94 91 93 98 98 103 101 100 101 107 92 119 114 112 117 107 99 98 97 96 95 98 92 86 85 83 88 90 93 95 96 99 101 103 101 102 100 100 98 95 96 94
96 98 99 98 98 101 101 107 114 114 116 114 113 119 116 114 102 95 94 95 93 89 86 85 82 76 76 74 76 81 85 87 88 93 97 100 103 104 102 103 102 100 98 97
100 98 104 106 105 109 114 117 117 120 123 118 118 123 117 102 93 93 89 90 86 81 75 75 73 68 65 66 65 67 70 76 81 84 90 95 99 103 104 104 104 101 100 97
104 104 112 110 113 116 117 123 127 126 112 112 118 106 106 92 93 87 79 73 71 67 64 60 57 55 53 55 56 57 59 62 67 72 78 85 88 93 100 107 108 106 105 101
113 111 115 116 121 121 123 118 116 113 106 104 93 97 93 87 78 74 68 61 58 54 52 51 49 45 43 44 47 50 51 54 58 61 66 71 75 78 84 91 95 96 96 94
121 118 118 118 114 107 101 101 102 108 98 90 86 85 81 70 63 57 54 51 49 49 46 46 46 46 44 41 41 42 45 45 47 50 51 54 56 58 61 65 70 73 76 77
115 114 102 102 100 97 94 93 90 94 94 84 73 64 63 59 51 46 45 43 45 44 44 45 43 43 39 36 34 35 36 37 40 41 43 45 46 47 49 52 53 56 59 60
105 102 100 97 97 99 93 89 89 80 71 68 63 52 50 48 45 42 40 40 38 41 41 40 38 34 28 26 26 26 26 25 25 25 25 26 29 34 37 40 42 41 41 42
103 102 95 95 98 95 90 85 72 66 61 56 49 42 44 45 43 40 41 39 38 36 35 31 28 26 22 23 22 17 13 10 10 13 13 16 20 24 28 29 27 30 31 33
99 93 94 90 87 80 72 61 57 54 51 46 43 38 43 43 42 42 39 36 35 33 27 24 22 19 18 17 14 15 12 9 5 5 9 13 16 19 24 21 23 23 26 27
83 84 81 81 69 58 52 50 45 42 43 42 43 38 43 41 42 39 34 31 25 21 20 19 19 20 22 19 20 17 17 13 11 9 12 12 14 16 18 18 20 20 18 21
72 73 65 55 46 44 40 38 36 41 44 41 40 42 39 35 32 26 26 23 20 19 20 22 29 29 25 21 21 17 13 10 15 16 12 15 16 15 17 19 17 13 14 20
55 51 45 42 34 31 34 35 37 41 40 41 39 34 29 27 22 22 22 20 19 21 27 35 35 31 25 21 21 19 16 14 19 15 15 16 18 21 17 20 21 23 23 23
40 37 33 33 27 27 33 34 38 39 38 32 29 25 23 21 18 20 19 20 25 31 34 37 35 30 27 25 24 20 16 17 18 18 17 16 16 18 20 16 18 25 27 31
30 27 26 28 25 30 33 35 38 35 27 27 24 22 19 18 19 19 22 27 33 38 37 38 34 32 33 29 30 29 23 21 21 21 23 23 17 21 22 22 22 25 29 33
25 23 26 27 28 29 35 34 36 28 22 24 21 19 18 19 20 23 28 32 36 39 40 39 33 33 32 34 31 34 34 29 25 27 25 25 23 24 27 25 26 27 26 25
24 26 29 28 28 32 35 35 29 26 21 22 20 17 19 25 27 30 27 32 37 40 42 37 30 35 37 38 34 36 35 38 34 31 29 29 27 29 29 29 32 34 33 34
27 28 30 30 31 32 36 31 25 23 20 21 20 19 24 29 32 36 32 33 33 34 39 37 33 34 36 39 43 43 42 38 35 36 38 36 36 35 36 35 36 38 37 39
27 28 31 34 34 33 31 29 24 21 20 20 22 24 28 34 35 38 35 35 36 36 38 37 35 35 41 38 41 40 40 41 42 41 40 36 44 45 44 45 44 44 45 47
28 30 33 34 39 29 27 27 24 21 21 21 24 27 33 37 40 38 40 40 39 38 38 42 44 43 44 49 46 46 47 48 48 43 43 47 45 50 52 53 53 53 52 56
33 32 37 39 36 30 26 26 24 23 22 23 25 29 34 41 44 42 42 43 46 44 45 47 48 53 56 53 55 55 55 57 56 57 52 52 54 53 53 57 60 63 63 62
37 38 39 37 34 30 25 26 25 25 23 23 26 31 35 41 49 49 49 50 47 49 49 53 55 57 57 61 62 63 62 63 61 61 61 60 59 61 61 61 61 65 71 72

GFSCGP_250_spd_126.txt.gz
Wind_Speed
69 67 74 74 75 75 73 74 76 79 80 83 88 88 91 91 93 94 96 97 96 96 95 95 99 100 101 101 107 105 102 100 99 96 92 86 85 80 76 74 73 69 69 62
76 72 76 77 80 81 83 82 84 87 89 85 82 82 89 95 99 98 99 98 95 96 100 106 103 104 108 109 109 105 103 103 100 97 99 94 90 90 86 82 77 78 72 69
80 78 81 82 83 85 89 90 88 88 86 88 88 85 88 96 101 103 102 102 108 111 114 113 112 111 114 111 107 99 95 95 97 97 97 98 95 96 98 91 85 82 83 81
83 88 87 88 86 88 87 92 94 95 97 96 97 98 93 101 106 103 108 110 116 119 120 114 112 115 112 103 94 91 90 89 90 90 89 92 91 94 97 99 91 87 88 87
87 91 93 90 92 95 96 96 96 96 97 98 98 112 97 107 110 112 116 122 126 124 118 108 109 106 100 91 87 83 81 80 80 82 81 79 84 88 95 99 97 93 91 92
95 97 95 95 98 98 101 100 100 100 100 98 103 113 106 109 113 118 122 125 126 115 104 97 93 93 93 84 76 70 66 64 64 67 75 75 76 80 89 98 97 97 95 96
98 98 99 102 104 107 107 107 109 107 107 106 109 115 115 109 107 106 101 102 99 92 89 90 87 81 76 70 64 58 53 52 52 54 59 65 67 73 80 87 93 97 95 99
106 107 108 110 108 110 111 112 115 116 113 109 111 107 96 90 92 95 93 91 86 81 80 75 71 67 62 58 52 48 45 45 43 44 48 51 55 60 69 75 79 85 90 97
107 109 111 114 114 114 115 116 117 119 112 109 92 91 88 88 90 89 88 83 76 69 64 60 56 50 49 49 46 42 39 39 39 38 40 41 44 48 55 64 71 74 78 86
113 114 113 113 116 119 119 115 114 109 101 96 91 84 85 85 84 81 71 67 63 58 52 47 43 42 42 42 40 38 39 36 36 35 35 35 35 39 46 53 62 69 74 79
115 116 114 118 118 117 115 107 104 105 103 97 86 81 82 80 75 65 58 54 47 43 43 43 41 37 37 33 32 34 35 34 32 30 31 32 32 33 36 43 51 59 65 70
121 119 115 115 114 110 106 107 105 101 91 87 83 76 78 70 62 54 46 41 40 40 41 40 37 36 33 32 30 30 26 24 21 21 22 25 27 29 31 35 41 46 52 55
120 118 110 105 108 107 108 103 96 90 79 74 74 65 60 58 53 46 41 39 39 38 36 34 34 34 29 27 24 19 17 14 12 12 14 15 17 19 23 27 29 32 37 42
110 107 105 102 99 100 93 86 80 73 68 64 57 53 51 47 46 43 40 38 36 35 34 32 32 27 26 23 17 17 16 14 12 12 9 7 9 13 14 19 20 22 25 30
100 99 93 89 87 82 70 65 63 56 53 48 48 45 45 43 42 41 39 38 36 30 27 25 22 20 21 15 18 19 17 14 15 11 8 8 9 11 12 16 14 15 23 27
92 82 74 69 70 58 55 51 44 45 43 41 41 43 42 40 39 35 33 30 26 22 20 19 17 21 19 22 22 21 17 16 21 18 17 12 12 10 10 11 14 20 25 23
73 68 61 56 52 41 40 35 35 36 38 38 39 40 40 38 31 28 26 23 20 19 19 19 24 26 22 24 22 20 19 17 21 17 18 17 14 14 13 16 17 22 22 26
63 57 47 43 33 30 31 31 32 33 34 36 39 39 35 29 25 24 24 22 19 18 21 28 32 29 25 25 22 21 20 20 17 15 16 20 21 17 16 16 19 21 19 22
50 39 35 31 24 26 29 28 29 32 33 35 35 30 26 23 23 23 22 20 19 23 31 35 35 31 29 26 26 26 24 22 20 20 17 18 20 21 22 21 20 22 23 24
37 29 27 25 23 25 28 27 29 33 32 32 29 23 22 21 22 22 22 22 23 31 35 37 36 34 32 29 31 31 28 27 25 24 26 23 24 23 23 27 26 24 25 27
29 26 27 25 23 27 29 28 30 32 32 27 26 21 21 21 23 24 25 26 26 36 37 35 34 35 33 33 35 36 35 36 33 30 30 29 30 27 27 27 33 31 29 27
26 27 28 23 24 30 28 29 30 32 31 25 24 22 21 23 25 28 30 29 29 35 36 35 37 37 40 36 37 38 38 37 36 36 37 36 36 34 34 32 34 36 35 33
29 28 24 25 28 28 29 29 30 29 27 24 24 24 23 26 26 32 35 36 30 36 35 40 38 39 42 41 41 40 42 46 43 42 40 38 40 41 42 40 40 41 41 41
28 26 27 27 28 26 31 32 28 27 26 25 24 24 24 29 29 37 35 37 36 35 40 36 37 39 43 42 41 42 44 49 48 48 47 47 47 47 45 44 45 49 49 47
26 26 27 27 27 29 33 33 27 25 26 26 24 26 27 30 35 39 40 40 40 40 39 42 44 46 48 50 51 48 48 48 52 53 51 52 53 54 55 53 54 51 57 57
27 27 26 30 31 34 34 31 28 25 27 25 27 27 29 32 36 41 44 44 45 45 45 48 51 52 53 54 54 55 58 61 61 60 61 62 62 62 61 61 60 63 62 66